     2              OBSERVATION DATA    GPS                 RINEX VERSION / TYPE
teqc 1997Jul24 19970814                                     PGM / RUN BY / DATE
                                                            COMMENT
BIT 2 OF LLI FLAGS DATA COLLECTED UNDER A-S CONDITION       COMMENT
BIT 2 OF LLI FLAGS DATA COLLECTED UNDER A-S CONDITION       COMMENT
Original Marker Name: OCOT                                  COMMENT
Campaign Name: hpgn ca 1991                                 COMMENT
4-Character Station Name: OCOT                              COMMENT
6-Character Antenna Code: TRMSST                            COMMENT
Vertical Measurement Point: BPA                             COMMENT
Vertical Offset to Rinex Ref. Point: 0.0000                 COMMENT
Radial Measurement Point: RRP                               COMMENT
Radial Offset to Rinex Ref. Point: 0.0000                   COMMENT
Antenna Height from Field Measurement: 2.2200 m             COMMENT
Original XYZ: -2335601.4675 -4832252.8013 3434398.0489      COMMENT
New XYZ position is based on association with SCEC monument COMMENT
E1C8V7N3+0011. Position of that monument is believed to be  COMMENT
valid to within 1 m horizontally; vertical accuracy         COMMENT
should be no worse than 3-times this value.                 COMMENT
                                                            COMMENT
Revised Rinex header created by UCSD GPS archive for        COMMENT
GSAC on 10-Apr-1999 (1999:100) 05:33:51 GMT                 COMMENT
For assistance contact dagnew@ucsd.edu or hjohnson@ucsd.edu COMMENT
                                                            COMMENT
OCOTILLO NCMN                                               MARKER NAME
unknown NATIONAL GEODETIC SURVEY                            OBSERVER / AGENCY
486 TRIMBLE 4000 SST NP 4.30 / SP 4.20                      REC # / TYPE / VERS
17 TR 4000SST L1/L2 GEO                                     ANT # / TYPE
 -2335602.0000 -4832244.0000  3434393.0000                  APPROX POSITION XYZ
        2.2200        0.0000        0.0000                  ANTENNA: DELTA H/E/N
     1     1     0                                          WAVELENGTH FACT L1/2
     3    C1    L1    L2                                    # / TYPES OF OBSERV
     0                                                      INTERVAL
  1991     4     7    20    22   45.000000                  TIME OF FIRST OBS
  1991     4     8     3    29   60.000000                  TIME OF LAST OBS
     0                                                      # OF SATELLITES
                                                            END OF HEADER
 91  4  7 20 22 45.0000000  0  4G18G11G14G19
  20471460.5394         -0.12858        -0.44772
  24617864.773          -0.12315        -0.28431
  23537250.578          -0.68315        -0.25831
  21288196.6254         -0.61257        -0.42172
 91  4  7 20 23  0.0000000  0  4G18G11G14G19
  20468157.2194     -17356.36948    -13524.78662
  24607263.6724     -55719.20345    -43417.49161
  23544442.602       37797.729 5     29452.82921
  21283215.641      -26178.916 7    -20399.07622
 91  4  7 20 23 15.0000000  0  4G18G11G14G19
  20464870.8284     -34628.87548    -26983.88162
  24596664.1024    -111419.07145    -86819.70861
  23551633.438       75594.792 5     58904.86521
  21278237.500      -52336.842 7    -40781.84922
 91  4  7 20 23 30.0000000  0  4G18G11G14G19
  20461603.8834     -51802.23848    -40365.72462
  24586070.5314    -167083.98545   -130194.74561
  23558828.336      113405.132 5     88367.23821
  21273263.711      -78459.095 7    -61136.82622
 91  4  7 20 23 45.0000000  0  4G18G11G14G19
  20458355.5864     -68870.19148    -53665.42162
  24575485.7664    -222707.32245   -173537.30961
  23566029.688      151234.847 5    117844.72121
  21268302.523     -104539.535 7    -81459.22622
 91  4  7 20 24  0.0000000  0  4G18G11G14G19
  20455127.9384     -85834.10748    -66884.05962
  24564908.9694    -278290.09245   -216848.32661
  23573228.742      189081.819 5    147335.63021
  21263349.695     -130579.743 7   -101750.27522
 91  4  7 20 24 15.0000000  0  4G18G11G14G19
  20451920.0164    -102687.14448    -80016.29462
  24554339.0784    -333825.08145   -260122.07161
  23580437.7424     226952.66545    176845.14461
  21258401.875     -156572.989 7   -122004.72822
 91  4  7 20 24 30.0000000  0  4G18G11G14G19
  20448732.5474    -119434.33648    -93066.05362
  24543781.6094    -389317.30045   -303362.53261
  23587649.0004     264841.41445    206368.60761
  21253462.055     -182524.631 7   -142226.76322
 91  4  7 20 24 45.0000000  0  4G18G11G14G19
  20445568.3284    -136065.62848   -106025.50262
  24533232.6564    -444756.40845   -346561.59161
  23594863.344      302757.644 5    235913.47821
  21248534.031     -208424.689 7   -162408.60522
 91  4  7 20 25  0.0000000  0  4G18G11G14G19
  20442425.2814    -152583.86148   -118896.85262
  24522690.4774    -500144.72145   -389721.07761
  23602082.3284     340698.12145    265477.25261
  21243614.531     -234275.945 7   -182552.41422
 91  4  7 20 25 15.0000000  0  4G18G11G14G19
  20439303.7664    -168989.79648   -131680.70162
  24512160.039     -555482.928 5   -432841.50621
  23609308.0864     378661.64145    295058.98161
  21238703.406     -260079.725 7   -202659.23322
 91  4  7 20 25 30.0000000  0  4G18G11G14G19
  20436203.0084    -185283.04448   -144376.73762
  24501639.625     -610770.045 5   -475922.12821
  23616535.3674     416648.21845    324658.67461
  21233802.695     -285835.531 7   -222728.66822
 91  4  7 20 25 45.0000000  0  4G18G11G14G19
  20433123.2344    -201465.64248   -156986.55162
  24491130.031     -666007.874 5   -518964.32921
  23623767.8984     454655.22245    354274.28661
  21228913.227     -311545.668 7   -242762.51322
 91  4  7 20 26  0.0000000  0  4G18G11G14G19
  20430064.1024    -217538.84848   -169511.12762
  24480622.938     -721197.503 5   -561969.01321
  23631003.8524     492680.85945    383904.41161
  21224028.7974    -337211.78647   -262762.06162
 91  4  7 20 26 15.0000000  0  4G18G11G14G19
  20427028.2664    -233493.88848   -181943.62562
  24470132.172     -776330.038 5   -604929.17621
  23638247.6724     530733.28145    413555.41361
  21219153.867     -362825.342 7   -282720.64522
 91  4  7 20 26 30.0000000  0  4G18G11G14G19
  20424014.1254    -249336.53748   -194288.54462
  24459651.766     -831410.809 5   -647849.04321
  23645492.555      568806.435 5    443222.55821
  21214287.0864    -388392.17247   -302642.83362
 91  4  7 20 26 45.0000000  0  4G18G11G14G19
  20421020.0634    -265065.74748   -206545.07662
  24449181.1724    -886438.18145   -690727.23961
  23652741.0944     606900.77145    472906.22361
  21209433.047     -413911.189 7   -322527.75222
 91  4  7 20 27  0.0000000  0  4G18G11G14G19
  20418047.3284    -280688.51648   -218718.66162
  24438716.8674    -941419.14045   -733569.34061
  23659994.6484     645008.70245    502600.45961
  21204581.742     -439389.700 7   -342381.11222
 91  4  7 20 27 15.0000000  0  4G18G11G14G19
  20415095.6954    -296201.27848   -230806.52662
  24428263.711     -996349.920 5   -776372.30121
  23667248.266      683133.005 5    532307.46521
  21199744.188     -464824.332 7   -362200.28222
 91  4  7 20 27 30.0000000  0  4G18G11G14G19
  20412164.8834    -311604.06248   -242808.69662
  24417823.234    -1051230.217 5   -819135.94321
  23674504.352      721273.613 5    562027.17321
  21194910.047     -490215.200 7   -381985.34922
 91  4  7 20 27 45.0000000  0  4G18G11G14G19
  20409254.7194    -326895.76648   -254724.31162
  24407388.852    -1106058.465 5   -861858.99921
  23681767.3594     759431.12545    591760.06361
  21190088.750     -515561.310 7   -401735.53922
 91  4  7 20 28  0.0000000  0  4G18G11G14G19
  20406365.8834    -342078.19248   -266554.77362
  24396961.3674   -1160836.30045   -904542.78861
  23689032.2114     797603.08145    621504.20761
  21185273.875     -540864.665 7   -421452.41922
 91  4  7 20 28 15.0000000  0  4G18G11G14G19
  20403496.7344    -357153.82548   -278302.01762
  24386547.945    -1215565.976 5   -947189.06521
  23696299.266      835786.454 5    651257.22521
  21180466.719     -566128.161 7   -441138.23622
 91  4  7 20 28 30.0000000  0  4G18G11G14G19
  20400649.4144    -372120.04648   -289964.01262
  24376143.3524   -1270244.42545   -989795.36861
  23703567.828      873983.310 5    681020.76721
  21175664.695     -591349.192 7   -460790.96322
 91  4  7 20 28 45.0000000  0  4G18G11G14G19
  20397821.7504    -386977.58048   -301541.30762
  24365749.1644   -1324871.93845  -1032362.03061
  23710838.8984     912192.54245    710793.94461
  21170874.273     -616528.595 7   -480411.25222
 91  4  7 20 29  0.0000000  0  4G18G11G14G19
  20395015.6804    -401722.87848   -313031.14862
  24355363.9844   -1379444.80445  -1074886.08461
  23718113.0394     950417.36245    740579.27461
  21166091.070     -641663.181 7   -499996.62322
 91  4  7 20 29 15.0000000  0  4G18G11G14G19
  20392231.8204    -416355.31048   -324433.04762
  24344984.375    -1433962.157 5  -1117366.89521
  23725387.5944     988657.83945    770376.79361
  21161317.9384    -666752.26547   -519546.53462
 91  4  7 20 29 30.0000000  0  4G18G11G14G19
  20389467.9454    -430877.83348   -335749.29462
  24334622.734    -1488426.571 5  -1159806.45821
  23732669.984     1026910.401 5    800183.73221
  21156551.070     -691798.923 7   -539063.39122
 91  4  7 20 29 45.0000000  0  4G18G11G14G19
  20386724.8364    -445292.80148   -346981.74262
  24324266.4224   -1542839.98845  -1202206.29161
  23739950.391     1065172.447 5    829998.06921
  21151791.938     -716805.606 7   -558549.09822
 91  4  7 20 30  0.0000000  0  4G18G11G14G19
  20384002.9144    -459597.70248   -358128.42062
  24313923.875    -1597199.806 5  -1244564.36921
  23747232.695     1103445.674 5    859821.11321
  21147039.961     -741770.272 7   -578002.06222
 91  4  7 20 30 15.0000000  0  4G18G11G14G19
  20381301.3754    -473791.80948   -369188.76562
  24303591.5554   -1651504.98145  -1286879.84261
  23754517.3524    1141730.37345    889653.09161
  21142298.977     -766692.273 7   -597421.78322
 91  4  7 20 30 30.0000000  0  4G18G11G14G19
  20378622.0234    -487874.24848   -380162.09862
  24293267.570    -1705754.171 5  -1329151.71521
  23761809.953     1180027.261 5    919494.56321
  21137565.539     -791570.763 7   -616807.59622
 91  4  7 20 30 45.0000000  0  4G18G11G14G19
  20375964.0944    -501843.75748   -391047.43662
  24282954.5474   -1759946.15745  -1371378.99061
  23769096.477     1218336.609 5    949345.74921
  21132839.102     -816404.939 7   -636158.87822
 91  4  7 20 31  0.0000000  0  4G18G11G14G19
  20373325.6564    -515705.87748   -401849.09162
  24272651.4064   -1814085.87445  -1413565.53261
  23776387.539     1256652.758 5    979202.22921
  21128118.203     -841200.290 7   -655479.91122
 91  4  7 20 31 15.0000000  0  4G18G11G14G19
  20370708.3984    -529456.09948   -412563.55562
  24262360.820    -1868168.500 5  -1455707.60221
  23783681.047     1294979.662 5   1009067.07921
  21123411.031     -865952.444 7   -674767.28222
 91  4  7 20 31 30.0000000  0  4G18G11G14G19
  20368113.3674    -543093.65548   -423190.22862
  24252079.8754   -1922193.13945  -1497804.48661
  23790978.2504    1333317.35445   1038940.35361
  21118710.531     -890660.912 7   -694020.61022
 91  4  7 20 31 45.0000000  0  4G18G11G14G19
  20365539.7664    -556618.33048   -433728.94462
  24241809.953    -1976159.040 5  -1539855.61821
  23798274.1254    1371665.81645   1068821.99861
  21114017.180     -915325.353 7   -713239.63522
 91  4  7 20 32  0.0000000  0  4G18G11G14G19
  20362988.8204    -570026.96748   -444177.23562
  24231553.250    -2030062.894 6  -1581858.39421
  23805577.008     1410027.879 5   1098714.25921
  21109333.656     -939942.971 7   -732422.17222
 91  4  7 20 32 15.0000000  0  4G18G11G14G19
  20360457.2344    -583329.31548   -454542.70762
  24221306.6174   -2083913.89246  -1623819.98461
  23812877.5864    1448393.22345   1128609.05961
  21104654.250     -964523.560 7   -751575.85522
 91  4  7 20 32 30.0000000  0  4G18G11G14G19
  20357947.1254    -596520.31948   -464821.41362
  24211070.141    -2137706.988 5  -1665736.46621
  23820177.719     1486766.125 5   1158509.76121
  21099981.742     -989062.528 7   -770697.10822
 91  4  7 20 32 45.0000000  0  4G18G11G14G19
  20355459.7504    -609593.56148   -475008.35962
  24200846.148    -2191435.136 6  -1707602.33221
  23827483.5474    1525153.05145   1188421.37261
  21095323.750    -1013553.146 7   -789780.68022
 91  4  7 20 33  0.0000000  0  4G18G11G14G19
  20352992.5634    -622554.34948   -485107.68162
  24190631.4694   -2245103.54945  -1749421.65461
  23834788.5634    1563547.87045   1218339.14761
  21090672.734    -1038001.134 7   -808831.04122
 91  4  7 20 33 15.0000000  0  4G18G11G14G19
  20350547.5474    -635407.10448   -495122.82162
  24180428.0784   -2298716.20645  -1791197.51761
  23842098.0474    1601945.55845   1248259.14761
  21086027.1724   -1062411.08347   -827851.75562
 91  4  7 20 33 30.0000000  0  4G18G11G14G19
  20348121.5784    -648149.48648   -505051.95662
  24170235.719    -2352270.643 5  -1832928.02921
  23849405.266     1640347.975 5   1278182.85121
  21081386.227    -1086780.636 7   -846840.99722
 91  4  7 20 33 45.0000000  0  4G18G11G14G19
  20345717.7344    -660786.08448   -514898.66262
  24160056.945    -2405770.781 5  -1874616.23221
  23856713.8834    1678750.57745   1308106.68961
  21076759.547    -1111114.385 7   -865802.33722
 91  4  7 20 34  0.0000000  0  4G18G11G14G19
  20343333.9694    -673309.22148   -524656.95662
  24149887.063    -2459208.784 5  -1916256.02721
  23864024.922     1717160.277 5   1338036.06221
  21072133.695    -1135405.038 7   -884730.10122
 91  4  7 20 34 15.0000000  0  4G18G11G14G19
  20340971.2734    -685724.77748   -534331.42262
  24139729.273    -2512590.487 5  -1957851.93921
  23871334.414     1755570.545 5   1367965.85921
  21067521.484    -1159658.896 7   -903629.18522
 91  4  7 20 34 30.0000000  0  4G18G11G14G19
  20338630.7664    -698026.97748   -543917.56062
  24129581.9304   -2565909.64545  -1999399.12761
  23878643.859     1793986.895 5   1397900.43821
  21062915.273    -1183870.017 7   -922494.97422
 91  4  7 20 34 45.0000000  0  4G18G11G14G19
  20336311.6884    -710218.64348   -553417.56762
  24119446.9614   -2619168.85745  -2040899.61161
  23885951.992     1832405.593 5   1427836.81621
  21058312.938    -1208041.492 7   -941329.87122
 91  4  7 20 35  0.0000000  0  4G18G11G14G19
  20334011.2274    -722300.75448   -562832.20562
  24109324.867    -2672368.717 5  -2082353.80421
  23893265.031     1870825.518 5   1457774.14721
  21053718.906    -1232174.435 7   -960134.74222
 91  4  7 20 35 15.0000000  0  4G18G11G14G19
  20331735.1724    -734267.42248   -572156.88762
  24099212.4064   -2725502.84745  -2123756.83461
  23900578.500     1909252.433 5   1487716.94721
  21049138.664    -1256262.736 7   -978904.82422
 91  4  7 20 35 30.0000000  0  4G18G11G14G19
  20329477.6484    -746126.65348   -581397.85162
  24089111.703    -2778579.083 5  -2165114.72121
  23907891.5554    1947677.80945   1517658.52461
  21044560.375    -1280314.752 7   -997646.63422
 91  4  7 20 35 45.0000000  0  4G18G11G14G19
  20327242.414     -757874.294 8   -590551.86722
  24079023.8834   -2831592.82945  -2206423.93761
  23915202.688     1986105.194 5   1547601.66721
  21039990.922    -1304326.563 7  -1016357.11722
 91  4  7 20 36  0.0000000  0  4G18G11G14G19
  20325028.6024    -769506.74048   -599616.11862
  24068947.5634   -2884540.24245  -2247681.48561
  23922518.0944    2024537.81245   1577548.88361
  21035428.039    -1328294.526 7  -1035033.43122
 91  4  7 20 36 15.0000000  0  4G18G11G14G19
  20322836.7664    -781030.28748   -608595.51562
  24058882.8594   -2937427.27045  -2288891.97361
  23929829.7894    2062968.64545   1607494.72461
  21030875.805    -1352225.159 7  -1053680.66122
 91  4  7 20 36 30.0000000  0  4G18G11G14G19
  20320665.117     -792439.459 8   -617485.79022
  24048832.414    -2990248.231 5  -2330050.94721
  23937142.0634    2101402.74645   1637443.11761
  21026333.742    -1376113.244 7  -1072294.73322
 91  4  7 20 36 45.0000000  0  4G18G11G14G19
  20318515.797     -803733.753 8   -626286.54722
  24038794.5634   -3043002.32945  -2371157.84561
  23944457.9774    2139840.05145   1667394.00561
  21021791.414    -1399958.551 7  -1090875.47522
 91  4  7 20 37  0.0000000  0  4G18G11G14G19
  20316388.0704    -814918.34748   -635001.82062
  24028765.7584   -3095694.24545  -2412216.28261
  23951771.8754    2178275.06845   1697343.09461
  21017261.352    -1423765.992 7  -1109426.71022
 91  4  7 20 37 15.0000000  0  4G18G11G14G19
  20314279.4384    -825994.52048   -643632.61162
  24018750.2504   -3148324.97745  -2453227.04661
  23959082.6954    2216706.03645   1727289.02661
  21012739.195    -1447537.137 7  -1127949.66522
 91  4  7 20 37 30.0000000  0  4G18G11G14G19
  20312194.7974    -836955.05448   -652173.29762
  24008749.2974   -3200886.91846  -2494184.21961
  23966401.859     2255139.785 5   1757237.13921
  21008223.547    -1471264.863 7  -1146438.78422
 91  4  7 20 37 45.0000000  0  4G18G11G14G19
  20310129.3134    -847801.74448   -660625.27162
  23998758.781    -3253381.801 5  -2535089.13921
  23973713.859     2293574.235 5   1787185.79021
  21003716.766    -1494951.243 7  -1164895.69022
 91  4  7 20 38  0.0000000  0  4G18G11G14G19
  20308086.3444    -858540.93948   -668993.48062
  23988782.063    -3305815.400 6  -2575946.31621
  23981028.0004    2332002.43145   1817129.56061
  20999214.352    -1518602.524 7  -1183325.24422
 91  4  7 20 38 15.0000000  0  4G18G11G14G19
  20306064.805     -869164.193 8   -677271.35222
  23978817.336    -3358179.142 6  -2616749.04621
  23988339.7664    2370432.11845   1847074.49561
  20994723.234    -1542210.403 7  -1201720.97822
 91  4  7 20 38 30.0000000  0  4G18G11G14G19
  20304065.0474    -879673.57548   -685460.49062
  23968866.8444   -3410474.59646  -2657498.58861
  23995651.8594    2408861.19545   1877018.95361
  20990238.789    -1565776.959 7  -1220084.50922
 91  4  7 20 38 45.0000000  0  4G18G11G14G19
  20302086.148     -890071.505 8   -693562.78122
  23958925.789    -3462703.778 5  -2698196.47921
  24002964.453     2447286.921 5   1906960.79421
  20985762.602    -1589304.880 7  -1238417.94022
 91  4  7 20 39  0.0000000  0  4G18G11G14G19
  20300130.2344    -900353.54848   -701574.77562
  23949000.547    -3514861.861 5  -2738838.96721
  24010277.5944    2485713.37845   1936903.22061
  20981291.617    -1612789.867 7  -1256717.91222
 91  4  7 20 39 15.0000000  0  4G18G11G14G19
  20298195.2344    -910521.83048   -709498.12162
  23939088.852    -3566950.891 5  -2779427.67021
  24017592.9224    2524137.63145   1966843.91661
  20976831.563    -1636234.198 7  -1274986.20822
 91  4  7 20 39 30.0000000  0  4G18G11G14G19
  20296280.9454    -920576.15748   -717332.66862
  23929190.8134   -3618970.31945  -2819962.10161
  24024900.3834    2562559.09345   1996782.44961
  20972376.656    -1659637.801 7  -1293222.76922
 91  4  7 20 39 45.0000000  0  4G18G11G14G19
  20294390.3204    -930513.71948   -725076.22562
  23919301.3444   -3670916.84045  -2860439.74161
  24032214.3834    2600980.69145   2026721.08161
  20967933.273    -1682997.782 7  -1311425.33222
 91  4  7 20 40  0.0000000  0  4G18G11G14G19
  20292520.9304    -940337.61348   -732731.21762
  23909430.828    -3722793.462 5  -2900862.92821
  24039522.3984    2639398.57045   2056656.81261
  20963494.578    -1706317.741 7  -1329596.71422
 91  4  7 20 40 15.0000000  0  4G18G11G14G19
  20290673.4844    -950050.45148   -740299.66962
  23899570.9144   -3774602.28445  -2941233.26461
  24046832.211     2677809.864 5   2086587.42321
  20959066.430    -1729600.159 7  -1347738.84122
 91  4  7 20 40 30.0000000  0  4G18G11G14G19
  20288846.477     -959649.553 8   -747779.50022
  23889728.727    -3826340.489 5  -2981548.57921
  24054143.7504    2716216.63645   2116514.48961
  20954642.586    -1752842.555 7  -1365849.78522
 91  4  7 20 40 45.0000000  0  4G18G11G14G19
  20287041.2424    -969134.29148   -755170.21462
  23879893.9534   -3878006.93345  -3021808.01361
  24061450.6254    2754619.21145   2146438.30961
  20950227.414    -1776044.225 7  -1383928.99422
 91  4  7 20 41  0.0000000  0  4G18G11G14G19
  20285257.820     -978508.712 8   -762474.96722
  23870075.141    -3929605.333 5  -3062014.39021
  24068758.453     2793013.042 5   2176355.31521
  20945817.3834   -1799209.45347  -1401979.80862
 91  4  7 20 41 15.0000000  0  5G18G 2G11G14G19
  20283495.1884    -987772.25448   -769693.31962
  24390846.7344         -0.15855
  23860270.867    -3981134.718 5  -3102167.00521
  24076062.5474    2831398.44545   2206265.75861
  20941416.461    -1822337.692 7  -1420001.80022
 91  4  7 20 41 30.0000000  0  5G18G 2G11G14G19
  20281754.6644    -996916.66448   -776818.84262
  24378600.4534     -64359.80645
  23850478.930    -4032586.701 5  -3142259.30621
  24083366.9384    2869783.09845   2236175.59961
  20937022.391    -1845420.904 7  -1437988.70422
 91  4  7 20 41 45.0000000  0  5G18G 2G11G14G19
  20280037.5394   -1005942.16348   -783851.70862
  24366360.6884    -128679.04845
  23840703.227    -4083961.266 5  -3182291.28521
  24090669.9144    2908166.38945   2266084.38961
  20932641.633    -1868459.347 7  -1455940.72122
 91  4  7 20 42  0.0000000  0  5G18G 2G11G14G19
  20278341.789    -1014850.101 8   -790792.97122
  24354129.4694    -192958.86745
  23830942.352    -4135259.084 6  -3222263.47021
  24097976.680     2946546.591 5   2295990.77421
  20928266.750    -1891454.472 7  -1473858.98822
 91  4  7 20 42 15.0000000  0  5G18G 2G11G14G19
  20276668.4924   -1023646.06548   -797646.98162
  24341903.047     -257204.499 5
  23821193.6804   -4186485.33546  -3262179.87261
  24105277.6414    2984917.89745   2325890.23261
  20923896.250    -1914411.788 7  -1491747.78722
 91  4  7 20 42 30.0000000  0  5G18G 2G11G14G19
  20275018.0164   -1032322.39848   -804407.76462
  24329684.398     -321408.497 5
  23811459.742    -4237632.513 6  -3302034.69821
  24112576.680     3023287.114 5   2355788.05021
  20919533.883    -1937324.079 7  -1509601.50822
 91  4  7 20 42 45.0000000  0  5G18G 2G11G14G19
  20273388.500    -1040883.241 8   -811078.56322
  24317474.117     -385574.866 5        -0.14131
  23801742.4064   -4288704.22346  -3341830.71761
  24119877.9694    3061649.57845   2385680.64061
  20915183.922    -1960195.556 7  -1527423.42622
 91  4  7 20 43  0.0000000  0  5G18G 2G11G14G19
  20271782.0394   -1049325.28448   -817656.79162
  24305271.047     -449700.434 5    -49967.86321
  23792038.7424   -4339696.86646  -3381565.08361
  24127176.859     3100008.189 5   2415570.16321
  20910840.438    -1983023.070 7  -1545211.08522
 91  4  7 20 43 15.0000000  0  5G18G 2G11G14G19
  20270197.0004   -1057655.22348   -824147.66162
  24293074.969     -513791.554 5    -99908.74721
  23782349.180    -4390616.715 6  -3421242.74721
  24134476.820     3138356.218 5   2445451.50321
  20906502.438    -2005813.194 7  -1562969.60922
 91  4  7 20 43 30.0000000  0  5G18G 2G11G14G19
  20268632.352    -1065872.785 8   -830550.96922
  24280887.1724    -577847.82845   -149822.51061
  23772673.5314   -4441463.28646  -3460863.32061
  24141775.0164    3176693.27745   2475324.26261
  20902171.469    -2028566.059 7  -1580699.09822
 91  4  7 20 43 45.0000000  0  5G18G 2G11G14G19
  20267091.1564   -1073973.18948   -836862.98462
  24268704.2734    -641864.43845   -199705.33161
  23763010.781    -4492231.409 6  -3500422.77121
  24149065.1884    3215023.60545   2505191.77461
  20897851.539    -2051276.698 7  -1598395.68222
 91  4  7 20 44  0.0000000  0  4G18G 2G11G19
  20265572.500    -1081954.101 8   -843081.89322
  24256529.0234    -705838.60745   -249555.09561
  23753365.2344   -4542918.26746  -3539918.85961
  20893539.352    -2073942.776 7  -1616057.54522
 91  4  7 20 44 14.9990000  0  4G18G 2G11G19
  20264075.706    -1089821.236 8   -849212.13722
  24244362.8394    -769772.10045   -299373.13561
  23743734.2454   -4593526.19346  -3579353.47161
  20889233.120    -2096568.996 7  -1633688.35022
 91  4  7 20 44 29.9990000  0  4G18G 2G11G19
  20262599.862    -1097572.265 8   -855251.92022
  24232202.987     -833670.362 5   -349163.76421
  23734121.019    -4644058.650 6  -3618729.26421
  20884936.831    -2119155.473 7  -1651288.18822
 91  4  7 20 44 44.9990000  0  4G18G 2G11G19
  20261148.253    -1105206.682 8   -861200.83122
  24220051.480     -897528.980 5   -398923.48521
  23724517.4954   -4694511.99346  -3658043.40761
  20880644.237    -2141700.823 7  -1668855.97622
 91  4  7 20 44 59.9990000  0  4G18G 2G11G19
  20259717.792    -1112725.188 8   -867059.41922
  24207907.0654    -961348.40845   -448652.68261
  23714931.3944   -4744886.32946  -3697295.98661
  20876359.011    -2164205.591 7  -1686392.14022
 91  4  7 20 45 14.9990000  0  4G18G 2G11G19
  20258308.550    -1120126.643 8   -872826.80322
  24195770.409    -1025127.480 5   -498350.43121
  23705360.8944   -4795180.25546  -3736485.90861
  20872087.542    -2186668.860 7  -1703895.97122
 91  4  7 20 45 29.9990000  0  4G18G 2G11G19
  20256921.105    -1127418.403 8   -878508.70922
  24183640.9804   -1088873.27545   -548022.24861
  23695804.4724   -4845400.51246  -3775618.41561
  20867820.323    -2209097.793 7  -1721373.04922
 91  4  7 20 45 44.9990000  0  4G18G 2G11G19
  20255554.933    -1134598.950 8   -884103.96122
  24171513.7454   -1152584.40045   -597667.04461
  23686260.769    -4895545.492 6  -3814692.28821
  20863557.1054   -2231491.05047  -1738822.32562
 91  4  7 20 45 59.9990000  0  4G18G 2G11G19
  20254209.964    -1141665.896 8   -889610.68722
  24159399.550    -1216258.319 5   -647282.85821
  23676734.940    -4945612.510 6  -3853705.39121
  20859301.292    -2253846.384 7  -1756242.05222
 91  4  7 20 46 14.9990000  0  4G18G 2G11G19
  20252886.855    -1148618.253 8   -895028.12722
  24147289.1514   -1279893.67145   -696868.61861
  23667222.8474   -4995600.04146  -3892656.57761
  20855057.565    -2276162.861 7  -1773631.50022
 91  4  7 20 46 29.9990000  0  4G18G 2G11G19
  20251586.315    -1155453.153 8   -900354.03722
  24135189.159    -1343487.927 5   -746422.37221
  23657726.0654   -5045505.34146  -3931543.67961
  20850816.862    -2298438.151 7  -1790988.85522
 91  4  7 20 46 44.9990000  0  4G18G 2G11G19
  20250307.675    -1162172.253 8   -905589.71822
  24123094.120    -1407042.467 5   -795945.16221
  23648244.964    -5095329.556 6  -3970367.61421
  20846588.565    -2320673.800 7  -1808315.31922
 91  4  7 20 46 59.9990000  0  4G18G 2G11G19
  20249051.425    -1168775.833 8   -910735.38222
  24111006.0264   -1470556.97145   -845436.77861
  23638780.2374   -5145072.14546  -4009127.91761
  20842364.261    -2342869.817 7  -1825610.90222
 91  4  7 20 47 14.9990000  0  4G18G 2G11G19
  20247817.714    -1175256.939 8   -915785.61122
  24098929.7224   -1534024.64145   -894891.89561
  23629328.9724   -5194726.04146  -4047819.12861
  20838148.542    -2365019.422 7  -1842870.31922
 91  4  7 20 47 29.9990000  0  4G18G 2G11G19
  20246606.761    -1181621.909 8   -920745.34722
  24086860.362    -1597451.717 5   -944315.36121
  23619894.690    -5244297.303 5  -4086445.93621
  20833939.222    -2387129.135 7  -1860098.65022
 91  4  7 20 47 44.9990000  0  4G18G 2G11G19
  20245417.269    -1187870.603 8   -925614.47422
  24074797.6754   -1660837.94445   -993707.03461
  23610479.0034   -5293785.56546  -4125008.10661
  20829742.089    -2409199.083 7  -1877295.99822
 91  4  7 20 47 59.9990000  0  4G18G 2G11G19
  20244250.308    -1194002.796 8   -930392.82422
  24062744.300    -1724182.867 5  -1043066.51721
  23601076.823    -5343190.134 6  -4163505.04521
  20825547.894    -2431228.960 7  -1894462.12122
 91  4  7 20 48 14.9990000  0  4G18G 2G11G19
  20243106.370    -1200019.725 8   -935081.35022
  24050697.1754   -1787487.48745  -1092394.56261
  23591691.644    -5392511.747 6  -4201937.34721
  20821363.464    -2453219.806 7  -1911597.83022
 91  4  7 20 48 29.9990000  0  4G18G 2G11G19
  20241983.800    -1205914.692 8   -939674.85422
  24038657.0584   -1850745.28845  -1141686.14861
  23582323.808    -5441743.563 6  -4240299.66321
  20817187.159    -2475165.244 7  -1928698.15922
 91  4  7 20 48 44.9990000  0  4G18G 2G11G19
  20240884.120    -1211696.792 8   -944180.40622
  24026628.0584   -1913965.15745  -1190948.17261
  23572968.206    -5490894.448 6  -4278598.93521
  20813017.690    -2497074.523 7  -1945770.30922
 91  4  7 20 48 59.9990000  0  4G18G 2G11G19
  20239803.745    -1217364.468 8   -948596.79322
  24014604.9644   -1977145.37445  -1240179.30761
  23563632.9874   -5539962.40846  -4316833.56861
  20808859.206    -2518946.133 7  -1962813.10822
 91  4  7 20 49 14.9990000  0  4G18G 2G11G19
  20238749.503    -1222912.426 8   -952919.90122
  24002588.784    -2040280.416 5  -1289375.25021
  23554310.472    -5588941.665 6  -4354999.10021
  20804701.769    -2540774.758 7  -1979822.41322
 91  4  7 20 49 29.9990000  0  4G18G 2G11G19
  20237715.675    -1228339.161 8   -957148.54422
  23990585.4564   -2103368.57245  -1338534.63961
  23545008.573    -5637830.228 6  -4393093.94421
  20800556.597    -2562558.808 7  -1996796.98122
 91  4  7 20 49 44.9990000  0  4G18G 2G11G19
  20236706.175    -1233652.348 8   -961288.71022
  23978587.0584   -2166417.63345  -1387663.56161
  23535721.636    -5686635.612 6  -4431123.97421
  20796420.042    -2584306.222 7  -2013743.00122
 91  4  7 20 49 59.9990000  0  4G18G 2G11G19
  20235717.230    -1238849.162 8   -965338.19622
  23966596.042    -2229424.642 5  -1436759.73421
  23526450.3784   -5735354.70046  -4469086.78861
  20792286.800    -2606014.339 7  -2030658.40322
 91  4  7 20 50 14.9990000  0  4G18G 2G11G19
  20234749.347    -1243928.309 8   -969295.99422
  23954616.2454   -2292388.06645  -1485821.95261
  23517195.808    -5783985.857 6  -4506981.05021
  20788164.605    -2627681.752 7  -2047542.08622
 91  4  7 20 50 29.9990000  0  4G18G 2G11G19
  20233804.972    -1248892.541 8   -973164.24522
  23942641.651    -2355310.506 5  -1534852.21421
  23507957.0034   -5832531.55246  -4544808.74761
  20784048.237    -2649311.360 7  -2064396.31022
 91  4  7 20 50 44.9990000  0  4G18G 2G11G19
  20232882.776    -1253737.294 8   -976939.39822
  23930676.589    -2418187.048 5  -1583846.72921
  23498734.550    -5880986.587 6  -4582565.79221
  20779941.542    -2670898.341 7  -2081217.32322
 91  4  7 20 50 59.9990000  0  4G18G 2G11G19
  20231982.870    -1258466.065 8   -980624.17722
  23918720.269    -2481021.073 5  -1632808.11421
  23489532.909    -5929354.196 6  -4620254.70821
  20775840.3944   -2692446.27347  -2098007.90262
 91  4  7 20 51 14.9990000  0  4G18G 2G11G19
  20231105.690    -1263079.937 8   -984219.42222
  23906770.894    -2543813.672 5  -1681737.21521
  23480344.855    -5977635.050 6  -4657876.00621
  20771748.198    -2713956.370 7  -2114769.00222
 91  4  7 20 51 29.9990000  0  4G18G 2G11G19
  20230250.558    -1267573.836 8   -987721.18422
  23894828.511    -2606559.822 5  -1730630.11521
  23471173.7924   -6025823.91246  -4695425.65361
  20767662.5264   -2735423.75447  -2131496.82262
 91  4  7 20 51 44.9990000  0  4G18G 2G11G19
  20229417.425    -1271953.034 8   -991133.56622
  23882896.964    -2669264.605 5  -1779490.79921
  23462021.909    -6073925.674 6  -4732907.41721
  20763584.9174   -2756853.66547  -2148195.44162
 91  4  7 20 51 59.9990000  0  4G18G 2G11G19
  20228604.745    -1276219.894 8   -994458.41522
  23870974.112    -2731930.108 5  -1828320.85021
  23452883.026    -6121942.200 6  -4770322.75421
  20759513.0194   -2778248.49247  -2164866.72162
 91  4  7 20 52 14.9990000  0  4G18G 2G11G19
  20227816.433    -1280365.587 8   -997688.84722
  23859056.183    -2794547.190 5  -1877113.19021
  23443764.8004   -6169864.35546  -4807664.57561
  20755450.534    -2799599.409 7  -2181503.78922
 91  4  7 20 52 29.9990000  0  4G18G 2G11G19
  20227051.269    -1284386.573 8  -1000822.10622
  23847150.0894   -2857112.58145  -1925865.23261
  23434665.3394   -6217688.50746  -4844930.01261
  20751394.3394   -2820903.22047  -2198104.14962
 91  4  7 20 52 44.9990000  0  4G18G 2G11G19
  20226307.073    -1288293.035 8  -1003866.12722
  23835251.362    -2919636.046 5  -1974584.62721
  23425580.776    -6265424.245 6  -4882126.56521
  20747348.823    -2842169.853 7  -2214675.53622
 91  4  7 20 52 59.9990000  0  4G18G 2G11G19
  20225587.667    -1292080.023 8  -1006817.04922
  23823362.589    -2982112.485 5  -2023267.37721
  23416516.050    -6313066.238 6  -4919250.06221
  20743311.2374   -2863394.55447  -2231214.25362
 91  4  7 20 53 14.9990000  0  4G18G 2G11G19
  20224889.612    -1295748.188 8  -1009675.38322
  23811483.1364   -3044542.69045  -2071914.07261
  23407466.159    -6360614.956 6  -4956300.87821
  20739278.597    -2884578.078 7  -2247720.87822
 91  4  7 20 53 29.9990000  0  4G18G 2G11G19
  20224215.105    -1299290.807 8  -1012435.89022
  23799613.6594   -3106919.57345  -2120519.24761
  23398435.1364   -6408063.23946  -4993273.45161
  20735257.6754   -2905713.61747  -2264190.11962
 91  4  7 20 53 44.9990000  0  4G18G 2G11G19
  20223563.042    -1302719.572 8  -1015107.67822
  23787749.6834   -3169254.55845  -2169091.78361
  23389425.2064   -6455422.24146  -5030176.43961
  20731240.8624   -2926812.80647  -2280631.03462
 91  4  7 20 53 59.9990000  0  4G18G 2G11G19
  20222931.628    -1306033.340 8  -1017689.86022
  23775898.0504   -3231546.39045  -2217630.66861
  23380429.683    -6502690.563 6  -5067008.76321
  20727233.8554   -2947874.61847  -2297042.82762
 91  4  7 20 54 14.9990000  0  4G18G 2G11G19
  20222324.300    -1309230.830 8  -1020181.43422
  23764051.8004   -3293793.94745  -2266135.06661
  23371451.6124   -6549866.79446  -5103769.33561
  20723232.019    -2968897.943 7  -2313424.63022
 91  4  7 20 54 29.9990000  0  4G18G 2G11G19
  20221737.894    -1312305.189 8  -1022577.06122
  23752214.456    -3355990.209 5  -2314599.50121
  23362493.901    -6596943.733 6  -5140452.53221
  20719242.1444   -2989876.02247  -2329771.17362
 91  4  7 20 54 44.9990000  0  4G18G 2G11G19
  20221175.440    -1315265.324 8  -1024883.68122
  23740390.487    -3418143.604 5  -2363030.50821
  23353554.355    -6643929.526 6  -5177064.70121
  20715256.9644   -3010817.46147  -2346089.16462
 91  4  7 20 54 59.9990000  0  4G18G 2G11G19
  20220633.651    -1318110.388 8  -1027100.63922
  23728569.3554   -3480253.36745  -2411427.54161
  23344629.1834   -6690823.20746  -5213605.10561
  20711275.839    -3031721.567 7  -2362378.06922
 91  4  7 20 55 14.9990000  0  4G18G 2G11G19
  20220117.276    -1320832.076 8  -1029221.45522
  23716759.1754   -3542311.06445  -2459783.99561
  23335724.7374   -6737616.20446  -5250067.05761
  20707309.1284   -3052580.24047  -2378631.56962
 91  4  7 20 55 29.9990000  0  4G18G 2G11G19
  20219619.753    -1323439.488 8  -1031253.23022
  23704957.1594   -3604325.77745  -2508106.97561
  23326839.144    -6784317.356 6  -5286457.42921
  20703347.2454   -3073402.72147  -2394856.86962
 91  4  7 20 55 44.9990000  0  4G18G 2G11G19
  20219146.065    -1325929.799 8  -1033193.75622
  23693166.440    -3666294.202 5  -2556393.85521
  23317968.8624   -6830923.28946  -5322773.60561
  20699392.6284   -3094185.92147  -2411051.55862
 91  4  7 20 55 59.9990000  0  4G18G 2G11G19
  20218694.855    -1328299.774 8  -1035040.51522
  23681383.2374   -3728212.91745  -2604642.00861
  23309117.464    -6877430.114 6  -5359012.57321
  20695444.1124   -3114926.37347  -2427212.94362
 91  4  7 20 56 14.9990000  0  4G18G 2G11G19
  20218267.839    -1330545.418 8  -1036790.38322
  23669611.5114   -3790077.67245  -2652848.14961
  23300288.511    -6923833.540 6  -5395170.94821
  20691508.2534   -3135620.22647  -2443338.01262
 91  4  7 20 56 29.9990000  0  4G18G 2G11G19
  20217863.050    -1332673.488 8  -1038448.64222
  23657846.464    -3851895.332 5  -2701017.57021
  23291475.620    -6970140.378 6  -5431254.07621
  20687577.6984   -3156274.63347  -2459432.34762
 91  4  7 20 56 44.9990000  0  4G18G 2G11G19
  20217480.183    -1334686.030 8  -1040016.87822
  23646092.5194   -3913667.67445  -2749151.67361
  23282681.6364   -7016352.13346  -5467263.11761
  20683653.9954   -3176891.51447  -2475497.43862
 91  4  7 20 56 59.9990000  0  4G18G 2G11G19
  20217120.878    -1336572.798 8  -1041487.11022
  23634346.6124   -3975384.28745  -2797242.37461
  23273908.659    -7062458.071 6  -5503189.68421
  20679740.7374   -3197460.52247  -2491525.22862
 91  4  7 20 57 14.9990000  0  4G18G 2G11G19
  20216783.940    -1338344.432 8  -1042867.63022
  23622614.222    -4037055.786 5  -2845297.89821
  23265153.7064   -7108468.72846  -5539042.02261
  20675831.4254   -3217992.48947  -2507524.15562
 91  4  7 20 57 29.9990000  0  4G18G 2G11G19
  20216470.487    -1339997.983 8  -1044156.13522
  23610886.745    -4098679.376 5  -2893316.10921
  23256417.2694   -7154380.94346  -5574817.64661
  20671930.0114   -3238484.62847  -2523492.04662
 91  4  7 20 57 44.9990000  0  4G18G 2G11G19
  20216178.3944   -1341526.72948  -1045347.39762
  23599168.636    -4160247.648 5  -2941291.21821
  23247699.183    -7200187.140 6  -5610510.65621
  20668042.7224   -3258929.79947  -2539423.33662
 91  4  7 20 57 59.9990000  0  4G18G 2G11G19
  20215910.7924   -1342933.92548  -1046443.94262
  23587462.8154   -4221763.97445  -2989225.84161
  23238999.769    -7245890.442 6  -5646123.48221
  20664160.745    -3279331.592 7  -2555320.82322
 91  4  7 20 58 14.9990000  0  4G18G 2G11G19
  20215667.7224   -1344215.25948  -1047442.41162
  23575766.8474   -4283224.03345  -3037116.61861
  23230324.7144   -7291486.21246  -5681652.52861
  20660285.9254   -3299685.70347  -2571181.16062
 91  4  7 20 58 29.9990000  0  4G18G 2G11G19
  20215445.784    -1345380.091 8  -1048350.09322
  23564081.323    -4344636.681 5  -3084970.46121
  23221667.2374   -7336983.29746  -5717104.66861
  20656418.4174   -3320001.32847  -2587011.50962
 91  4  7 20 58 44.9990000  0  4G18G 2G11G19
  20215245.269    -1346429.212 8  -1049167.61322
  23552404.0114   -4406002.59945  -3132787.90561
  23213028.323    -7382382.310 6  -5752480.39621
  20652561.3314   -3340279.32347  -2602812.53262
 91  4  7 20 58 59.9990000  0  4G18G 2G11G19
  20215069.1594   -1347358.70248  -1049891.91962
  23540735.8394   -4467317.75645  -3180565.76561
  23204408.605    -7427678.921 6  -5787776.33021
  20648709.2304   -3360515.71147  -2618581.13762
 91  4  7 20 59 14.9990000  0  4G18G 2G11G19
  20214912.8314   -1348171.35648  -1050525.18262
  23529076.2374   -4528584.66745  -3228306.05661
  23195808.440    -7472875.368 6  -5822994.21621
  20644867.2454   -3380713.21147  -2634319.43962
 91  4  7 20 59 29.9990000  0  4G18G 2G11G19
  20214784.190    -1348864.536 8  -1051065.34322
  23517428.3704   -4589800.85045  -3276006.81661
  23187226.4404   -7517968.81746  -5858131.83361
  20641033.6754   -3400869.52447  -2650025.64462
 91  4  7 20 59 44.9990000  0  4G18G 2G11G19
  20214674.4724   -1349436.68948  -1051511.20662
  23505786.995    -4650964.659 6  -3323666.74521
  23178666.1984   -7562957.44746  -5893187.80161
  20637204.9874   -3420983.01347  -2665698.48462
 91  4  7 20 59 59.9990000  0  4G18G 2G11G19
  20214587.425    -1349890.167 8  -1051864.59322
  23494158.3864   -4712077.94045  -3371287.32961
  23170122.3864   -7607842.97046  -5928163.41361
  20633383.7694   -3441055.72647  -2681339.55062
 91  4  7 21  0 14.9990000  0  4G18G 2G11G19
  20214524.8624   -1350228.39748  -1052128.17562
  23482536.8234   -4773144.05445  -3418871.13561
  23161601.8004   -7652628.71246  -5963061.26961
  20629572.2694   -3461091.44847  -2696951.79162
 91  4  7 21  0 29.9990000  0  4G18G 2G11G19
  20214481.2614   -1350448.91448  -1052300.03663
  23470926.2764   -4834160.50145  -3466416.24561
  23153097.6204   -7697311.81446  -5997879.14161
  20625766.2764   -3481087.62547  -2712533.22062
 91  4  7 21  0 44.9990000  0  4G18G 2G11G19
  20214460.5034   -1350554.37948
  23459323.222    -4895129.708 5  -3513924.55821
  23144612.9564   -7741894.57246  -6032618.83361
  20621970.6364   -3501046.89747  -2728085.88562
 91  4  7 21  0 59.9990000  0  4G18G 2G11G19
  20214461.0654   -1350545.85248
  23447731.784    -4956052.263 6  -3561396.51321
  23136149.1444   -7786377.37546  -6067280.64861
  20618176.3314   -3520969.98247  -2743610.35962
 91  4  7 21  1 14.9990000  0  4G18G 2G11G19
  20214487.5114   -1350419.10448
  23436147.4954   -5016924.19645  -3608829.02061
  23127705.0034   -7830756.01946  -6101861.28761
  20614394.2064   -3540853.07347  -2759103.66562
 91  4  7 21  1 29.9990000  0  4G18G 2G11G19
  20214534.315    -1350168.662 8
  23424574.972    -5077739.905 6  -3656217.70221
  23119280.2844   -7875024.79546  -6136356.31761
  20610620.487    -3560690.832 7  -2774561.64422
 91  4  7 21  1 44.9990000  0  4G18G 2G11G19
  20214605.800    -1349796.360 8
  23413011.9334   -5138500.59145  -3703563.54361
  23110876.3154   -7919184.73946  -6170766.54061
  20606851.276    -3580484.770 7  -2789985.48722
 91  4  7 21  1 59.9990000  0  4G18G 2G11G19
  20214698.026    -1349307.388 8  -1051410.68523
  23401459.2764   -5199211.45946  -3750870.52361
  23102492.3394   -7963240.71046  -6205095.74761
  20603090.4014   -3600240.04247  -2805379.19662
 91  4  7 21  2 14.9990000  0  4G18G 2G11G19
  20214814.612    -1348705.373 8  -1050941.60822
  23389915.448    -5259876.159 6  -3798141.55921
  23094128.6594   -8007196.18946  -6239346.65461
  20599339.8624   -3619960.48847  -2820745.76262
 91  4  7 21  2 29.9990000  0  4G18G 2G11G19
  20214949.472    -1347982.995 8  -1050378.73823
  23378380.3864   -5320487.09845  -3845370.69161
  23085782.995    -8051043.319 6  -6273513.11221
  20595595.2844   -3639638.51147  -2836079.27662
 91  4  7 21  2 44.9990000  0  4G18G 2G11G19
  20215110.503    -1347145.252 8  -1049725.97923
  23366855.8704   -5381049.17345  -3892561.73861
  23077460.0584   -8094786.79646  -6307598.82861
  20591859.042    -3659279.231 7  -2851383.72322
 91  4  7 21  2 59.9990000  0  4G18G 2G11G19
  20215292.651    -1346191.105 8  -1048982.51522
  23355339.261    -5441560.958 5  -3939713.61721
  23069156.7144   -8138424.97346  -6341602.49061
  20588125.8314   -3678881.48647  -2866658.20162
 91  4  7 21  3 14.9990000  0  4G18G 2G11G19
  20215494.1364   -1345120.11748  -1048148.00862
  23343836.003    -5502022.043 6  -3986825.98821
  23060871.4014   -8181957.47046  -6375523.78961
  20584406.0504   -3698445.06347  -2881902.53262
 91  4  7 21  3 29.9990000  0  4G18G 2G11G19
  20215721.284    -1343928.971 8  -1047219.86522
  23332340.401    -5562429.042 5  -4033896.21021
  23052607.4174   -8225380.54146  -6409359.82761
  20580689.573    -3717966.654 7  -2897114.15022
 91  4  7 21  3 44.9990000  0  4G18G 2G11G19
  20215970.4724   -1342623.56748  -1046202.69662
  23320853.089    -5622787.503 5  -4080928.60221
  23044365.8234   -8268699.55246  -6443114.77861
  20576984.050    -3737451.748 7  -2912297.32722
 91  4  7 21  3 59.9990000  0  4G18G 2G11G19
  20216240.4014   -1341206.07848  -1045098.19363
  23309376.769    -5683099.531 5  -4127924.82921
  23036141.9334   -8311916.51946  -6476790.21861
  20573280.0734   -3756902.82147  -2927453.99962
 91  4  7 21  4 14.9990000  0  4G18G 2G11G19
  20216532.1284   -1339672.96848  -1043903.59463
  23297911.5894   -5743361.59345  -4174882.09661
  23027937.065    -8355027.584 6  -6510383.15321
  20569587.5264   -3776316.35747  -2942581.41562
 91  4  7 21  4 29.9990000  0  4G18G 2G11G19
  20216846.9254   -1338019.75648  -1042615.40663
  23286452.6514   -5803568.84145  -4221796.69261
  23019755.261    -8398027.789 6  -6543889.68721
  20565898.3944   -3795687.72947  -2957675.98662
 91  4  7 21  4 44.9990000  0  4G18G 2G11G19
  20217182.8474   -1336254.24648  -1041239.72063
  23275003.4804   -5863729.00645  -4268674.56261
  23011590.870    -8440924.513 6  -6577315.58621
  20562221.144    -3815024.558 7  -2972743.62822
 91  4  7 21  4 59.9990000  0  4G18G 2G11G19
  20217541.3554   -1334368.89948  -1039770.64862
  23263566.6124   -5923834.28945  -4315509.69061
  23003450.323    -8483709.901 6  -6610654.73821
  20558548.5504   -3834319.48947  -2987778.63262
 91  4  7 21  5 14.9990000  0  4G18G 2G11G19
  20217922.9644   -1332367.55548  -1038211.19363
  23252138.855    -5983888.125 5  -4362304.72721
  22995328.2924   -8526387.22346  -6643909.68761
  20554884.456    -3853576.282 7  -3002783.91522
 91  4  7 21  5 29.9990000  0  4G18G 2G11G19
  20218326.7454   -1330243.28548  -1036555.94462
  23240722.800    -6043883.506 5  -4409054.19121
  22987230.3474   -8568949.04246  -6677074.62961
  20551229.7454   -3872787.70947  -3017753.84562
 91  4  7 21  5 44.9990000  0  4G18G 2G11G19
  20218754.9564   -1327997.82748  -1034806.27162
  23229314.831    -6103822.122 5  -4455759.45421
  22979151.683    -8611397.096 6  -6710150.91921
  20547581.3704   -3891955.66847  -3032689.91262
 91  4  7 21  5 59.9990000  0  4G18G 2G11G19
  20219203.4094   -1325636.16048  -1032966.04262
  23217921.1594   -6163708.74545  -4502424.20061
  22971094.026    -8653735.825 6  -6743142.03421
  20543939.2614   -3911085.11447  -3047595.96162
 91  4  7 21  6 14.9990000  0  4G18G 2G11G19
  20219676.0114   -1323155.86648  -1031033.38262
  23206530.7924   -6223540.96345  -4549046.54561
  22963059.776    -8695962.861 6  -6776046.11021
  20540308.7694   -3930173.90247  -3062470.33162
 91  4  7 21  6 29.9990000  0  4G18G 2G11G19
  20220168.8784   -1320561.54348  -1029011.86263
  23195157.9954   -6283322.71545  -4595629.56561
  22955042.964    -8738082.032 6  -6808866.13921
  20536681.956    -3949226.192 7  -3077316.26122
 91  4  7 21  6 44.9990000  0  4G18G 2G11G19
  20220685.0424   -1317849.12048  -1026898.32063
  23183791.8624   -6343050.18145  -4642170.30461
  22947050.370    -8780088.966 6  -6841598.70721
  20533065.7694   -3968238.08847  -3092130.71462
 91  4  7 21  6 59.9990000  0  4G18G 2G11G19
  20221224.2614   -1315018.35748  -1024692.56363
  23172436.003    -6402722.750 5  -4688668.22321
  22939077.448    -8821982.906 6  -6874243.22721
  20529456.3864   -3987209.23647  -3106913.42062
 91  4  7 21  7 14.9990000  0  4G18G 2G11G19
  20221784.1984   -1312069.94348  -1022395.12762
  23161090.659    -6462341.018 5  -4735123.88021
  22931127.5034   -8863764.38046  -6906800.10461
  20525853.4174   -4006140.41047  -3121664.97662
 91  4  7 21  7 29.9990000  0  4G18G 2G11G19
  20222369.0424   -1309004.29848  -1020006.35062
  23149757.5194   -6521905.31445  -4781537.46461
  22923198.675    -8905433.468 6  -6939269.42421
  20522255.6834   -4025031.84447  -3136385.56862
 91  4  7 21  7 44.9990000  0  4G18G 2G11G19
  20222974.1204   -1305822.42648  -1017527.00163
  23138431.0344   -6581416.55045  -4827909.70261
  22915290.5894   -8946990.86346  -6971651.69661
  20518670.925    -4043884.788 7  -3151076.16322
 91  4  7 21  7 59.9990000  0  4G18G 2G11G19
  20223601.7534   -1302519.98548  -1014953.70763
  23127118.1444   -6640870.06545  -4874236.96861
  22907402.480    -8988431.716 6  -7003943.16421
  20515092.4724   -4062694.49547  -3165733.06462
 91  4  7 21  8 14.9980000  0  4G18G 2G11G19
  20224253.9284   -1299098.36948  -1012287.54463
  23115814.5764   -6700262.66745  -4920516.76861
  22899539.4284   -9029753.98846  -7036142.24361
  20511520.2014   -4081460.72747  -3180356.09362
 91  4  7 21  8 29.9980000  0  4G18G 2G11G19
  20224925.9514   -1295562.09448  -1009532.03863
  23104520.732    -6759607.127 5  -4966759.06221
  22891696.365    -9070967.862 6  -7068256.83821
  20507954.7484   -4100190.97347  -3194951.08562
 91  4  7 21  8 44.9980000  0  4G18G 2G11G19
  20225621.1004   -1291914.66948  -1006689.92562
  23093238.842    -6818902.896 5  -5012963.42421
  22883875.264    -9112073.762 6  -7100287.31021
  20504398.1394   -4118887.41747  -3209519.74262
 91  4  7 21  8 59.9980000  0  4G18G 2G11G19
  20226335.2644   -1288152.99748  -1003758.78863
  23081964.0534   -6878146.45845  -5059127.07761
  22876076.045    -9153068.091 6  -7132230.84721
  20500848.8734   -4137546.94247  -3224059.61962
 91  4  7 21  9 14.9980000  0  4G18G 2G11G19
  20227074.9044   -1284273.17848  -1000735.58662
  23070700.209    -6937333.804 5  -5105246.95121
  22868295.2324   -9193946.50346  -7164084.05761
  20497304.4904   -4156165.60847  -3238567.66462
 91  4  7 21  9 29.9980000  0  4G18G 2G11G19
  20227835.2094   -1280274.61548   -997619.86063
  23059450.162    -6996463.925 5  -5151322.21521
  22860540.7484   -9234707.85946  -7195846.05861
  20493771.4904   -4174742.47947  -3253043.14262
 91  4  7 21  9 44.9980000  0  4G18G 2G11G19
  20228617.7954   -1276161.32648   -994414.72463
  23048208.100    -7055540.692 6  -5197355.91721
  22852802.5374   -9275355.78446  -7227519.66861
  20490241.0374   -4193281.59747  -3267489.20462
 91  4  7 21  9 59.9980000  0  4G18G 2G11G19
  20229422.8184   -1271932.17848   -991119.31963
  23036975.7954   -7114562.94945  -5243347.13761
  22845090.1474   -9315888.83746  -7259103.78161
  20486719.0684   -4211781.88447  -3281905.00762
 91  4  7 21 10 14.9980000  0  4G18G 2G11G19
  20230251.0374   -1267583.28348   -987730.61063
  23025753.1624   -7173526.70945  -5289292.78061
  22837398.8654   -9356303.03946  -7290595.27861
  20483208.3264   -4230239.51047  -3296287.56462
 91  4  7 21 10 29.9980000  0  4G18G 2G11G19
  20231099.2254   -1263126.48848   -984257.82063
  23014544.139    -7232443.496 6  -5335201.81421
  22829729.4514   -9396609.75346  -7322003.01561
  20479702.8114   -4248666.25647  -3310646.06362
 91  4  7 21 10 44.9980000  0  4G18G 2G11G19
  20231970.1314   -1258549.06648   -980691.03163
  23003343.631    -7291300.613 5  -5381064.35921
  22822083.162    -9436795.993 6  -7353316.88221
  20476203.8814   -4267049.40447  -3324970.59062
 91  4  7 21 10 59.9980000  0  4G18G 2G11G19
  20232862.8894   -1253857.73448   -977035.48163
  22992154.1934   -7350104.11345  -5426885.12361
  22814455.2324   -9476867.72646  -7384541.53061
  20472709.6234   -4285395.21947  -3339266.02962
 91  4  7 21 11 14.9980000  0  4G18G 2G11G19
  20233776.6934   -1249056.16048   -973294.02963
  22980973.2254   -7408857.58446  -5472666.90061
  22806853.107    -9516828.456 6  -7415679.67621
  20469228.2014   -4303707.60447  -3353535.41762
 91  4  7 21 11 29.9980000  0  4G18G 2G11G19
  20234711.3264   -1244144.65048   -969466.91363
  22969801.365    -7467561.646 6  -5518410.16521
  22799268.1624   -9556678.40446  -7446731.52061
  20465748.2094   -4321987.01247  -3367779.11062
 91  4  7 21 11 44.9980000  0  4G18G 2G11G19
  20235668.9904   -1239115.49448   -965548.12763
  22958640.553    -7526208.111 6  -5564108.56621
  22791707.4284   -9596409.36346  -7477690.62361
  20462279.2254   -4340225.38747  -3381990.82962
 91  4  7 21 11 59.9980000  0  4G18G 2G11G19
  20236647.0534   -1233971.53848   -961539.88863
  22947493.1784   -7584799.62646  -5609764.14261
  22784169.162    -9636023.624 6  -7508558.79921
  20458818.2564   -4358425.35047  -3396172.61862
 91  4  7 21 12 14.9980000  0  4G18G 2G11G19
  20237648.2564   -1228711.58748   -957441.26063
  22936354.607    -7643334.835 6  -5655375.85321
  22776652.592    -9675519.740 6  -7539334.92621
  20455360.6624   -4376585.73447  -3410323.56262
 91  4  7 21 12 29.9980000  0  4G18G 2G11G19
  20238672.4044   -1223332.67348   -953249.93863
  22925227.475    -7701810.331 6  -5700941.02721
  22769160.647    -9714894.229 6  -7570016.27121
  20451911.2014   -4394703.35847  -3424441.19162
 91  4  7 21 12 44.9980000  0  4G18G 2G11G19
  20239717.4754   -1217835.91848   -948966.78663
  22914110.279    -7760227.377 6  -5746460.66521
  22761691.6004   -9754147.99746  -7600603.55761
  20448473.2254   -4412779.57247  -3438526.54762
 91  4  7 21 12 59.9980000  0  4G18G 2G11G19
  20240784.4044   -1212230.28948   -944598.79863
  22903002.912    -7818594.469 6  -5791941.36321
  22754244.607    -9793289.468 6  -7631103.33021
  20445039.1474   -4430823.16147  -3452586.48262
 91  4  7 21 13 14.9980000  0  4G18G 2G11G19
  20241874.6624   -1206500.18848   -940133.81763
  22891907.0924   -7876895.98146  -5837370.97361
  22746819.9434   -9832302.80546  -7661503.26661
  20441615.3734   -4448818.42447  -3466608.76162
 91  4  7 21 13 29.9980000  0  4G18G 2G11G19
  20242987.1704   -1200654.53748   -935578.79763
  22880824.865    -7935140.741 6  -5882756.34921
  22739418.1864   -9871196.56146  -7691810.01861
  20438196.4364   -4466774.26047  -3480600.31762
 91  4  7 21 13 44.9980000  0  4G18G 2G11G19
  20244121.2174   -1194697.54948   -930937.02963
  22869749.4204   -7993332.37946  -5928100.35461
  22732038.2724   -9909974.48246  -7722026.52261
  20434787.5534   -4484694.57847  -3494564.19962
 91  4  7 21 13 59.9980000  0  4G18G 2G11G19
  20245275.8654   -1188624.96548   -926205.18763
  22858688.912    -8051466.759 6  -5973399.71121
  22724682.1624   -9948632.29146  -7752149.41661
  20431387.3264   -4502575.33947  -3508497.26062
 91  4  7 21 14 14.9980000  0  4G18G 2G11G19
  20246453.2324   -1182438.02448   -921384.22663
  22847636.2174   -8109544.89346  -6018655.25961
  22717349.4594   -9987170.62646  -7782179.24061
  20427990.0294   -4520417.65847  -3522400.36362
 91  4  7 21 14 29.9980000  0  4G18G 2G11G19
  20247653.5224   -1176132.73848   -916471.06063
  22836596.053    -8167562.471 6  -6063863.60721
  22710038.2404  -10025585.05246  -7812112.49961
  20424600.4754   -4538217.26847  -3536270.18262
 91  4  7 21 14 44.9980000  0  4G18G 2G11G19
  20248876.2644   -1169710.33148   -911466.62163
  22825566.123    -8225520.857 6  -6109025.85321
  22702752.1314  -10063876.72146  -7841950.10961
  20421223.4364   -4555975.70547  -3550107.91962
 91  4  7 21 14 59.9980000  0  4G18G 2G11G19
  20250120.9824   -1163168.84548   -906369.39763
  22814546.475    -8283417.619 6  -6154140.07321
  22695489.803   -10102043.066 6  -7871690.06821
  20417851.7254   -4573690.72347  -3563911.82462
 91  4  7 21 15 14.9980000  0  4G18G 2G11G19
  20251385.8424   -1156519.19048   -901187.88263
  22803539.6394   -8341263.50446  -6199214.64261
  22688247.842   -10140094.657 6  -7901340.60421
  20414487.4984   -4591372.99047  -3577690.21262
 91  4  7 21 15 29.9980000  0  4G18G 2G11G19
  20252673.4904   -1149755.68448   -895917.65463
  22792542.022    -8399052.446 6  -6244244.85221
  22681030.139   -10178025.202 6  -7930896.82321
  20411129.0924   -4609016.62247  -3591438.49062
 91  4  7 21 15 44.9980000  0  4G18G 2G11G19
  20253983.0614   -1142873.31048   -890554.79463
  22781559.4514   -8456779.62146  -6289226.91661
  22673835.3114  -10215829.61246  -7960354.74761
  20407781.2724   -4626616.87747  -3605152.96662
 91  4  7 21 15 59.9980000  0  4G18G 2G11G19
  20255316.3574   -1135870.07348   -885097.76563
  22770584.662    -8514442.431 6  -6334158.84221
  22666665.717   -10253505.325 6  -7989712.39421
  20404440.1394   -4644171.41947  -3618831.82262
 91  4  7 21 16 14.9980000  0  4G18G 2G11G19
  20256670.4124   -1128751.57948   -879550.92362
  22759623.811    -8572046.294 6  -6379044.83021
  22659520.061   -10291057.547 6  -8018973.81121
  20401106.7724   -4661685.69047  -3632479.29962
 91  4  7 21 16 29.9980000  0  4G18G 2G11G19
  20258047.9674   -1121516.72148   -873913.41063
  22748672.287    -8629590.293 6  -6423884.18021
  22652398.779   -10328485.282 6  -8048138.24121
  20397781.2724   -4679158.90347  -3646094.79162
 91  4  7 21 16 44.9980000  0  4G18G 2G11G19
  20259445.6074   -1114167.34848   -868186.66263
  22737735.529    -8687075.864 6  -6468677.99821
  22645300.1314  -10365789.69246  -8077206.55561
  20394464.2954   -4696592.39647  -3659679.32262
 91  4  7 21 16 59.9980000  0  4G18G 2G11G19
  20260866.9514   -1106701.47848   -862369.14163
  22726806.709    -8744500.900 6  -6513424.63221
  22638225.662   -10402968.468 6  -8106176.98821
  20391153.5614   -4713984.23347  -3673231.39162
 91  4  7 21 17 14.9980000  0  4G18G 2G11G19
  20262307.1934   -1099124.70648   -856465.20263
  22715889.2324   -8801870.96646  -6558128.45661
  22631171.889   -10440026.925 6  -8135053.65721
  20387851.8734   -4731340.13847  -3686755.47262
 91  4  7 21 17 29.9980000  0  4G18G 2G11G19
  20263772.1704   -1091430.75448   -850469.95463
  22704984.693    -8859179.261 6  -6602784.13121
  22624144.482   -10476958.334 6  -8163831.32321
  20384556.3894   -4748653.50747  -3700246.40562
 91  4  7 21 17 44.9980000  0  4G18G 2G11G19
  20265258.5144   -1083620.87748   -844384.37163
  22694089.287    -8916426.791 6  -6647392.47621
  22617140.2564  -10513763.53746  -8192510.64561
  20381270.7954   -4765925.34647  -3713704.97162
 91  4  7 21 17 59.9980000  0  4G18G 2G11G19
  20266766.7404   -1075694.63048   -838208.11463
  22683206.3734   -8973612.95246  -6691952.98361
  22610161.803   -10550441.644 6  -8221090.94121
  20377993.0614   -4783155.37347  -3727130.95462
 91  4  7 21 18 14.9980000  0  4G18G 2G11G19
  20268296.2564   -1067654.79248   -831943.34363
  22672335.006    -9030740.327 6  -6736467.69421
  22603205.803   -10586995.137 6  -8249574.13121
  20374720.8734   -4800346.21447  -3740526.41462
 91  4  7 21 18 29.9980000  0  4G18G 2G11G19
  20269849.4124   -1059497.41448   -825586.97863
  22661476.498    -9087804.721 6  -6780933.33221
  22596274.576   -10623419.913 6  -8277957.01421
  20371456.787    -4817493.774 7  -3753888.13622
 91  4  7 21 18 44.9980000  0  4G18G 2G11G19
  20271422.9594   -1051226.79548   -819142.37863
  22650627.9824   -9144810.65246  -6825353.40961
  22589366.5294  -10659720.03046  -8306242.76561
  20368201.9984   -4834602.40647  -3767219.52862
 91  4  7 21 18 59.9980000  0  4G18G 2G11G19
  20273018.3114   -1042842.77448   -812609.41363
  22639792.631    -9201757.754 6  -6869727.66321
  22582481.553   -10695894.840 6  -8334430.87421
  20364951.9904   -4851671.79147  -3780520.34662
 91  4  7 21 19 14.9980000  0  4G18G 2G11G19
  20274634.5534   -1034342.07347   -805985.53063
  22628966.193    -9258642.057 6  -6914052.96321
  22575623.998   -10731940.268 6  -8362518.17121
  20361713.8894   -4868698.24847  -3793787.70462
 91  4  7 21 19 29.9980000  0  4G18G 2G11G19
  20276275.3184   -1025726.94848   -799272.48763
  22618153.475    -9315465.751 6  -6958331.06721
  22568787.9984  -10767858.43046  -8390506.29161
  20358482.0144   -4885684.01947  -3807023.37162
 91  4  7 21 19 44.9980000  0  4G18G 2G11G19
  20277938.154    -1016992.498 8   -792466.46423
  22607355.7484   -9372223.81046  -7002557.99761
  22561977.975   -10803644.163 6  -8418391.21721
  20355258.4984   -4902624.04047  -3820223.37062
 91  4  7 21 19 59.9980000  0  4G18G 2G11G19
  20279621.225    -1008145.474 8   -785572.72323
  22596563.232    -9428922.807 6  -7046738.92921
  22555193.123   -10839303.910 6  -8446177.98321
  20352040.6004   -4919525.20247  -3833393.10262
 91  4  7 21 20 14.9980000  0  4G18G 2G11G19
  20281327.6154    -999182.59948   -778588.70463
  22585787.3894   -9485558.89446  -7090870.82261
  22548431.592   -10874833.704 6  -8473863.48621
  20348833.990    -4936383.826 7  -3846529.67722
 91  4  7 21 20 29.9980000  0  4G18G 2G11G19
  20283053.967     -990108.953 7   -771518.37923
  22575020.350    -9542137.244 6  -7134957.74221
  22541692.9364  -10910238.53046  -8501451.60261
  20345633.0454   -4953205.11647  -3859637.16862
 91  4  7 21 20 44.9980000  0  4G18G 2G11G19
  20284802.475     -980921.169 8   -764359.10723
  22564263.670    -9598654.276 6  -7178996.87721
  22534980.826   -10945514.661 6  -8528939.45021
  20342438.6864   -4969985.55047  -3872712.82762
 91  4  7 21 20 59.9980000  0  4G18G 2G11G19
  20286572.2174    -971616.95247   -757109.10963
  22553521.717    -9655107.679 6  -7222986.42521
  22528292.818   -10980659.493 6  -8556324.97621
  20339251.6544   -4986722.83247  -3885754.86062
 91  4  7 21 21 14.9980000  0  4G18G 2G11G19
  20288364.8264    -962202.57048   -749773.26863
  22542789.8734   -9711503.03546  -7266930.75161
  22521630.3344  -11015678.57546  -8583612.52361
  20336076.4284   -5003422.53947  -3898767.60762
 91  4  7 21 21 29.9980000  0  4G18G 2G11G19
  20290178.6394    -952670.45848   -742345.68563
  22532072.639    -9767832.687 6  -7310823.87421
  22514990.2484  -11050564.25146  -8610796.10861
  20332907.3814   -5020077.25447  -3911745.30162
 91  4  7 21 21 44.9980000  0  4G18G 2G11G19
  20292012.8574    -943027.87448   -734832.02363
  22521364.1704   -9824103.95846  -7354671.50661
  22508376.467   -11085323.530 6  -8637881.21221
  20329745.8894   -5036694.24647  -3924693.60262
 91  4  7 21 21 59.9980000  0  4G18G 2G11G19
  20293869.217     -933271.420 8   -727229.63823
  22510666.615    -9880313.335 6  -7398470.91421
  22501787.2174  -11119952.68846  -8664864.91361
  20326592.568    -5053270.273 7  -3937609.97522
 91  4  7 21 22 14.9980000  0  4G18G 2G11G19
  20295747.8894    -923399.24048   -719537.06863
  22499981.256    -9936458.709 6  -7442220.44521
  22495221.279   -11154449.439 6  -8691745.44221
  20323444.436    -5069803.123 7  -3950492.69822
 91  4  7 21 22 29.9980000  0  4G18G 2G11G19
  20297648.506     -913414.917 8   -711757.12123
  22489309.209    -9992543.129 6  -7485922.47521
  22488681.8114  -11188816.86746  -8718525.20061
  20320303.7014   -5086296.16047  -3963344.40962
 91  4  7 21 22 44.9980000  0  4G18G 2G11G19
  20299569.686     -903317.005 8   -703888.66023
  22478650.389   -10048565.069 6  -7529575.82821
  22482168.1074  -11223053.23946  -8745202.82861
  20317175.0374   -5102747.93747  -3976163.97362
 91  4  7 21 22 59.9980000  0  4G18G 2G11G19
  20301512.420     -893109.263 8   -695934.62223
  22467999.4514  -10104527.89046  -7573183.09861
  22475674.7954  -11257161.77946  -8771780.85761
  20314054.3184   -5119161.73647  -3988953.94462
 91  4  7 21 23 14.9980000  0  4G18G 2G11G19
  20303476.373     -882786.742 8   -687891.14323
  22457361.686   -10160426.550 6  -7616740.40121
  22469211.0924  -11291137.32346  -8798255.24361
  20310937.0844   -5135532.67147  -4001710.50862
 91  4  7 21 23 29.9980000  0  4G18G 2G11G19
  20305462.7404    -872351.90048   -679760.14063
  22446736.709   -10216263.559 6  -7660249.63521
  22462768.428   -11324982.265 6  -8824627.86521
  20307826.9204   -5151863.33247  -4014435.69162
 91  4  7 21 23 44.9980000  0  4G18G 2G11G19
  20307470.6624    -861799.74248   -671537.71763
  22436124.9044  -10272033.59946  -7703706.69861
  22456356.8504  -11358691.16746  -8850894.48261
  20304729.8264   -5168148.50947  -4027125.43862
 91  4  7 21 23 59.9980000  0  4G18G 2G11G19
  20309499.975     -851135.346 8   -663227.84523
  22425523.022   -10327741.339 6  -7747115.22121
  22449965.2644  -11392268.48146  -8877058.55961
  20301636.5144   -5184392.96947  -4039783.44762
 91  4  7 21 24 14.9980000  0  4G18G 2G11G19
  20311551.201     -840359.188 8   -654830.88323
  22414933.779   -10383387.165 6  -7790475.49021
  22443601.6234  -11425714.48746  -8903120.32361
  20298554.8654   -5200597.08247  -4052410.02562
 91  4  7 21 24 29.9980000  0  4G18G 2G11G19
  20313621.9124    -829474.26948   -646349.16863
  22404356.045   -10438973.903 6  -7833789.72121
  22437261.7324  -11459031.69746  -8929081.73061
  20295481.3654   -5216763.53847  -4065007.26262
 91  4  7 21 24 44.9980000  0  4G18G 2G11G19
  20315715.076     -818476.207 8   -637779.29723
  22393790.881   -10494497.039 6  -7877054.39321
  22430946.287   -11492215.618 6  -8954939.26021
  20292411.0924   -5232888.26547  -4077571.97662
 91  4  7 21 24 59.9980000  0  4G18G 2G11G19
  20317829.5764    -807363.41948   -629120.02863
  22383237.2794  -10549954.35646  -7920267.77661
  22424657.9204  -11525263.98946  -8980691.17661
  20289348.3344   -5248969.11547  -4090102.50862
 91  4  7 21 25 14.9980000  0  4G18G 2G11G19
  20319965.607     -796137.397 8   -620372.52023
  22372696.342   -10605347.437 6  -7963431.11521
  22418395.4124  -11558177.99746  -9006338.38661
  20286298.5374   -5265007.49047  -4102599.94462
 91  4  7 21 25 29.9980000  0  4G18G 2G11G19
  20322123.107     -784800.838 8   -611538.88423
  22362165.7254  -10660678.67946  -8006546.25061
  22412158.0684  -11590960.02346  -9031882.75861
  20283253.8344   -5281005.98147  -4115066.30462
 91  4  7 21 25 44.9980000  0  4G18G 2G11G19
  20324302.092     -773350.238 8   -602616.38523
  22351649.584   -10715944.410 6  -8049610.34721
  22405943.8574  -11623606.26746  -9057321.32261
  20280218.0454   -5296960.97147  -4127498.75762
 91  4  7 21 25 59.9980000  0  4G18G 2G11G19
  20326503.756     -761781.583 8   -593601.89423
  22341146.147   -10771140.286 6  -8092620.00721
  22399758.4594  -11656112.37046  -9082650.69061
  20277189.4594   -5312868.23047  -4139894.02262
 91  4  7 21 26 14.9980000  0  4G18G 2G11G19
  20328726.600     -750104.718 8   -584503.08223
  22330655.131   -10826276.215 6  -8135582.96221
  22393596.6394  -11688488.01746  -9107878.40461
  20274171.1704   -5328737.72147  -4152259.85362
 91  4  7 21 26 29.9980000  0  4G18G 2G11G19
  20330969.6544    -738312.90648   -575314.70163
  22320175.4204  -10881345.01446  -8178493.60761
  22387461.9514  -11720725.89246  -9132998.75861
  20271161.2174   -5344562.20947  -4164590.62062
 91  4  7 21 26 44.9980000  0  4G18G 2G11G19
  20333234.787     -726408.242 7   -566038.37923
  22309709.0534  -10936348.54546  -8221353.39361
  22381351.9824  -11752827.62746  -9158013.03261
  20268157.3734   -5360343.61847  -4176887.82162
 91  4  7 21 26 59.9980000  0  4G18G 2G11G19
  20335521.8344    -714391.57747   -556674.78863
  22299254.1784  -10991287.52846  -8264162.87261
  22375271.0454  -11784793.94246  -9182921.78161
  20265160.1314   -5376082.86147  -4189152.16162
 91  4  7 21 27 14.9980000  0  4G18G 2G11G19
  20337827.764     -702269.160 7   -547228.79523
  22288810.373   -11046167.821 6  -8306926.62821
  22369211.6314  -11816630.54746  -9207729.45561
  20262172.8504   -5391786.04647  -4201388.40862
 91  4  7 21 27 29.9980000  0  4G18G 2G11G19
  20340155.811     -690040.168 7   -537699.75023
  22278378.139   -11100988.625 6  -8349644.03221
  22363178.084   -11848336.540 6  -9232435.35821
  20259191.0764   -5407452.35847  -4213595.92062
 91  4  7 21 27 44.9980000  0  4G18G 2G11G19
  20342505.522     -677694.494 8   -528079.79223
  22267959.5294  -11155739.48546  -8392306.92761
  22357172.3034  -11879901.17146  -9257031.11561
  20256218.9434   -5423071.30547  -4225766.52162
 91  4  7 21 27 59.9980000  0  4G18G 2G11G19
  20344874.857     -665238.473 7   -518373.84723
  22257552.647   -11210426.737 6  -8434920.25821
  22351189.9984  -11911330.72146  -9281521.61561
  20253255.4124   -5438649.05047  -4237905.02362
 91  4  7 21 28 14.9980000  0  4G18G 2G11G19
  20347266.287     -652673.522 7   -508583.02623
  22247155.404   -11265051.350 6  -8477484.78321
  22345235.9284  -11942626.00446  -9305907.48561
  20250298.9044   -5454186.77947  -4250012.34062
 91  4  7 21 28 29.9980000  0  4G18G 2G11G19
  20349679.256     -639995.269 7   -498703.91823
  22236776.2724  -11319608.68546  -8519996.87961
  22339306.8574  -11973782.46446  -9330185.18161
  20247349.7014   -5469680.25847  -4262085.17662
 91  4  7 21 28 44.9980000  0  4G18G 2G11G19
  20352111.326     -627211.536 7   -488742.61423
  22226404.412   -11374106.505 6  -8562462.60321
  22333402.1394  -12004807.70846  -9354360.63861
  20244409.6154   -5485137.17347  -4274129.51762
 91  4  7 21 28 59.9980000  0  4G18G 2G11G19
  20354566.709     -614309.311 7   -478688.97923
  22216048.287   -11428531.394 6  -8604871.50421
  22327526.6544  -12035688.24346  -9378423.32761
  20241477.0844   -5500544.11547  -4286134.91962
 91  4  7 21 29 14.9980000  0  4G18G 2G11G19
  20357041.522     -601300.119 7   -468551.99723
  22205703.279   -11482894.723 6  -8647232.42521
  22321674.8264  -12066435.03546  -9402381.81161
  20238552.6544   -5515912.47747  -4298110.26662
 91  4  7 21 29 29.9980000  0  4G18G 2G11G19
  20359538.303     -588182.465 7   -458330.49123
  22195369.147   -11537194.768 6  -8689544.03821
  22315850.1154  -12097046.38046  -9426234.74461
  20235633.5374   -5531240.56247  -4310054.22562
 91  4  7 21 29 44.9980000  0  4G18G 2G11G19
  20362056.709     -574952.792 7   -448021.71123
  22185049.826   -11591427.679 6  -8731803.34221
  22310050.5684  -12127518.23546  -9449978.98761
  20232727.2404   -5546524.48847  -4321963.76662
 91  4  7 21 29 59.9980000  0  4G18G 2G11G19
  20364594.100     -561612.979 7   -437627.09923
  22174742.545   -11645595.159 6  -8774011.64921
  22304278.4204  -12157852.34646  -9473615.89861
  20229825.7484   -5561766.12647  -4333840.36062
 91  4  7 21 30 14.9980000  0  4G18G 2G11G19
  20367153.209     -548166.349 7   -427149.26023
  22164446.162   -11699700.217 6  -8816171.33421
  22298531.8184  -12188051.57846  -9497147.71161
  20226934.2014   -5576968.67147  -4345686.48662
 91  4  7 21 30 29.9980000  0  4G18G 2G11G19
  20369734.193     -534608.408 7   -416584.67723
  22154162.943   -11753738.193 6  -8858278.73321
  22292810.9364  -12218111.08246  -9520570.64661
  20224049.9824   -5592127.42147  -4357498.50062
 91  4  7 21 30 44.9980000  0  4G18G 2G11G19
  20372334.959     -520938.165 7   -405932.59323
  22143892.490   -11807708.126 6  -8900333.11521
  22287119.4514  -12248029.69946  -9543883.79761
  20221173.6864   -5607241.30147  -4369275.54562
 91  4  7 21 30 59.9980000  0  4G18G 2G11G19
  20374956.397     -507159.848 7   -395196.29423
  22133634.162   -11861613.592 6  -8942337.25521
  22281451.248   -12277811.029 6  -9567089.97321
  20218304.6784   -5622314.18347  -4381020.64362
 91  4  7 21 31 14.9980000  0  5G18G 2G11G16G19
  20377601.139     -493270.906 8   -384373.79123
  22123387.834   -11915452.132 6  -8984289.26021
  22275810.7254  -12307452.47646  -9590187.14561
  23561525.8734         -0.34855
  20215444.8344   -5637343.54247  -4392731.82762
 91  4  7 21 31 29.9980000  0  5G18G 2G11G16G19
  20380263.459     -479275.977 7   -373468.70623
  22113155.365   -11969228.038 6  -9026192.45121
  22270196.3504  -12336958.27546  -9613178.61861
  23554926.5454     -34684.10045
  20212590.9904   -5652333.77547  -4404412.52562
 91  4  7 21 31 44.9980000  0  5G18G 2G11G16G19
  20382949.170     -465163.386 7   -362471.93323
  22102937.795   -12022929.392 6  -9068037.55321
  22264610.6544  -12366316.28446  -9636054.93161
  23548350.0844     -69232.53945
  20209750.3424   -5667272.86647  -4416053.37062
 91  4  7 21 31 59.9980000  0  5G18G 2G11G16G19
  20385655.147     -450941.555 8   -351390.03423
  22092730.998   -12076564.373 6  -9109830.93121
  22259049.3574  -12395534.51146  -9658822.32161
  23541802.1314    -103653.86245
  20206915.8574   -5682169.04147  -4427660.77662
 91  4  7 21 32 14.9970000  0  5G18G 2G11G16G19
  20388380.556     -436617.721 7   -340228.65523
  22082536.978   -12130135.245 6  -9151574.35921
  22253514.8604  -12424616.88346  -9681483.84961
  23535273.7044    -137951.66745
  20204087.6104   -5697027.26847  -4439238.61362
 91  4  7 21 32 29.9970000  0  5G18G 2G11G16G19
  20391126.845     -422185.553 8   -328982.86223
  22072354.2044  -12183644.77146  -9193269.97661
  22248005.2354  -12453562.73946  -9704039.01061
  23528773.5324    -172126.02145
  20201266.6184   -5711845.20647  -4450785.05762
 91  4  7 21 32 44.9970000  0  5G18G 2G11G16G19
  20393896.134     -407642.431 8   -317650.61223
  22062184.704   -12237085.541 6  -9234912.02521
  22242524.931   -12482366.259 6  -9726483.26121
  23522293.603     -206170.865 5
  20198456.8684   -5726618.11847  -4462296.41362
 91  4  7 21 32 59.9970000  0  5G18G 2G11G16G19
  20396683.556     -392990.796 8   -306233.80423
  22052027.509   -12290459.986 6  -9276502.38921
  22237071.3374  -12511029.75046  -9748818.39261
  23515839.7904    -240088.56845        -0.45971
  20195652.7044   -5741348.40646  -4473774.55562
 91  4  7 21 33 14.9970000  0  5G18G 2G11G16G19
  20399491.454     -378236.328 7   -294736.86323
  22041882.962   -12343773.392 6  -9318045.19121
  22231642.071   -12539558.437 6  -9771048.48021
  23509407.2204    -273884.42045
  20192858.6104   -5756041.26847  -4485223.53062
 91  4  7 21 33 29.9970000  0  5G18G 2G11G16G19
  20402320.462     -363374.245 8   -283156.06723
  22031750.251   -12397020.667 6  -9359536.47321
  22226240.462   -12567947.046 6  -9793169.42621
  23503001.1574    -307553.27345
  20190067.8454   -5770691.86747  -4496639.58162
 91  4  7 21 33 44.9970000  0  5G18G 2G11G16G19
  20405168.165     -348403.161 8   -271490.34123
  22021628.837   -12450200.048 6  -9400974.83521
  22220864.532   -12596193.764 6  -9815179.80221
  23496622.3144    -341093.64345
  20187289.4234   -5785298.55647  -4508021.41662
 91  4  7 21 33 59.9970000  0  5G18G 2G11G16G19
  20408038.204     -333317.805 8   -259735.56823
  22011523.251   -12503306.323 6  -9442356.23921
  22215515.6184  -12624293.08846  -9837075.32661
  23490260.837     -374499.847 5        -0.42331
  20184520.2514   -5799856.00946  -4519364.88662
 91  4  7 21 34 14.9970000  0  5G18G 2G11G16G19
  20410930.821     -318123.085 8   -247895.58123
  22001430.040   -12556343.823 6  -9483684.05221
  22210196.5324  -12652249.44146  -9858859.45161
  23483928.290     -407776.620 5    -25930.37121
  20181758.2124   -5814368.71047  -4530673.47962
 91  4  7 21 34 29.9970000  0  5G18G 2G11G16G19
  20413840.720     -302829.592 8   -235978.62923
  21991349.899   -12609323.007 6  -9524966.42021
  22204902.274   -12680073.174 6  -9880540.22521
  23477619.6034    -440934.21545    -51767.44761
  20179004.5404   -5828847.13546  -4541955.36862
 91  4  7 21 34 44.9970000  0  5G18G 2G11G16G19
  20416771.524     -287429.877 8   -223978.90423
  21981279.978   -12662236.520 6  -9566197.62721
  22199635.001   -12707756.723 6  -9902111.77721
  23471331.9154    -473965.33345    -77505.95161
  20176256.8144   -5843284.03547  -4553204.90262
 91  4  7 21 34 59.9970000  0  5G18G 2G11G16G19
  20419722.431     -271923.999 8   -211896.45823
  21971223.892   -12715083.917 6  -9607377.30621
  22194393.892   -12735299.645 6  -9923573.74921
  23465071.6264    -506869.38245   -103145.45061
  20173514.3764   -5857678.84547  -4564421.63362
 91  4  7 21 35 14.9970000  0  5G18G 2G11G16G19
  20422693.493     -256311.217 8   -199730.70523
  21961180.267   -12767864.247 6  -9648504.72621
  22189179.6574  -12762700.73446  -9944925.18461
  23458834.7284    -539645.24645   -128685.04561
  20170786.5174   -5872030.68947  -4575604.89162
 91  4  7 21 35 29.9970000  0  5G18G 2G11G16G19
  20425685.142     -240591.733 7   -187481.81123
  21951148.282   -12820577.668 6  -9689580.00921
  22183992.478   -12789959.958 6  -9966166.09421
  23452622.220     -572293.009 5   -154124.86121
  20168064.9234   -5886339.61347  -4586754.70062
 91  4  7 21 35 44.9970000  0  5G18G 2G11G16G19
  20428695.728     -224767.215 7   -175151.07923
  21941130.087   -12873225.536 6  -9730604.21621
  22178831.071   -12817078.696 6  -9987297.52721
  23446433.7044    -604814.39145   -179466.17961
  20165348.2594   -5900607.11147  -4597872.22662
 91  4  7 21 35 59.9970000  0  5G18G 2G11G16G19
  20431727.876     -208836.478 7   -162737.56922
  21931123.782   -12925806.150 6  -9771576.01021
  22173697.743   -12844055.225 6 -10008318.15121
  23440268.7434    -637207.74245
  20162638.5094   -5914831.60147  -4608956.24662
 91  4  7 21 36 14.9970000  0  5G18G 2G11G16G19
  20434777.282     -192804.786 7   -150245.39923
  21921129.345   -12978324.856 6  -9812499.56821
  22168590.532   -12870894.780 6 -10029232.04321
  23434128.3844    -669478.54745
  20159940.7744   -5929018.50547  -4620010.97662
 91  4  7 21 36 29.9970000  0  5G18G 2G11G16G19
  20437848.579     -176668.636 7   -137671.83223
  21911148.142   -13030777.947 6  -9853372.00421
  22163510.306   -12897593.596 6 -10050036.26621
  23428011.3294    -701622.74145
  20157247.5014   -5943164.18247  -4631033.57962
 91  4  7 21 36 44.9970000  0  5G18G 2G11G16G19
  20440940.0874    -160426.24947   -125015.48263
  21901180.774   -13083163.171 6  -9894191.54921
  22158457.509   -12924149.328 6 -10070729.00421
  23421918.4394    -733638.16845
  20154565.7674   -5957266.25747  -4642022.20562
 91  4  7 21 36 59.9970000  0  5G18G 2G11G16G19
  20444051.032     -144074.857 7   -112274.19223
  21891224.298   -13135477.637 6  -9934955.95721
  22153431.353   -12950558.905 6 -10091307.85221
  23415851.814     -765521.925 5
  20151893.7514   -5971321.94347  -4652974.68362
 91  4  7 21 37 14.9970000  0  5G18G 2G11G16G19
  20447181.7514    -127621.41247    -99453.38663
  21881282.157   -13187727.975 6  -9975670.40221
  22148431.993   -12976829.100 6 -10111778.08321
  23409807.704     -797280.863 5
  20149224.5324   -5985338.02247  -4663896.29762
 91  4  7 21 37 29.9970000  0  5G18G 2G11G16G19
  20450334.032     -111058.084 7    -86546.95223
  21871352.2284  -13239906.18346 -10016328.64361
  22143461.064   -13002951.569 6 -10132133.20921
  23403789.1574    -828906.75345
  20146565.1814   -5999306.27747  -4674780.65062
 91  4  7 21 37 44.9970000  0  5G18G 2G11G16G19
  20453507.532      -94385.627 7    -73555.48323
  21861436.439   -13292012.929 6 -10056931.19821
  22138518.860   -13028926.950 6 -10152373.72521
  23397798.556     -860400.411 5
  20143916.7744   -6013227.35247  -4685628.23762
 91  4  7 21 37 59.9970000  0  5G18G 2G11G16G19
  20456698.196      -77612.660 7    -60485.69523
  21851533.064   -13344056.502 6 -10097484.52421
  22133600.149   -13054763.488 6 -10172506.04221
  23391828.017     -891770.007 5        -0.27431
  20141273.8994   -6027109.48747  -4696445.47462
 91  4  7 21 38 14.9970000  0  5G18G 2G11G16G19
  20459911.6574     -60730.07547    -47330.49262
  21841642.626   -13396027.322 6 -10137981.16621
  22128713.5174  -13080451.48246 -10192522.62061
  23385884.9854    -923006.12545    -24340.07261
  20138642.4934   -6040943.52147  -4707225.23762
 91  4  7 21 38 29.9970000  0  5G18G 2G11G16G19
  20463143.915      -43746.105 7    -34096.28823
  21831765.1264  -13447933.39446 -10178427.35661
  22123851.532   -13105998.984 6 -10212429.72421
  23379963.1894    -954116.74945    -48582.11861
  20136016.5244   -6054737.47747  -4717973.77262
 91  4  7 21 38 44.9970000  0  5G18G 2G11G16G19
  20466396.423      -26654.759 7    -20778.41123
  21821899.7514  -13499768.67746 -10218818.38761
  22119017.9624  -13131399.81246 -10232222.53461
  23374068.1734    -985095.73045    -72721.56761
  20133402.5564   -6068485.04747  -4728686.15762
 91  4  7 21 38 59.9970000  0  5G18G 2G11G16G19
  20469668.4074      -9455.56847     -7376.49963
  21812049.6494  -13551532.51346 -10259153.74961
  22114212.3064  -13156653.15146 -10251900.42861
  23368198.9464   -1015942.37745    -96757.90461
  20130796.5014   -6082185.64547  -4739361.94262
 91  4  7 21 39 14.9970000  0  5G18G 2G11G16G19
  20472961.4704       7848.13347      6106.84563
  21802213.1424  -13603227.91646 -10299435.78461
  22109433.821   -13181761.922 6 -10271465.65321
  23362355.5564   -1046659.81645   -120693.54461
  20128195.8604   -6095842.37447  -4750003.54462
 91  4  7 21 39 29.9970000  0  5G18G 2G11G16G19
  20476274.603       25263.527 7     19677.22622
  21792390.9784  -13654847.39446 -10339658.66161
  22104684.985   -13206718.650 6 -10290912.41821
  23356532.8924   -1077240.46445   -144522.58361
  20125605.2594   -6109447.97847  -4760605.30662
 91  4  7 21 39 44.9970000  0  5G18G 2G11G16G19
  20479608.6574      42779.62047     33326.07062
  21782578.7354  -13706401.79646 -10379830.82361
  22099962.6104  -13231533.98746 -10310249.00561
  23350737.7284   -1107695.29345   -168253.62961
  20123026.0484   -6123013.11147  -4771175.53362
 91  4  7 21 39 59.9970000  0  5G18G 2G11G16G19
  20482961.9624      60398.13947     47054.73262
  21772782.6574  -13757889.02746 -10419950.65361
  22095267.8454  -13256205.80146 -10329473.76361
  23344965.478    -1138022.172 5   -191884.93421
  20120452.7594   -6136535.70047  -4781712.61362
 91  4  7 21 40 14.9970000  0  5G18G 2G11G16G19
  20486334.8764      78122.12047     60865.56662
  21762997.3924  -13809305.92046 -10460015.67561
  22090601.2204  -13280730.94346 -10348584.22761
  23339219.4154   -1168217.97445   -215414.11661
  20117886.7984   -6150012.66147  -4792214.12962
 91  4  7 21 40 29.9970000  0  5G18G 2G11G16G19
  20489726.8604      95952.15447     74759.04262
  21753226.3684  -13860651.71046 -10500025.28861
  22085961.532   -13305108.622 6 -10367579.77021
  23333501.993    -1198282.174 5   -238840.75621
  20115331.1574   -6163443.33147  -4802679.58362
 91  4  7 21 40 44.9970000  0  5G18G 2G11G16G19
  20493138.978      113884.847 7     88732.51022
  21743466.9394  -13911929.34246 -10539981.79361
  22081349.8994  -13329341.69746 -10386462.64861
  23327805.5954   -1228217.70945   -262167.12361
  20112785.1264   -6176830.52847  -4813111.16062
 91  4  7 21 40 59.9970000  0  5G18G 2G11G16G19
  20496573.0644     131922.65947    102787.88762
  21733725.9544  -13963136.08346 -10579883.05461
  22076766.6494  -13353427.25846 -10405230.57761
  23322133.267    -1258021.530 4   -285390.86421
  20110244.5794   -6190171.48347  -4823506.70562
 91  4  7 21 41 14.9970000  0  6G18G 2G11G16G19G 6
  20500022.6424     150059.17247    116920.17862
  21723992.6654  -14014278.03446 -10619733.83361
  22072209.8374  -13377371.34446 -10423888.27361
  23316483.3534   -1287699.98744   -308516.94761
  20107714.3924   -6203472.36647  -4833871.02162
  23582351.8214         -0.01853
 91  4  7 21 41 29.9970000  0  6G18G 2G11G16G19G 6
  20503493.5324     168293.87547    131128.97862
  21714274.4544  -14065355.93046 -10659534.70661
  22067681.5404  -13401174.39346 -10442436.06661
  23310861.2434   -1317253.73944   -331545.80761
  20105190.0094   -6216733.78647  -4844204.59362
  23573328.3294     -47424.72643
 91  4  7 21 41 44.9970000  0  6G18G 2G11G16G19G 6
  20506983.6574     186635.34847    145420.97362
  21704566.993   -14116360.543 6 -10699278.47521
  22063178.884   -13424827.200 6 -10460866.78121
  23305262.907    -1346673.422 4   -354470.22021
  20102677.5564   -6229946.74147  -4854500.39762
  23564304.4854     -94840.43043
 91  4  7 21 41 59.9970000  0  6G18G 2G11G16G19G 6
  20510494.9154     205082.84447    159795.58662
  21694875.5484  -14167292.46846 -10738965.60161
  22058707.9784  -13448330.37846 -10479180.91461
  23299689.2594   -1375960.13544   -377291.02361
  20100169.8924   -6243111.87947  -4864758.94362
  23555282.626     -142247.846 3
 91  4  7 21 42 14.9970000  0  6G18G 2G11G16G19G 6
  20514022.2594     223626.57647    174245.18462
  21685194.3684  -14218161.57146 -10778603.77261
  22054261.1184  -13471693.73546 -10497386.09261
  23294137.993    -1405123.362 4   -400015.57121
  20097674.5714   -6256239.01247  -4874987.87662
  23546260.743     -189656.874 3        -0.34631
 91  4  7 21 42 29.9970000  0  6G18G 2G11G16G19G 6
  20517572.4624     242274.47147    188775.94962
  21675528.0014  -14268959.37946 -10818186.39361
  22049845.4784  -13494908.79546 -10515475.71961
  23288615.6964   -1434154.59545   -422637.28361
  20095183.4464   -6269319.69147  -4885180.60862
  23537239.837     -237059.205 3    -36937.11321
 91  4  7 21 42 44.9970000  0  6G18G 2G11G16G19G 6
  20521139.1034     261024.37547    203386.20262
  21665875.2044  -14319687.84446 -10857714.97561
  22045453.5174  -13517977.35146 -10533451.17961
  23283116.6814   -1463055.94944   -445157.78561
  20092703.3534   -6282355.78747  -4895338.60262
  23528219.978     -284456.892 3    -73870.27221
 91  4  7 21 42 59.9970000  0  6G18G 2G11G16G19G 6
  20524726.3684     279873.42347    218073.71262
  21656234.8294  -14370349.54846 -10897191.54361
  22041090.5794  -13540901.94846 -10551314.47061
  23277641.993    -1491830.066 4   -467579.17121
  20090231.8294   -6295349.80947  -4905463.81362
  23519200.298     -331852.640 3   -110801.90221
 91  4  7 21 43 14.9970000  0  6G18G 2G11G16G19G 6
  20528333.2744     298824.38547    232840.63062
  21646607.0094  -14420941.65546 -10936613.87761
  22036756.7984  -13563679.64046 -10569063.28261
  23272189.0404   -1520473.99345   -489899.08261
  20087766.7674   -6308299.01647  -4915554.10062
  23510186.2284    -379243.73543   -147729.92061
 91  4  7 21 43 29.9970000  0  6G18G 2G11G16G19G 6
  20531960.7284     317883.35047    247691.71062
  21636994.6424  -14471457.43346 -10975976.73661
  22032452.5094  -13586303.81746 -10586692.48461
  23266763.4314   -1548981.36044   -512112.61661
  20085310.0244   -6321196.92447  -4925604.41762
  23501165.1734    -426623.80143   -184649.34461
 91  4  7 21 43 44.9970000  0  6G18G 2G11G16G19G 6
  20535607.1734     337046.17447    262623.72062
  21627394.8064  -14521900.85446 -11015283.21261
  22028174.2744  -13608778.21746 -10604204.96361
  23261364.259    -1577356.068 5   -534222.76221
  20082867.1574   -6334047.42847  -4935617.78762
  23492152.4464    -473996.76043   -221563.25461
 91  4  7 21 43 59.9970000  0  6G18G 2G11G16G19G 6
  20539272.5014     356310.44247    277634.77762
  21617810.0714  -14572274.46746 -11054535.29361
  22023924.681   -13631105.229 6 -10621602.61221
  23255987.6034   -1605600.59145   -556231.44261
  20080429.5644   -6346853.02547  -4945596.17862
  23483141.087     -521365.181 3   -258473.58821
 91  4  7 21 44 14.9970000  0  6G18G 2G11G16G19G 6
  20542957.8294     375673.69347    292722.96062
  21608235.446   -14622580.190 6 -11093734.47321
  22019705.3684  -13653286.91846 -10638887.00561
  23250642.3294   -1633716.79845   -578140.16461
  20078002.2984   -6359615.63947  -4955541.07262
  23474127.2204    -568731.12843   -295382.02361
 91  4  7 21 44 29.9970000  0  6G18G 2G11G16G19G 6
  20546660.1574     395133.86347    307886.66562
  21598675.8604  -14672820.04346 -11132882.32761
  22015510.8994  -13675325.17746 -10656059.64661
  23245313.6964   -1661706.51945   -599950.33061
  20075581.5244   -6372337.31347  -4965454.06562
  23465111.485     -616096.846 4   -332290.27621
 91  4  7 21 44 44.9970000  0  6G18G 2G11G16G19G 6
  20550382.6104     414694.08747    323128.33162
  21589126.946   -14722990.427 6 -11171976.04721
  22011345.5954  -13697216.48446 -10673117.77061
  23240009.4464   -1689566.57545   -621659.45261
  20073168.0954   -6385014.40947  -4975332.32162
  23456099.439     -663458.899 4   -369195.68421
 91  4  7 21 44 59.9970000  0  6G18G 2G11G16G19G 6
  20554125.2434     434356.57947    338449.69162
  21579594.7904  -14773088.85746 -11211013.70161
  22007207.5954  -13718958.23146 -10690059.36161
  23234737.884    -1717294.747 5   -643265.78121
  20070764.1894   -6397644.42347  -4985173.89262
  23447089.7284    -710814.95744   -406096.39661
 91  4  7 21 45 14.9970000  0  6G18G 2G11G16G19G 6
  20557886.1654     454123.45547    353852.39062
  21570075.626   -14823113.080 6 -11249993.53121
  22003100.071   -13740547.992 6 -10706882.52521
  23229483.189    -1744888.352 5   -664767.33321
  20068370.5564   -6410225.16047  -4994977.06362
  23438078.720     -758162.655 4   -442990.63121
 91  4  7 21 45 29.9970000  0  6G18G 2G11G16G19G 6
  20561664.5954     473982.72747    369327.08362
  21560568.3684  -14873074.82046 -11288924.66861
  21999019.1814  -13761997.55646 -10723596.43061
  23224257.6654   -1772359.08545   -686173.06461
  20065984.2124   -6422768.28647  -5004750.93562
  23429066.368     -805514.047 4   -479887.72921
 91  4  7 21 45 44.9970000  0  6G18G 2G11G16G19G 6
  20565463.4394     493942.73847    384880.27862
  21551074.532   -14922965.487 6 -11327800.42621
  21994964.6964  -13783298.31046 -10740194.39161
  23219054.6104   -1799698.33745   -707476.36061
  20063606.1574   -6435265.20447  -5014488.79362
  23420058.157     -852860.623 5   -516781.04521
 91  4  7 21 45 59.9970000  0  6G18G 2G11G16G19G 6
  20569279.5714     514004.34647    400512.63262
  21541593.2044  -14972783.81146 -11366619.81361
  21990938.4234  -13804448.92146 -10756675.35261
  23213878.899    -1826905.250 5   -728676.57121
  20061235.9854   -6447714.69547  -5024189.69862
  23411049.915     -900201.102 5   -553669.61621
 91  4  7 21 46 14.9970000  0  6G18G 2G11G16G19G 6
  20573118.3844     534171.63647    416227.33862
  21532128.189   -15022525.773 6 -11405379.69321
  21986945.7594  -13825445.05546 -10773035.94961
  23208726.071    -1853975.591 5   -749770.33221
  20058876.6894   -6460112.50847  -5033850.33562
  23402040.5954    -947531.61344   -590550.42861
 91  4  7 21 46 29.9970000  0  6G18G 2G11G16G19G 6
  20576973.9234     554434.00347    432016.13462
  21522674.9074  -15072201.64946 -11444088.07861
  21982976.4464  -13846297.19046 -10789284.33961
  23203599.6814   -1880919.81745   -770765.80361
  20056527.2674   -6472469.14847  -5043478.89162
  23393035.017     -994862.615 4   -627431.61821
 91  4  7 21 46 44.9970000  0  6G18G 2G11G16G19G 6
  20580848.3994     574795.76847    447882.37262
  21513235.9934  -15121806.76046 -11482741.32761
  21979036.9854  -13867000.63046 -10805416.85261
  23198496.5094   -1907733.33945   -791659.47061
  20054183.0174   -6484780.00047  -5053071.75762
  23384027.392    -1042189.612 4   -664309.68521
 91  4  7 21 46 59.9970000  0  6G18G 2G11G16G19G 6
  20584743.9074     595263.23647    463830.98762
  21503810.5874  -15171334.60946 -11521334.36861
  21975125.767   -13887548.641 6 -10821428.26021
  23193420.8684   -1934409.74145   -812446.27861
  20051852.7434   -6497038.47247  -5062623.81762
  23375025.0484   -1089506.01044   -701179.49761
 91  4  7 21 47 14.9970000  0  6G18G 2G11G16G19G 6
  20588656.8144     615826.77047    479854.45362
  21494398.2044  -15220794.85746 -11559874.72862
  21971242.6734  -13907950.80946 -10837326.02161
  23188371.204    -1960958.588 5   -833133.67221
  20049527.1034   -6509254.14447  -5072142.51962
  23366016.689    -1136821.581 4   -738048.73121
 91  4  7 21 47 29.9970000  0  6G18G 2G11G16G19G 6
  20592589.1494     636488.46747    495954.40762
  21484999.4704  -15270184.76946 -11598360.28261
  21967390.1264  -13928204.52146 -10853108.10161
  23183341.1814   -1987377.12245   -853719.55161
  20047207.6964   -6521424.32547  -5081625.77962
  23357018.759    -1184133.797 5
 91  4  7 21 47 44.9970000  0  6G18G 2G11G16G19G 6
  20596538.548      657246.405 7    512129.35022
  21475615.2674  -15319506.22146 -11636792.49161
  21963563.5714  -13948311.55846 -10868775.89161
  23178339.485    -2013667.187 5   -874205.31821
  20044902.2354   -6533550.72147  -5091074.91662
  23348016.009    -1231444.547 5
 91  4  7 21 47 59.9970000  0  6G18G 2G11G16G19G 6
  20600508.774      678106.417 7    528383.83522
  21466243.2824  -15368752.95346 -11675166.48162
  21959766.7284  -13968265.84646 -10884324.64861
  23173363.392    -2039822.414 5   -894586.00821
  20042605.2744   -6545627.32247  -5100485.25362
  23339011.868    -1278747.966 4
 91  4  7 21 48 14.9970000  0  6G18G 2G11G16G19G 6
  20604497.993      699068.472 7    544717.83222
  21456886.6494  -15417924.77346 -11713482.09362
  21955997.9784  -13988067.03746 -10899754.11161
  23168407.759    -2065843.198 5   -914861.96721
  20040315.3534   -6557654.06747  -5109856.74562
  23330011.4314   -1326043.90044        -0.20871
 91  4  7 21 48 29.9970000  0  6G18G 2G11G16G19G 6
  20608505.5404     720127.49547    561127.38962
  21447540.8294  -15467026.66446 -11751743.22162
  21952258.3534  -14007719.98246 -10915068.06661
  23163483.3924   -2091734.37245   -935036.88561
  20038033.7674   -6569635.64347  -5119193.03762
  23321010.4154   -1373337.29744    -36852.07961
 91  4  7 21 48 44.9970000  0  6G18G 2G11G16G19G 6
  20612530.876      741275.366 7    577606.17522
  21438209.0644  -15516066.42746 -11789955.93062
  21948546.5404  -14027232.42346 -10930272.53361
  23158579.118    -2117503.709 5   -955116.88921
  20035763.4544   -6581579.81547  -5128500.18362
  23312013.720    -1420636.137 4    -73708.23321
 91  4  7 21 48 59.9970000  0  6G18G 2G11G16G19G 6
  20616572.024      762521.238 7    594161.32322
  21428889.6184  -15565034.55346 -11828112.81961
  21944861.884   -14046594.765 6 -10945360.04521
  23153700.7824   -2143141.73445   -975094.56661
  20033496.3064   -6593477.22847  -5137770.89262
  23303014.1184   -1467930.99744   -110561.27161
 91  4  7 21 49 14.9970000  0  6G18G 2G11G16G19G 6
  20620635.220      783869.196 7    610796.02922
  21419587.8764  -15613926.62246 -11866210.45062
  21941206.2124  -14065802.67846 -10960327.22361
  23148847.3454   -2168644.13545   -994966.57961
  20031245.5404   -6605323.50047  -5147001.74862
  23294014.5404   -1515217.63844   -147407.89161
 91  4  7 21 49 29.9970000  0  6G18G 2G11G16G19G 6
  20624715.7984     805315.47047    627507.34362
  21410298.1104  -15662746.21946 -11904251.60462
  21937578.5794  -14084859.56746 -10975176.71361
  23144020.4464   -2194014.44845  -1014735.61461
  20029002.5174   -6617122.18847  -5156195.53162
  23285016.0014   -1562499.70444   -184250.98961
 91  4  7 21 49 44.9970000  0  6G18G 2G11G16G19G 6
  20628814.845      826852.940 7    644289.71422
  21401019.665   -15711500.396 6 -11942241.78622
  21933980.9934  -14103772.48946 -10989914.02561
  23139214.6494   -2219260.00645  -1034407.50261
  20026762.2824   -6628880.19147  -5165357.61062
  23276017.8684   -1609784.22244   -221095.93761
 91  4  7 21 49 59.9970000  0  6G18G 2G11G16G19G 6
  20632932.017      848483.894 7    661144.93022
  21391754.9154  -15760186.76346 -11980179.12462
  21930409.0094  -14122539.00846 -11004537.24861
  23134435.9934   -2244377.93745  -1053979.89561
  20024530.8144   -6640594.97547  -5174486.01262
  23267018.5564   -1657068.95644   -257941.06461
 91  4  7 21 50 14.9970000  0  6G18G 2G11G16G19G 6
  20637066.8374     870215.43547    678078.52762
  21382506.392   -15808797.435 6 -12018057.48422
  21926866.7044  -14141151.20746 -11019040.23061
  23129682.5714   -2269360.90245  -1073447.16761
  20022313.4394   -6652258.81947  -5183574.71962
  23258024.368    -1704346.164 4   -294780.33421
 91  4  7 21 50 29.9970000  0  6G18G 2G11G16G19G 6
  20641219.899      892037.268 7    695082.48022
  21373267.212   -15857342.910 6 -12055885.04222
  21923353.0094  -14159619.61446 -11033431.16261
  23124953.5714   -2294219.13845  -1092817.22661
  20020101.0094   -6663882.32247  -5192631.99162
  23249027.235    -1751626.358 5   -331621.96821
 91  4  7 21 50 44.9970000  0  6G18G 2G11G16G19G 6
  20645390.017      913951.376 7    712158.33222
  21364042.267   -15905820.803 6 -12093659.94122
  21919866.9544  -14177941.77946 -11047708.13961
  23120245.2124   -2318950.14145  -1112088.13861
  20017896.1734   -6675462.88047  -5201655.80362
  23240030.1814   -1798907.33544
 91  4  7 21 50 59.9970000  0  6G18G 2G11G16G19G 6
  20649579.9464     935969.02247    729314.87262
  21354830.126   -15954219.548 6 -12131373.16622
  21916410.1344  -14196105.96946 -11061862.01861
  23115566.501    -2343542.912 5  -1131251.33621
  20015703.3764   -6686988.87447  -5210637.09662
  23231035.9314   -1846177.56644
 91  4  7 21 51 14.9970000  0  6G18G 2G11G16G19G 6
  20653787.149      958082.804 7    746546.31722
  21345635.024   -16002546.423 6 -12169030.39022
  21912980.8064  -14214119.55446 -11075898.54861
  23110911.079    -2368004.379 5  -1150312.22821
  20013520.9154   -6698467.75647  -5219581.67962
  23222039.165    -1893444.497 4
 91  4  7 21 51 29.9970000  0  6G18G 2G11G16G19G 6
  20658014.048      980291.842 7    763851.98822
  21336452.954   -16050801.917 6 -12206631.99122
  21909583.3924  -14231983.12546 -11089818.18561
  23106278.2904   -2392335.47445  -1169271.54861
  20011346.4704   -6709899.86747  -5228489.81262
  23213044.6814   -1940708.77545        -0.48471
 91  4  7 21 51 44.9970000  0  6G18G 2G11G16G19G 6
  20662257.7514    1002593.22047    781229.61762
  21327282.220   -16098988.676 6 -12244180.03722
  21906212.7284  -14249699.26646 -11103622.94161
  23101676.8534   -2416538.96545  -1188131.42761
  20009177.3604   -6721287.84947  -5237363.56762
  23204053.6814   -1987973.10445    -36829.76261
 91  4  7 21 51 59.9970000  0  6G18G 2G11G16G19G 6
  20666521.087     1024993.379 7    798684.21222
  21318126.868   -16147100.126 6 -12281669.39522
  21902869.3454  -14267261.40546 -11117307.69661
  23097092.2284   -2440608.20645  -1206886.64961
  20007017.1344   -6732625.15147  -5246197.82862
  23195055.884    -2035231.030 5    -73653.99821
 91  4  7 21 52 14.9970000  0  6G18G 2G11G16G19G 6
  20670802.689     1047493.577 7    816216.75422
  21308986.329   -16195134.867 6 -12319098.98722
  21899557.7354  -14284667.95046 -11130871.21361
  23092540.032    -2464541.496 5  -1225535.99421
  20004871.2594   -6743910.19847  -5254991.37062
  23186066.0174   -2082481.08745   -110472.10461
 91  4  7 21 52 29.9970000  0  6G18G 2G11G16G19G 6
  20675101.603     1070084.819 7    833820.25222
  21299858.493   -16243101.402 6 -12356475.42722
  21896273.103   -14301927.615 6 -11144320.27521
  23088006.407    -2488347.643 5  -1244086.18921
  20002732.1264   -6755151.54247  -5263750.85562
  23177072.2594   -2129732.04245   -147290.95661
 91  4  7 21 52 44.9970000  0  6G18G 2G11G16G19G 6
  20679417.360     1092767.193 7    851494.75522
  21290744.868   -16290999.145 6 -12393798.26822
  21893015.6184  -14319039.70046 -11157654.33661
  23083503.6894   -2512026.16145  -1262537.01961
  20000602.8994   -6766348.67147  -5272475.88762
  23168082.110    -2176983.361 5   -184110.08221
 91  4  7 21 52 59.9970000  0  6G18G 2G11G16G19G 6
  20683753.243     1115548.622 7    869246.44722
  21281644.329   -16338820.205 6 -12431061.35622
  21889788.6894  -14335996.13846 -11170867.11861
  23079025.0794   -2535569.19945  -1280882.24661
  19998480.3844   -6777493.51747  -5281160.18262
  23159092.782    -2224227.093 5   -220923.28521
 91  4  7 21 53 14.9970000  0  6G18G 2G11G16G19G 6
  20688105.642     1138420.450 7    887068.56722
  21272556.618   -16386573.069 6 -12468271.30122
  21886591.384   -14352805.539 6 -11183965.32121
  23074566.0564   -2558984.98645  -1299128.30661
  19996368.0714   -6788594.74047  -5289810.48562
  23150099.501    -2271472.031 5   -257737.44121
 91  4  7 21 53 29.9970000  0  6G18G 2G11G16G19G 6
  20692473.532     1161379.845 7    904958.93222
  21263481.9784  -16434260.17946 -12505430.01362
  21883420.5244  -14369470.33547 -11196950.84761
  23070135.064    -2582276.246 5  -1317277.34821
  19994264.9704   -6799654.75747  -5298428.67962
  23141112.9074   -2318720.65345   -294554.44861
 91  4  7 21 53 44.9970000  0  6G18G 2G11G16G19G 6
  20696861.868     1184433.515 7    922922.76122
  21254421.829   -16481874.627 6 -12542532.10422
  21880275.4394  -14385983.56246 -11209818.27761
  23065730.0794   -2605436.49645  -1335324.31461
  19992169.8214   -6810666.59547  -5307009.33662
  23132123.064    -2365966.163 5   -331369.04421
 91  4  7 21 53 59.9970000  0  6G18G 2G11G16G19G 6
  20701265.173     1207576.891 7    940956.48822
  21245373.798   -16529420.969 6 -12579581.12822
  21877163.2594  -14402349.70547 -11222571.08861
  23061345.345    -2628469.982 5  -1353272.49521
  19990082.1344   -6821634.69647  -5315555.90862
  23123129.853    -2413213.137 5   -368184.72021
 91  4  7 21 54 14.9970000  0  6G18G 2G11G16G19G 6
  20705687.845     1230817.052 7    959065.62822
  21236341.118   -16576891.542 7 -12616571.10822
  21874078.1184  -14418561.17947 -11235203.37661
  23056988.923    -2651369.144 5  -1371115.99221
  19988005.1104   -6832551.37047  -5324062.41262
  23114137.5014   -2460453.93645   -404995.67961
 91  4  7 21 54 29.9970000  0  6G18G 2G11G16G19G 6
  20710127.837     1254154.918 7    977250.90622
  21227320.946   -16624285.355 7 -12653501.28222
  21871022.728   -14434616.845 7 -11247714.26221
  23052655.3764   -2674133.02545  -1388854.09161
  19985935.7514   -6843415.67247  -5332528.10562
  23105150.931    -2507687.568 5   -441801.03821
 91  4  7 21 54 44.9970000  0  6G18G 2G11G16G19G 6
  20714588.321     1277589.494 7    995511.53922
  21218317.907   -16671602.923 7
  21867997.1264  -14450517.40046 -11260104.27661
  23048347.806    -2696762.275 5  -1406487.30121
  19983878.6264   -6854228.09647  -5340953.37462
  23096162.798    -2554914.838 5
 91  4  7 21 54 59.9970000  0  6G18G 2G11G16G19G 6
  20719065.439     1301117.706 7   1013845.13622
  21209327.267   -16718847.292 7
  21864999.423   -14466265.843 7 -11272375.76821
  23044067.9854   -2719259.83945  -1424017.86361
  19981829.5174   -6864991.69147  -5349340.59162
  23087177.673    -2602138.961 5
 91  4  7 21 55 14.9970000  0  6G18G 2G11G16G19G 6
  20723558.196     1324728.269 7   1032242.90022
  21200348.9544  -16766029.13047
  21862028.509   -14481872.927 7 -11284537.11021
  23039812.439    -2741636.822 5  -1441454.49721
  19979791.5564   -6875717.14347  -5357698.08262
  23078188.493    -2649370.635 5
 91  4  7 21 55 29.9970000  0  6G18G 2G11G16G19G 6
  20728070.126     1348435.240 7   1050715.78722
  21191385.040   -16813134.631 7 -12800656.27622
  21859088.439   -14497324.488 7 -11296577.26721
  23035578.2124   -2763879.20945  -1458786.26961
  19977761.1034   -6886390.32647  -5366014.85162
  23069204.7204   -2696595.91845   -589001.96361
 91  4  7 21 55 44.9970000  0  6G18G 2G11G16G19G 6
  20732599.462     1372234.940 7   1069260.92322
  21182433.9854  -16860167.02747 -12837304.82762
  21856176.962   -14512624.052 6 -11308498.98021
  23031369.2744   -2785990.30645  -1476015.67861
  19975737.7824   -6897014.55547  -5374293.47562
  23060216.4234   -2743818.31645   -625798.53561
 91  4  7 21 55 59.9960000  0  6G18G 2G11G16G19G 6
  20737144.887     1396126.417 7   1087877.57522
  21173499.3954  -16907121.99947 -12873893.04762
  21853295.129   -14527769.409 7 -11320300.53921
  23027187.215    -2807967.751 5  -1493140.97921
  19973725.0204   -6907588.01047  -5382532.52962
  23051232.918    -2791033.636 5   -662589.59121
 91  4  7 21 56 14.9960000  0  6G18G 2G11G16G19G 6
  20741709.2234    1420108.28747   1106564.66262
  21164576.426   -16954010.492 7 -12910429.46522
  21850440.879   -14542767.155 6 -11331987.07321
  23023028.027    -2829819.108 5  -1510168.02521
  19971722.4184   -6918116.74247  -5390736.74062
  23042247.4814   -2838252.73445   -699383.56361
 91  4  7 21 56 29.9960000  0  6G18G 2G11G16G19G 6
  20746289.3324    1444178.64847   1125320.70362
  21155667.7314  -17000829.32847 -12946911.60562
  21847616.887   -14557616.237 7 -11343557.76421
  23018897.5664   -2851542.69345  -1527095.50361
  19969726.7154   -6928599.87947  -5398905.42462
  23033261.8164   -2885472.59745   -736178.15961
 91  4  7 21 56 44.9960000  0  6G18G 2G11G16G19G 6
  20750888.066     1468339.754 7   1144147.45522
  21146771.3094  -17047575.88147 -12983337.42362
  21844819.863   -14572314.002 7 -11355010.55121
  23014785.973    -2873136.276 5  -1543921.71421
  19967741.1914   -6939034.73147  -5407036.48362
  23024274.379    -2932690.650 5   -772971.38121
 91  4  7 21 56 59.9960000  0  6G18G 2G11G16G19G 6
  20755502.613     1492590.256 7   1163043.86222
  21137889.5824  -17094251.25047 -13019707.76862
  21842050.660   -14586861.752 7 -11366346.43721
  23010701.074    -2894600.916 5  -1560647.40121
  19965765.3244   -6949422.64047  -5415130.96062
  23015290.3094   -2979908.20845   -809764.17661
 91  4  7 21 57 14.9960000  0  6G18G 2G11G16G19G 6
  20760133.645     1516926.095 7   1182006.77522
  21129019.9574  -17140859.31147 -13056025.67362
  21839310.207   -14601263.281 7 -11377568.38521
  23006642.848    -2915940.679 5  -1577275.78721
  19963796.2074   -6959767.29947  -5423191.73462
  23006302.7234   -3027129.18445   -846559.63261
 91  4  7 21 57 29.9960000  0  6G18G 2G11G16G19G 6
  20764781.410     1541352.140 7   1201039.97322
  21120164.965   -17187394.783 7 -13092287.00522
  21836599.582   -14615513.248 7 -11388672.23921
  23002601.668    -2937150.082 5  -1593802.63221
  19961835.1994   -6970063.47847  -5431214.73862
  22997317.8794   -3074348.33845   -883353.68561
 91  4  7 21 57 44.9960000  0  6G18G 2G11G16G19G 6
  20769447.441     1565867.506 7   1220142.77122
  21111323.7464  -17233858.39047 -13128492.34262
  21833914.4344  -14629612.42347 -11399658.58161
  22998593.2704   -2958230.22345  -1610228.71761
  19959887.5354   -6980311.88147  -5439200.51362
  22988331.2464   -3121566.50245   -920146.94761
 91  4  7 21 57 59.9960000  0  6G18G 2G11G16G19G 6
  20774129.285     1590474.874 7   1239317.26022
  21102496.0434  -17280247.24747 -13164639.43462
  21831261.965   -14643557.778 7 -11410525.07221
  22994605.8794   -2979177.94745  -1626551.60361
  19957946.0594   -6990509.20947  -5447146.49362
  22979348.840    -3168780.707 5   -956937.12421
 91  4  7 21 58 14.9960000  0  6G18G 2G11G16G19G 6
  20778829.074     1615172.248 7   1258561.88822
  21093681.840   -17326562.998 7 -13200729.55622
  21828637.246   -14657351.066 6 -11421273.06121
  22990646.629    -2999995.118 5  -1642772.82421
  19956014.4884   -7000657.21747  -5455054.03662
  22970364.137    -3215992.735 5   -993725.63421
 91  4  7 21 58 29.9960000  0  6G18G 2G11G16G19G 6
  20783546.981     1639959.781 7   1277876.76222
  21084881.3874  -17372805.49747 -13236762.60262
  21826041.020   -14670992.117 7 -11431902.43821
  22986708.801    -3020681.982 5  -1658892.49221
  19954092.0204   -7010756.01447  -5462923.23362
  22961381.0124   -3263202.58545  -1030512.42261
 91  4  7 21 58 44.9960000  0  6G18G 2G11G16G19G 6
  20788279.652     1664832.464 7   1297257.98922
  21076094.926   -17418979.466 7 -13272742.25022
  21823473.418   -14684485.604 7 -11442416.82121
  22982794.5984   -3041243.08245  -1674914.14661
  19952179.6764   -7020810.03846  -5470757.53862
  22952394.6684   -3310414.96245
 91  4  7 21 58 59.9960000  0  6G18G 2G11G16G19G 6
  20793029.973     1689800.268 7   1316713.34322
  21067324.3714  -17465074.65147 -13308660.50662
  21820936.582   -14697821.226 7 -11452808.19721
  22978910.566    -3061668.320 5  -1690829.90921
  19950277.2314   -7030808.81946  -5478548.80062
  22943412.7544   -3357619.61445
 91  4  7 21 59 14.9960000  0  6G18G 2G11G16G19G 6
  20797799.504     1714859.896 7   1336240.23822
  21058568.0664  -17511093.93647 -13344519.62462
  21818428.926   -14711001.992 7 -11463078.90721
  22975046.348    -3081960.228 5  -1706641.77421
  19948383.5824   -7040755.36747  -5486299.36162
  22934432.559    -3404819.558 5
 91  4  7 21 59 29.9960000  0  6G18G 2G11G16G19G 6
  20802584.809     1740003.668 7   1355832.70222
  21049822.020   -17557044.778 7 -13380325.40322
  21815948.981   -14724035.441 7 -11473234.82721
  22971212.3324   -3102126.57345  -1722355.85361
  19946500.9414   -7050657.02746  -5494014.94762
  22925451.9104   -3452022.41445        -0.37071
 91  4  7 21 59 44.9960000  0  6G18G 2G11G16G19G 6
  20807383.668     1765231.384 7   1375490.58022
  21041091.8324  -17602927.15447 -13416077.83362
  21813496.059   -14736921.672 7 -11483276.02521
  22967395.5984   -3122167.91345  -1737972.48761
  19944624.2624   -7060513.78347  -5501695.54762
  22916465.910    -3499228.227 5    -36784.03921
 91  4  7 21 59 59.9960000  0  6G18G 2G11G16G19G 6
  20812200.9344    1790545.64247   1395215.88962
  21032372.777   -17648738.155 7 -13451774.64422
  21811073.340   -14749657.581 7 -11493200.09321
  22963607.184    -3142080.886 5  -1753489.09021
  19942754.7154   -7070322.59147  -5509338.77662
  22907483.566    -3546433.988 5    -73567.64121
 91  4  7 22  0 14.9960000  0  6G18G 2G11G16G19G 6
  20817037.012     1815953.660 7   1415014.25622
  21023670.809   -17694470.529 7 -13487410.18922
  21808678.379   -14762235.894 7 -11503001.35221
  22959845.348    -3161858.415 5  -1768900.17621
  19940903.5514   -7080076.15547  -5516938.96162
  22898500.402    -3593632.541 5   -110345.64121
 91  4  7 22  0 29.9960000  0  6G18G 2G11G16G19G 6
  20821887.0124    1841441.21047   1434874.59662
  21014980.910   -17740138.056 7 -13522995.20322
  21806309.801   -14774670.526 7 -11512690.64921
  22956102.0664   -3181514.40245  -1784216.56061
  19939056.0824   -7089788.27646  -5524506.85562
  22889519.488    -3640837.853 5   -147128.89521
 91  4  7 22  0 44.9960000  0  6G18G 2G11G16G19G 6
  20826752.410     1867013.940 7   1454801.32022
  21006302.535   -17785734.682 7 -13558524.96722
  21803974.801   -14786955.484 7 -11522263.32921
  22952387.7544   -3201042.98845  -1799433.63861
  19937214.4024   -7099452.85547  -5532037.69862
  22880535.762    -3688043.870 5   -183912.78121
 91  4  7 22  0 59.9960000  0  6G18G 2G11G16G19G 6
  20831638.324     1892678.243 7   1474799.39522
  20997641.473   -17831254.182 7 -13593994.63622
  21801667.441   -14799084.382 7 -11531714.39621
  22948697.059    -3220437.730 5  -1814546.46021
  19935383.4654   -7109063.55647  -5539526.56062
  22871552.5594   -3735244.36445   -220692.23961
 91  4  7 22  1 14.9960000  0  6G18G 2G11G16G19G 6
  20836536.418     1918424.388 7   1494861.24522
  20988992.371   -17876705.413 7 -13629411.10922
  21799385.0744  -14811066.22247 -11541050.88461
  22945028.988    -3239707.985 5  -1829562.28921
  19933567.3564   -7118629.39647  -5546980.46662
  22862572.3404   -3782448.41045   -257474.56361
 91  4  7 22  1 29.9960000  0  6G18G 2G11G16G19G 6
  20841454.5824    1944263.53047   1514995.55962
  20980358.1914  -17922077.05247 -13664765.55962
  21797137.645   -14822889.895 7 -11550264.11721
  22941390.1294   -3258842.50745  -1844472.30961
  19931753.8954   -7128138.93847  -5554390.49962
  22853591.379    -3829644.874 5   -294250.92521
 91  4  7 22  1 44.9960000  0  6G18G 2G11G16G19G 6
  20846386.043     1970184.665 7   1535193.76422
  20971737.7154  -17967380.27047 -13700066.69362
  21794913.9264  -14834566.37147 -11559362.66361
  22937772.941    -3277852.112 5  -1859285.01821
  19929955.6214   -7137603.09347  -5561765.16862
  22844606.121    -3876844.773 5   -331029.99721
 91  4  7 22  1 59.9960000  0  6G18G 2G11G16G19G 6
  20851335.863     1996189.266 7   1555457.00822
  20963130.863   -18012613.221 7 -13735313.07522
  21792721.0594  -14846093.76847 -11568345.04461
  22934181.934    -3296735.325 5  -1873999.23721
  19928166.5434   -7147020.23746  -5569103.20262
  22835622.9964   -3924046.30545   -367810.33361
 91  4  7 22  2 14.9960000  0  6G18G 2G11G16G19G 6
  20856300.7234    2022282.50047   1575789.31462
  20954535.8014  -18057770.49047 -13770500.48962
  21790556.582   -14857466.754 7 -11577207.09421
  22930608.8244   -3315486.73245  -1888610.71261
  19926381.9264   -7156384.80047  -5576400.26662
  22826645.8324   -3971244.15645   -404587.78661
 91  4  7 22  2 29.9960000  0  6G18G 2G11G16G19G 6
  20861283.434     2048464.419 7   1596190.72622
  20945957.168   -18102851.435 7 -13805628.42222
  21788421.1764  -14868684.58447 -11585948.25461
  22927068.6764   -3334105.55245  -1903118.92661
  19924607.3324   -7165695.99247  -5583655.74362
  22817663.6134   -4018437.62745   -441361.83561
 91  4  7 22  2 44.9960000  0  6G18G 2G11G16G19G 6
  20866281.0434    2074728.10247   1616655.84862
  20937393.410   -18147862.777 7 -13840702.12022
  21786313.8874  -14879754.25047 -11594573.96261
  22923548.7154   -3352599.14945  -1917529.55161
  19922846.6764   -7174960.50547  -5590874.84962
  22808682.6994   -4065633.65645   -478137.86661
 91  4  7 22  2 59.9960000  0  6G18G 2G11G16G19G 6
  20871295.879     2101078.905 7   1637188.85722
  20928840.856   -18192799.168 7 -13875717.41822
  21784237.2384  -14890670.34147 -11603080.00161
  22920051.5274   -3370961.97745  -1931838.25861
  19921093.9494   -7184172.99547  -5598053.41162
  22799700.449    -4112826.907 5   -514911.73121
 91  4  7 22  3 14.9960000  0  6G18G 2G11G16G19G 6
  20876325.5744    2127510.87447   1657785.10862
  20920304.387   -18237666.144 7 -13910678.61722
  21782188.3244  -14901438.55647 -11611470.80961
  22916583.3634   -3389199.86645  -1946049.63261
  19919350.8634   -7193339.02947  -5605195.77562
  22790721.059    -4160022.971 5   -551687.80321
 91  4  7 22  3 29.9960000  0  6G18G 2G11G16G19G 6
  20881371.0904    2154028.37947   1678448.00462
  20911780.434   -18282459.331 7 -13945582.32722
  21780167.7154  -14912054.34247 -11619742.84361
  22913136.7154   -3407308.49045  -1960160.27961
  19917613.5594   -7202454.13647  -5612298.45962
  22781736.746    -4207217.498 5   -588462.67721
 91  4  7 22  3 44.9960000  0  6G18G 2G11G16G19G 6
  20886432.2544    2180630.99247   1699177.22662
  20903269.363   -18327178.651 7 -13980428.47722
  21778176.1294  -14922517.83246 -11627896.22161
  22909713.582    -3425287.904 5  -1974170.26721
  19915890.8094   -7211518.14147  -5619361.32162
  22772760.1684   -4254410.57545   -625236.41361
 91  4  7 22  3 59.9960000  0  6G18G 2G11G16G19G 6
  20891512.6844    2207319.59947   1719973.44662
  20894774.543   -18371822.994 7 -14015216.20322
  21776214.6214  -14932827.96147 -11635930.08061
  22906319.731    -3443137.096 5  -1988078.73921
  19914177.6214   -7220529.97847  -5626383.53562
  22763777.7384   -4301601.07145   -662008.14361
 91  4  7 22  4 14.9960000  0  6G18G 2G11G16G19G 6
  20896606.9414    2234092.65447   1740835.47562
  20886292.988   -18416393.599 7 -14049946.47322
  21774283.8714  -14942985.92246 -11643845.37661
  22902946.4574   -3460857.21945  -2001886.65461
  19912469.9024   -7229490.78247  -5633365.98062
  22754799.254    -4348790.226 5   -698778.84021
 91  4  7 22  4 29.9960000  0  6G18G 2G11G16G19G 6
  20901716.8164    2260945.85347   1761759.96462
  20877824.1454  -18460894.67947 -14084622.57262
  21772377.1454  -14952996.01846 -11651645.45561
  22899600.676    -3478452.462 5  -2015597.27821
  19910772.3324   -7238404.67547  -5640311.87362
  22745819.3244   -4395982.40645   -735551.87561
 91  4  7 22  4 44.9960000  0  6G18G 2G11G16G19G 6
  20906845.0124    2287889.79547   1782755.15462
  20869371.7314  -18505315.51247 -14119236.13862
  21770502.1454  -14962847.29946 -11659321.77761
  22896277.934    -3495912.700 5  -2029202.69121
  19909089.7384   -7247260.71747  -5647212.69062
  22736840.020    -4443166.694 5   -772318.78421
 91  4  7 22  4 59.9960000  0  6G18G 2G11G16G19G 6
  20911987.2464    2314914.64947   1803813.39262
  20860931.371   -18549665.656 7 -14153794.61922
  21768658.8634  -14972549.47846 -11666881.91561
  22892979.2934   -3513247.17345  -2042710.07661
  19907410.2234   -7256068.50047  -5654075.90362
  22727859.723    -4490352.850 5   -809087.11921
 91  4  7 22  5 14.9960000  0  6G18G 2G11G16G19G 6
  20917144.5204    2342019.48747   1824933.95462
  20852505.1454  -18593945.29247 -14188298.16462
  21766838.1454  -14982103.00946 -11674326.22261
  22889704.9264   -3530456.23245  -2056119.80461
  19905746.7624   -7264828.40247  -5660901.80262
  22718878.9734   -4537541.33845   -845857.31261
 91  4  7 22  5 29.9960000  0  6G18G 2G11G16G19G 6
  20922318.3324    2369203.85947   1846116.49162
  20844091.6294  -18638154.77147 -14222747.04262
  21765050.6064  -14991508.27046 -11681654.99761
  22886454.309    -3547540.657 5  -2069432.36021
  19904085.1214   -7273540.41247  -5667690.38462
  22709899.301    -4584732.484 5   -882629.55821
 91  4  7 22  5 44.9960000  0  6G18G 2G11G16G19G 6
  20927508.1914    2396474.02647   1867365.88062
  20835694.3714  -18682287.78047 -14257136.33662
  21763288.3634  -15000758.80946 -11688863.20961
  22883227.418    -3564493.694 5  -2082642.56221
  19902440.8094   -7282198.33547  -5674436.82162
  22700921.465    -4631919.740 5   -919398.74421
 91  4  7 22  5 59.9960000  0  6G18G 2G11G16G19G 6
  20932713.0514    2423826.41247   1888679.33362
  20827310.6684  -18726347.54047 -14291468.54662
  21761556.9024  -15009857.96746 -11695953.46061
  22880025.1684   -3581318.90545  -2095753.16761
  19900802.9414   -7290805.19347  -5681143.46562
  22691938.7854   -4679106.43545   -956167.52761
 91  4  7 22  6 14.9960000  0  6G18G 2G11G16G19G 6
  20937933.1844    2451258.85247   1910055.16662
  20818939.918   -18770336.069 7 -14325745.24922
  21759854.1914  -15018807.84346 -11702927.39361
  22876845.5274   -3598018.64845  -2108765.95161
  19899173.6454   -7299362.93447  -5687811.84162
  22682960.301    -4726294.734 5   -992937.54521
 91  4  7 22  6 29.9960000  0  6G18G 2G11G16G19G 6
  20943168.1914    2478768.32147   1931491.02262
  20810581.3874  -18814255.99347 -14359968.49762
  21758179.3564  -15027610.92046 -11709786.93261
  22873690.2464   -3614595.26845  -2121682.88361
  19897553.0824   -7307874.07647  -5694443.90162
  22673980.074    -4773487.104 5  -1029710.73721
 91  4  7 22  6 44.9960000  0  6G18G 2G11G16G19G 6
  20948418.4494    2506355.96547   1952987.79462
  20802235.9344  -18858105.86247 -14394137.16162
  21756531.8404  -15036265.73746 -11716530.94861
  22870562.316    -3631047.279 5  -2134502.64221
  19895942.8404   -7316337.20347  -5701038.54562
  22665001.8244   -4820682.46845  -1066486.28161
 91  4  7 22  6 59.9960000  0  6G18G 2G11G16G19G 6
  20953684.3244    2534029.52247   1974551.51362
  20793907.0044  -18901877.60147 -14428244.94062
  21754913.5204  -15044764.57746
  22867456.9104   -3647367.11645  -2147219.43461
  19894343.5044   -7324744.32747
  22656021.9344   -4867872.56345  -1103257.68061
 91  4  7 22  7 14.9960000  0  6G18G 2G11G16G19G 6
  20958964.5514    2561776.99347   1996172.82862
  20785589.5514  -18945583.05647 -14462301.07262
  21753324.4024  -15053119.22546
  22864373.8874   -3663566.86045  -2159842.69761
  19892752.4344   -7333106.97547
  22647036.5664   -4915069.40445  -1140034.37661
 91  4  7 22  7 29.9960000  0  6G18G 2G11G16G19G 6
  20964259.9884    2589609.09647   2017860.08562
  20777288.6914  -18989211.34647 -14496297.08462
  21751763.9414  -15061318.69446 -11736052.73361
  22861316.1294   -3679635.42145  -2172363.64861
  19891170.1524   -7341413.88747  -5720578.83362
  22638056.8564   -4962261.92945  -1176807.69961
 91  4  7 22  7 44.9960000  0  6G18G 2G11G16G19G 6
  20969570.6684    2617519.14747   2039608.08562
  20768998.9884  -19032769.01847 -14530238.06362
  21750234.1134  -15069369.63146 -11742326.19361
  22858282.231    -3695579.719 5  -2184787.82421
  19889599.4494   -7349671.99347  -5727013.73162
  22629079.379    -5009456.801 5  -1213582.84621
 91  4  7 22  7 59.9960000  0  6G18G 2G11G16G19G 6
  20974898.7624    2645507.70747   2061417.25862
  20760724.941   -19076255.218 7 -14564123.34622
  21748729.5594  -15077271.26346 -11748483.30061
  22855271.7074   -3711398.87045  -2197114.49261
  19888037.8954   -7357880.34347  -5733409.84762
  22620096.3404   -5056653.23045  -1250359.20861
 91  4  7 22  8 14.9960000  0  6G18G 2G11G16G19G 6
  20980237.6764    2673568.79047   2083282.95062
  20752461.1844  -19119675.66347 -14597957.39662
  21747249.9104  -15085029.33246 -11754528.55361
  22852285.0984   -3727098.41045  -2209347.90661
  19886485.4574   -7366044.39247  -5739771.44562
  22611113.4814   -5103856.99345  -1287141.28661
 91  4  7 22  8 29.9960000  0  6G18G 2G11G16G19G 6
  20985591.8094    2701708.46247   2105209.87162
  20744212.5354  -19163023.71047 -14631735.02462
  21745802.8094  -15092637.26146 -11760456.79861
  22849320.2774   -3742672.19945  -2221483.35361
  19884940.0514   -7374157.51647  -5746093.36562
  22602131.7704   -5151061.46645  -1323923.92061
 91  4  7 22  8 44.9960000  0  6G18G 2G11G16G19G 6
  20990962.512     2729930.092 7   2127200.65322
  20735979.0664  -19206295.63947 -14665453.34662
  21744385.5664  -15100091.51946 -11766265.30961
  22846379.6764   -3758116.69245  -2233518.08861
  19883406.5984   -7382216.03347  -5752372.73362
  22593149.426    -5198263.074 5  -1360704.30921
 91  4  7 22  8 59.9960000  0  6G18G 2G11G16G19G 6
  20996347.3794    2758228.57646   2149251.32862
  20727757.1454  -19249496.66347 -14699116.41762
  21742995.6214  -15107397.29246 -11771958.12061
  22843465.957    -3773436.878 5  -2245455.92521
  19881882.2544   -7390225.10847  -5758613.57462
  22584163.3094   -5245466.99445  -1397486.49761
 91  4  7 22  9 14.9960000  0  6G18G 2G11G16G19G 6
  21001748.2624    2786599.37547   2171358.34462
  20719548.4024  -19292630.96747 -14732727.49862
  21741633.9734  -15114558.76646 -11777538.48561
  22840575.426    -3788637.201 5  -2257300.36921
  19880366.4264   -7398188.74847  -5764819.01262
  22575182.949    -5292677.344 5  -1434273.69721
 91  4  7 22  9 29.9960000  0  6G18G 2G11G16G19G 6
  21007161.684     2815049.690 6   2193527.32622
  20711355.1914  -19335690.92447 -14766280.64662
  21740299.0744  -15121568.56246 -11783000.66361
  22837702.527    -3803710.370 5  -2269045.75721
  19878863.5354   -7406099.38947  -5770983.14962
  22566198.574    -5339886.720 5  -1471060.16221
 91  4  7 22  9 44.9960000  0  6G18G 2G11G16G19G 6
  21012589.3794    2843580.12346   2215758.73262
  20703175.0824  -19378675.94747 -14799775.39762
  21738992.9964  -15128425.89946 -11788344.03761
  22834861.5124   -3818655.51945  -2280691.37161
  19877367.8324   -7413956.13347  -5777105.29362
  22557212.6134   -5387094.43545  -1507845.30361
 91  4  7 22  9 59.9960000  0  6G18G 2G11G16G19G 6
  21018033.121     2872189.161 7   2238051.38522
  20695008.1294  -19421587.23847 -14833212.70062
  21737720.3794  -15135132.23246 -11793569.74661
  22832041.3404   -3833474.18145  -2292238.42061
  19875880.0274   -7421760.44247  -5783186.57862
  22548229.246    -5434301.752 5  -1544630.14121
 91  4  7 22 10 14.9960000  0  6G18G 2G11G16G19G 6
  21023494.348     2900879.046 7   2260407.04222
  20686858.0044  -19464422.28347 -14866590.59562
  21736470.6764  -15141685.11246 -11798675.88361
  22829243.887    -3848164.073 5  -2303685.12921
  19874406.5204   -7429509.57747  -5789224.86862
  22539249.426    -5481506.132 5  -1581412.69021
 91  4  7 22 10 29.9960000  0  6G18G 2G11G16G19G 6
  21028967.7074    2929644.35346   2282821.46962
  20678720.5354  -19507186.16247 -14899913.02962
  21735251.6134  -15148089.71546 -11803666.47861
  22826474.684    -3862730.287 5  -2315035.46321
  19872944.2154   -7437208.61947  -5795224.13162
  22530265.0274   -5528712.83045  -1618197.04461
 91  4  7 22 10 44.9960000  0  6G18G 2G11G16G19G 6
  21034455.301     2958485.655 7   2305295.10522
  20670595.5594  -19549878.12747 -14933179.42562
  21734060.0594  -15154345.18446 -11808540.86461
  22823728.0514   -3877172.21545  -2326288.95161
  19871488.0434   -7444856.48047  -5801183.51162
  22521283.0204   -5575920.81645  -1654982.41761
 91  4  7 22 10 59.9960000  0  6G18G 2G11G16G19G 6
  21039957.1064    2987395.39346   2327822.08062
  20662484.9884  -19592505.41247 -14966395.43262
  21732896.5984  -15160458.73046 -11813304.66461
  22820998.3094   -3891496.90445  -2337451.09461
  19870040.1844   -7452460.29047  -5807108.56162
  22512297.356    -5623137.428 5  -1691774.48221
 91  4  7 22 11 14.9960000  0  6G18G 2G11G16G19G 6
  21045473.676     3016380.962 7   2350408.13122
  20654385.4344  -19635060.25247 -14999554.98362
  21731762.8564  -15166422.90846 -11817952.07061
  22818297.027    -3905696.963 5  -2348516.09321
  19868604.0904   -7460012.40347  -5812993.33362
  22503312.8244   -5670355.16045  -1728567.45661
 91  4  7 22 11 29.9960000  0  6G18G 2G11G16G19G 6
  21051005.324     3045444.952 7   2373055.29222
  20646301.4184  -19677540.04147 -15032656.05162
  21730657.6914  -15172235.15346 -11822481.09061
  22815621.215    -3919770.018 5  -2359482.16121
  19867177.3484   -7467510.08747  -5818835.69462
  22494328.356    -5717571.275 5  -1765359.16021
 91  4  7 22 11 44.9960000  0  6G18G 2G11G16G19G 6
  21056550.316     3074582.202 7   2395759.54122
  20638232.4494  -19719949.54647 -15065702.35662
  21729579.8324  -15177900.24946 -11826895.44561
  22812963.223    -3933721.070 5  -2370353.15121
  19865757.9654   -7474957.99047  -5824639.26262
  22485340.418    -5764790.555 5  -1802153.30521
 91  4  7 22 11 59.9960000  0  6G18G 2G11G16G19G 6
  21062108.027     3103789.596 7   2418518.43222
  20630174.6844  -19762291.60747 -15098696.10262
  21728528.8634  -15183421.26646 -11831197.54061
  22810331.6994   -3947553.08945  -2381131.38061
  19864350.2384   -7482359.10047  -5830406.36962
  22476352.738    -5812016.154 5  -1838952.40321
 91  4  7 22 12 14.9960000  0  6G18G 2G11G16G19G 6
  21067679.668     3133074.415 6   2441337.67122
  20622131.8954  -19804558.77147 -15131631.49462
  21727507.5124  -15188790.63646 -11835381.45761
  22807725.762    -3961258.411 5  -2391810.89921
  19862953.4414   -7489705.64347  -5836130.95062
  22467366.684    -5859240.221 5  -1875750.27721
 91  4  7 22 12 29.9960000  0  6G18G 2G11G16G19G 6
  21073267.309     3162431.656 6   2464213.33621
  20614102.0744  -19846755.83147 -15164512.25762
  21726512.9024  -15194013.14746 -11839450.94761
  22805140.8164   -3974842.02945  -2402395.58261
  19861562.7154   -7497002.28147  -5841816.65362
  22458381.715    -5906467.606 5  -1912550.75821
 91  4  7 22 12 44.9960000  0  6G18G 2G11G16G19G 6
  21078866.152     3191858.592 6   2487143.30821
  20606084.4574  -19888885.30047 -15197340.34962
  21725548.0204  -15199091.52646 -11843408.12061
  22802581.106    -3988306.674 5  -2412887.57221
  19860183.4814   -7504251.46647  -5847465.37462
  22449391.574    -5953701.023 5  -1949355.94521
 91  4  7 22 12 59.9960000  0  6G18G 2G11G16G19G 6
  21084480.926     3221362.112 7   2510132.96021
  20598082.1914  -19930939.57547 -15230109.85362
  21724608.8954  -15204018.29846 -11847247.16161
  22800040.7464   -4001644.73745  -2423280.90661
  19858817.8794   -7511445.57847  -5853071.18062
  22440403.8564   -6000932.78145  -1986159.82161
 91  4  7 22 13 14.9960000  0  6G18G 2G11G16G19G 6
  21090109.293     3250938.273 7   2533179.21121
  20590093.5204  -19972922.73647 -15262823.94562
  21723701.2464  -15208797.55546 -11850971.25661
  22797526.6524   -4014860.38345  -2433578.87061
  19857455.8244   -7518588.58747  -5858637.17162
  22431415.8714   -6048166.96145  -2022965.60561
 91  4  7 22 13 29.9960000  0  6G18G 2G11G16G19G 6
  21095750.254     3280586.418 6   2556281.55821
  20582118.1064  -20014835.19547 -15295482.94062
  21722817.5824  -15213429.59646 -11854580.64261
  22795033.137    -4027954.171 5  -2443781.87221
  19856104.879    -7525680.810 7  -5864163.59022
  22422425.2464   -6095403.98545  -2059773.60161
 91  4  7 22 13 44.9960000  0  6G18G 2G11G16G19G 6
  21101409.113     3310314.316 6   2579446.04621
  20574156.5204  -20056668.92547 -15328080.59562
  21721965.9884  -15217906.68246 -11858069.28361
  22792565.8714   -4040918.49545  -2453883.98761
  19854768.8714   -7532714.18347  -5869644.14862
  22413441.324    -6142635.861 5  -2096577.56721
 91  4  7 22 13 59.9960000  0  6G18G 2G11G16G19G 6
  21107077.184     3340107.832 6   2602661.66421
  20566208.5984  -20098437.49047 -15360627.46562
  21721142.7774  -15222242.42846 -11861447.78661
  22790120.3874   -4053766.86545  -2463895.77161
  19853434.7704   -7539702.44647  -5875089.56062
  22404448.1294   -6189876.36745  -2133388.29461
 91  4  7 22 14 14.9960000  0  6G18G 2G11G16G19G 6
  21112761.012     3369973.990 6   2625933.89621
  20558272.8714  -20140133.84847 -15393118.07862
  21720345.5664  -15226429.93646 -11864710.77961
  22787702.543    -4066492.469 5  -2473811.87721
  19852118.598    -7546638.303 7  -5880494.13422
  22395461.9264   -6237118.31845  -2170200.11661
 91  4  7 22 14 29.9960000  0  6G18G 2G11G16G19G 6
  21118459.426     3399919.209 7   2649267.72621
  20550353.0044  -20181751.55247 -15425547.39562
  21719577.2704  -15230462.62346 -11867853.13661
  22785300.941    -4079088.881 5  -2483627.31521
  19850811.9344   -7553514.97547  -5885852.58762
  22386471.9814   -6284355.12345  -2207007.94061
 91  4  7 22 14 44.9960000  0  6G18G 2G11G16G19G 6
  21124171.004     3429933.316 7   2672655.23421
  20542447.2314  -20223300.04747 -15457922.78762
  21718837.2934  -15234350.06146 -11870882.30561
  22782928.3324   -4091565.85545  -2493349.67561
  19849512.504    -7560341.851 7  -5891172.23922
  22377479.0354   -6331596.32745  -2243819.19861
 91  4  7 22 14 59.9960000  0  6G18G 2G11G16G19G 6
  21129895.8404    3460015.33447   2696095.66761
  20534554.5984  -20264780.14447 -15490244.88262
  21718122.4964  -15238093.40146 -11873799.19061
  22780577.668    -4103924.274 5  -2502979.67621
  19848220.613    -7567120.001 7  -5896453.92222
  22368490.949    -6378842.845 5  -2280634.58221
 91  4  7 22 15 14.9960000  0  6G18G 2G11G16G19G 6
  21135634.231     3490169.496 7   2719592.30621
  20526673.3954  -20306187.46847 -15522510.27062
  21717440.3014  -15241688.22046 -11876600.35461
  22778249.699    -4116159.771 5  -2512513.89021
  19846942.160    -7573844.801 7  -5901694.03922
  22359500.5124   -6426090.26245  -2317450.66561
 91  4  7 22 15 29.9960000  0  6G18G 2G11G16G19G 6
  21141385.152     3520397.099 6   2743146.17521
  20518809.4964  -20347520.36647 -15554717.66262
  21716785.8634  -15245133.06146 -11879284.64561
  22775942.4734   -4128271.09445  -2521951.33461
  19845671.949    -7580514.653 7  -5906891.33822
  22350509.856    -6473336.997 5  -2354266.22521
 91  4  7 22 15 44.9960000  0  6G18G 2G11G16G19G 6
  21147152.652     3550694.137 7   2766754.14821
  20510958.098   -20388782.592 7 -15586869.98622
  21716158.9184  -15248431.68846 -11881855.01061
  22773661.2704   -4140262.28045  -2531295.17761
  19844412.059    -7587133.087 7  -5912048.57222
  22341516.793    -6520586.739 5  -2391084.13021
 91  4  7 22 15 59.9960000  0  6G18G 2G11G16G19G 6
  21152930.277     3581056.719 6   2790413.20121
  20503117.5664  -20429977.90647 -15618970.17262
  21715558.8714  -15251587.91946 -11884314.40761
  22771404.9494   -4152136.74845  -2540548.06761
  19843159.2704   -7593703.65147  -5917168.49862
  22332522.816    -6567843.233 5  -2427907.30121
 91  4  7 22 16 14.9960000  0  6G18G 2G11G16G19G 6
  21158722.652     3611498.321 6   2814133.81721
  20495292.9494  -20471092.63547 -15651007.56562
  21714986.2774  -15254588.24346 -11886652.31661
  22769166.7774   -4163881.43545  -2549699.83861
  19841924.4344   -7600212.71747  -5922240.50662
  22323532.106    -6615092.998 5  -2464725.21721
 91  4  7 22 16 29.9960000  0  6G18G 2G11G16G19G 6
  21164528.590     3642006.015 6   2837905.94121
  20487483.074   -20512139.366 7 -15682991.97722
  21714442.3714  -15257445.19846 -11888878.52061
  22766953.363    -4175508.577 5  -2558760.02721
  19840696.8874   -7606672.68947  -5927274.25362
  22314539.9024   -6662348.28245  -2501547.45361
 91  4  7 22 16 44.9960000  0  6G18G 2G11G16G19G 6
  21170347.215     3672586.595 6   2861734.84921
  20479685.6374  -20553111.12347 -15714917.96662
  21713929.2384  -15260151.87046 -11890987.61461
  22764768.1844   -4187011.36645  -2567723.28961
  19839475.6604   -7613076.45847  -5932264.21162
  22305548.3484   -6709602.28645  -2538368.66261
 91  4  7 22 16 59.9960000  0  6G18G 2G11G16G19G 6
  21176180.184     3703238.715 6   2885619.50621
  20471904.168   -20594008.539 7 -15746786.02122
  21713440.7074  -15262709.27246 -11892980.39761
  22762601.4884   -4198390.71445  -2576590.36461
  19838266.2934   -7619424.71347  -5937210.89862
  22296555.8404   -6756855.77145  -2575189.48561
 91  4  7 22 17 14.9960000  0  6G18G 2G11G16G19G 6
  21182025.254     3733957.716 6   2909556.28121
  20464133.098   -20634836.416 7 -15778599.90222
  21712982.1684  -15265122.25546 -11894860.64761
  22760459.090    -4209651.405 5  -2585364.97121
  19837069.8244   -7625722.26647  -5942118.09263
  22287564.8634   -6804113.42545  -2612013.57561
 91  4  7 22 17 29.9960000  0  6G18G 2G11G16G19G 6
  21187883.129     3764741.210 6   2933543.29921
  20456377.8874  -20675596.91447 -15810361.27362
  21712548.8404  -15267392.98146 -11896630.05261
  22758337.941    -4220795.830 5  -2594049.00421
  19835880.0434   -7631971.01547  -5946987.25463
  22278568.371    -6851377.540 5  -2648842.66821
 91  4  7 22 17 44.9960000  0  6G18G 2G11G16G19G 6
  21193755.496     3795596.759 6   2957586.47721
  20448634.934   -20716281.815 7 -15842063.73822
  21712146.5274  -15269513.34846 -11898282.28961
  22756241.004    -4231816.382 5  -2602636.51321
  19834701.777    -7638162.795 7  -5951812.03023
  22269575.2074   -6898639.72845  -2685670.27261
 91  4  7 22 17 59.9960000  0  6G18G 2G11G16G19G 6
  21199641.113     3826517.426 6   2981680.38721
  20440906.6064  -20756898.51047 -15873713.05162
  21711771.1524  -15271490.68346 -11899823.06961
  22754165.520    -4242720.170 5  -2611133.04121
  19833530.7074   -7644304.77147  -5956597.99663
  22260581.5274   -6945907.37145  -2722502.12561
 91  4  7 22 18 14.9960000  0  6G18G 2G11G16G19G 6
  21205535.926     3857503.458 6   3005825.24221
  20433191.3094  -20797446.08847 -15905308.50662
  21711421.0434  -15273324.24546 -11901251.82461
  22752114.6294   -4253506.38545  -2619537.92861
  19832374.3164   -7650395.98447  -5961344.40163
  22251584.512    -6993179.561 5  -2759337.51321
 91  4  7 22 18 29.9960000  0  6G18G 2G11G16G19G 6
  21211446.168     3888560.173 6   3030025.16621
  20425488.3714  -20837918.85247 -15936845.67062
  21711098.9344  -15275008.51546 -11902564.24261
  22750086.1454   -4264169.48345  -2627846.89061
  19831225.6844   -7656430.72147  -5966046.80263
  22242589.2774   -7040450.56945  -2796171.99861
 91  4  7 22 18 44.9960000  0  6G18G 2G11G16G19G 6
  21217369.223     3919682.562 6   3054276.26721
  20417800.301   -20878321.624 7 -15968328.29122
  21710806.7234  -15276548.38546 -11903764.14461
  22748081.668    -4274714.749 5  -2636064.03021
  19830088.527    -7662413.534 7  -5970708.74322
  22233593.2464   -7087725.40245  -2833009.45061
 91  4  7 22 18 59.9960000  0  6G18G 2G11G16G19G 6
  21223304.324     3950869.061 6   3078577.31921
  20410124.8714  -20918655.89247 -15999757.53162
  21710541.0744  -15277945.32146 -11904852.66361
  22746094.5664   -4285143.54045  -2644190.43961
  19828958.402    -7668345.517 7  -5975331.08322
  22224595.176    -7135005.196 5  -2869850.77321
 91  4  7 22 19 14.9960000  0  6G18G 2G11G16G19G 6
  21229250.895     3982124.023 6   3102931.72621
  20402462.7854  -20958916.99447 -16031129.75962
  21710304.1214  -15279194.89346 -11905826.35661
  22744130.043    -4295451.389 5  -2652222.57621
  19827840.6214   -7674222.19447  -5979910.31963
  22215599.363    -7182285.516 5  -2906692.48321
 91  4  7 22 19 29.9960000  0  6G18G 2G11G16G19G 6
  21235211.762     4013447.864 6   3127339.80121
  20394815.3094  -20999104.08247 -16062444.31462
  21710092.6764  -15280296.51946 -11906684.77061
  22742193.4414   -4305637.76245  -2660160.05361
  19826732.7624   -7680042.89747  -5984445.94263
  22206602.223    -7229565.687 5  -2943534.10021
 91  4  7 22 19 44.9950000  0  6G18G 2G11G16G19G 6
  21241184.8514    4044833.71646   3151796.19261
  20387182.2264  -21039218.92347 -16093702.56662
  21709912.0384  -15281254.58446 -11907431.31261
  22740275.038    -4315706.508 5  -2668005.89321
  19825636.452    -7685811.420 7  -5988940.90523
  22197602.460    -7276846.708 5  -2980376.36321
 91  4  7 22 19 59.9950000  0  6G18G 2G11G16G19G 6
  21247169.866     4076288.782 6   3176306.52121
  20379561.4524  -21079263.84847 -16124906.34862
  21709758.8824  -15282066.05846 -11908063.64161
  22738385.3044   -4325655.81045  -2675758.64861
  19824545.8194   -7691525.33147  -5993393.31363
  22188605.773    -7324131.775 5  -3017221.79321
 91  4  7 22 20 14.9950000  0  6G18G 2G11G16G19G 6
  21253169.546     4107805.887 6   3200865.19421
  20371954.7884  -21119240.90847 -16156057.23662
  21709629.8984  -15282735.89246 -11908585.59961
  22736514.179    -4335490.264 5  -2683421.92221
  19823470.1084   -7697188.86447  -5997806.46763
  22179607.3434   -7371422.56145  -3054071.66361
 91  4  7 22 20 29.9950000  0  6G18G 2G11G16G19G 6
  21259178.1794    4139386.30946   3225473.19661
  20364360.3664  -21159148.71747 -16187154.16962
  21709530.4684  -15283262.74946 -11908996.13861
  22734663.148    -4345208.098 5  -2690994.33121
  19822402.8124   -7702800.59947  -6002179.25863
  22170606.8434   -7418717.56145  -3090924.81461
 91  4  7 22 20 44.9950000  0  6G18G 2G11G16G19G 6
  21265198.2734    4171028.11646   3250129.03061
  20356779.7184  -21198988.82247 -16218198.34462
  21709457.9134  -15283648.32746 -11909296.59261
  22732835.687    -4354811.570 5  -2698477.60821
  19821345.4764   -7708362.03147  -6006512.85063
  22161604.124    -7466018.501 5  -3127782.61221
 91  4  7 22 20 59.9950000  0  6G18G 2G11G16G19G 6
  21271232.2964    4202734.84946   3274835.45861
  20349210.5464  -21238757.45647 -16249186.82962
  21709410.796   -15283889.033 6 -11909484.16821
  22731032.101    -4364296.902 5  -2705868.86021
  19820293.8434   -7713869.33547  -6010804.26562
  22152603.991    -7513321.521 5  -3164642.02321
 91  4  7 22 21 14.9950000  0  6G18G 2G11G16G19G 6
  21277278.726     4234507.012 6   3299592.87221
  20341656.9914  -21278453.82547 -16280118.99762
  21709391.6794  -15283984.29646
  22729249.515    -4373663.173 5  -2713167.27621
  19819259.8904   -7719321.53347  -6015052.73863
  22143601.3274   -7560625.94345  -3201502.51561
 91  4  7 22 21 29.9950000  0  6G18G 2G11G16G19G 6
  21283337.8124    4266346.91346   3324403.06861
  20334117.9054  -21318075.29647 -16310992.81562
  21709401.5934  -15283931.47947
  22727491.4604   -4382908.16545  -2720371.23261
  19818230.312    -7724715.954 7  -6019256.19422
  22134599.7104   -7607928.91145  -3238361.89061
 91  4  7 22 21 44.9950000  0  6G18G 2G11G16G19G 6
  21289408.812     4298244.173 6   3349257.96121
  20326589.4054  -21357631.85347 -16341816.04562
  21709438.0384  -15283740.68146
  22725753.296    -4392042.337 5  -2727488.80221
  19817214.7104   -7730062.31647  -6023422.19962
  22125596.6484   -7655240.57645  -3275228.01961
 91  4  7 22 21 59.9950000  0  6G18G 2G11G16G19G 6
  21295491.3194    4330208.63846   3374165.22061
  20319077.2734  -21397113.66247 -16372581.03162
  21709502.4294  -15283402.35046
  22724037.3434   -4401055.81845  -2734512.39461
  19816209.483    -7735350.843 7  -6027543.13923
  22116593.335    -7702551.127 5  -3312093.29621
 91  4  7 22 22 14.9950000  0  6G18G 2G11G16G19G 6
  21301585.874     4362235.523 6   3399121.12021
  20311577.312   -21436525.293 7 -16403291.33922
  21709596.023   -15282920.806 6 -11908729.74021
  22722344.054    -4409952.927 5  -2741445.25021
  19815211.585    -7740585.836 7  -6031622.36922
  22107590.3354   -7749864.78245  -3348960.98561
 91  4  7 22 22 29.9950000  0  6G18G 2G11G16G19G 6
  21307690.7184    4394320.68246   3424122.42461
  20304089.9834  -21475870.50247 -16433949.88462
  21709714.7734  -15282300.00246 -11908246.00861
  22720671.335    -4418737.838 5  -2748290.70921
  19814223.437    -7745771.096 7  -6035662.84722
  22098585.7104   -7797185.57545  -3385834.24161
 91  4  7 22 22 44.9950000  0  6G18G 2G11G16G19G 6
  21313807.8044    4426466.76346   3449171.20161
  20296615.1404  -21515146.25547 -16464554.31362
  21709859.6014  -15281537.13947 -11907651.58061
  22719021.2184   -4427407.80245  -2755046.56061
  19813249.8354   -7750903.31647  -6039661.99063
  22089581.5464   -7844510.08745  -3422710.39261
 91  4  7 22 22 59.9950000  0  6G18G 2G11G16G19G 6
  21319938.0774    4458681.75546   3474273.67261
  20289156.4444  -21554344.49647 -16495098.33962
  21710031.3664  -15280624.27347 -11906940.26261
  22717396.562    -4435955.095 5  -2761706.90021
  19812285.194    -7755974.402 7  -6043613.50023
  22080575.6944   -7891830.54645  -3459583.38861
 91  4  7 22 23 14.9950000  0  6G18G 2G11G16G19G 6
  21326080.6014    4490957.85346   3499423.75861
  20281710.5624  -21593472.78047 -16525587.85362
  21710232.632   -15279568.895 7 -11906117.90221
  22715790.4994   -4444387.01344  -2768277.23961
  19811330.444    -7760991.783 7  -6047523.15722
  22071569.546    -7939154.431 5  -3496459.03721
 91  4  7 22 23 29.9950000  0  6G18G 2G11G16G19G 6
  21332232.7264    4523288.95546   3524616.69961
  20274277.093   -21632536.957 7 -16556027.41922
  21710459.351   -15278377.192 7 -11905189.31921
  22714206.437    -4452709.503 4  -2774762.37921
  19810382.601    -7765961.299 7  -6051395.52422
  22062563.929    -7986487.428 5  -3533341.80521
 91  4  7 22 23 44.9950000  0  6G18G 2G11G16G19G 6
  21338395.3744    4555678.67546   3549855.32661
  20266855.827   -21671533.033 7 -16586413.91322
  21710712.4604  -15277045.28946 -11904151.48861
  22712643.858    -4460919.093 4  -2781159.53721
  19809448.796    -7770878.769 7  -6055227.33022
  22053554.6874   -8033825.74745  -3570228.71061
 91  4  7 22 23 59.9950000  0  6G18G 2G11G16G19G 6
  21344575.4834    4588135.92846   3575146.56961
  20259450.562   -21710451.756 7 -16616740.13522
  21710994.757   -15275563.988 7 -11902997.23821
  22711106.233    -4469006.482 4  -2787461.46321
  19808524.3274   -7775734.91947  -6059011.35363
  22044548.5934   -8081159.96945  -3607112.42861
 91  4  7 22 24 14.9950000  0  6G18G 2G11G16G19G 6
  21350761.3194    4620657.44146   3600487.88661
  20252058.1714  -21749296.22847 -16647008.50062
  21711306.210   -15273936.578 7 -11901729.14321
  22709589.608    -4476975.199 4  -2793670.92421
  19807610.632    -7780532.898 7  -6062750.04823
  22035539.8514   -8128493.30645  -3643995.45261
 91  4  7 22 24 29.9950000  0  6G18G 2G11G16G19G 6
  21356961.3824    4653237.33146   3625874.68761
  20244678.890   -21788072.118 7 -16677223.42622
  21711642.366   -15272169.024 6 -11900351.84421
  22708096.366    -4484831.072 4  -2799792.45621
  19806708.1944   -7785278.17147  -6066447.67263
  22026532.4994   -8175831.42045  -3680882.21061
 91  4  7 22 24 44.9950000  0  6G18G 2G11G16G19G 6
  21363172.6404    4685881.35446   3651311.46661
  20237315.7734  -21826773.36147 -16707380.18162
  21712003.632   -15270255.298 6 -11898860.64921
  22706619.030    -4492567.960 4  -2805821.25621
  19805816.8664   -7789964.54747  -6070099.40362
  22017523.6014   -8223168.01345  -3717767.77061
 91  4  7 22 24 59.9950000  0  6G18G 2G11G16G19G 6
  21369395.601     4718582.276 6   3676792.57021
  20229963.2734  -21865406.87147 -16737484.15662
  21712395.046   -15268202.466 6 -11897261.05921
  22705169.023    -4500192.915 4  -2811762.83521
  19804932.280    -7794598.895 7  -6073710.59622
  22008515.6324   -8270510.13145  -3754657.62861
 91  4  7 22 25 14.9950000  0  6G18G 2G11G16G19G 6
  21375630.7184    4751343.99046   3702321.05461
  20222624.8664  -21903968.87947 -16767532.41662
  21712813.4684  -15266006.81247 -11895550.16361
  22703741.249    -4507702.470 4  -2817614.51021
  19804063.0304   -7799177.31647  -6077278.20163
  21999505.5154   -8317853.94545  -3791548.82761
 91  4  7 22 25 29.9950000  0  6G18G 2G11G16G19G 6
  21381878.187     4784170.542 6   3727900.05121
  20215301.1944  -21942454.96547 -16797521.51462
  21713258.835   -15263663.935 7 -11893724.56121
  22702333.773    -4515092.358 4  -2823372.94121
  19803204.788    -7803695.016 7  -6080798.49922
  21990496.3514   -8365194.76445  -3828437.67861
 91  4  7 22 25 44.9950000  0  6G18G 2G11G16G19G 6
  21388136.9684    4817057.02646   3753525.75961
  20207991.4994  -21980869.72947 -16827455.03762
  21713733.0384  -15261178.58647 -11891787.93061
  22700953.507    -4522367.221 4  -2829041.74121
  19802353.569    -7808156.550 7  -6084275.02922
  21981487.3354   -8412537.35145  -3865327.91261
 91  4  7 22 25 59.9950000  0  6G18G 2G11G16G19G 6
  21394404.944     4850004.181 6   3779198.72821
  20200695.1324  -22019212.14047 -16857332.18262
  21714232.241   -15258549.830 6 -11889739.56821
  22699591.038    -4529526.275 4  -2834620.28021
  19801513.3044   -7812560.74547  -6087706.88062
  21972478.913    -8459880.616 5  -3902218.67621
 91  4  7 22 26 14.9950000  0  6G18G 2G11G16G19G 6
  21400686.507     4883007.646 6   3804915.58921
  20193412.319   -22057486.109 7 -16887155.99822
  21714760.1944  -15255781.83446 -11887582.71161
  22698246.866    -4536573.916 4  -2840111.98921
  19800688.108    -7816911.628 7  -6091097.19022
  21963468.1634   -8507228.42045  -3939112.96561
 91  4  7 22 26 29.9950000  0  6G18G 2G11G16G19G 6
  21406978.296     4916073.949 6   3830681.39621
  20186142.819   -22095685.298 7 -16916921.54422
  21715314.2184  -15252868.40947 -11885312.51761
  22696929.319    -4543503.834 4  -2845512.00721
  19799869.3274   -7821202.78547  -6094440.95362
  21954457.8044   -8554574.39845  -3976005.84461
 91  4  7 22 26 44.9950000  0  6G18G 2G11G16G19G 6
  21413281.874     4949193.520 6   3856488.72821
  20178885.937   -22133818.585 7 -16946635.73822
  21715893.8274  -15249818.50946 -11882935.98561
  22695634.8514   -4550324.72544  -2850827.04561
  19799065.3274   -7825442.84647  -6097744.90362
  21945448.3514   -8601927.38745  -4012904.18461
 91  4  7 22 26 59.9950000  0  6G18G 2G11G16G19G 6
  21419595.835     4982373.846 6   3882343.38821
  20171643.155   -22171878.254 7 -16976292.57122
  21716502.1484  -15246624.55646 -11880447.19961
  22694356.905    -4557029.265 5  -2856051.45621
  19798270.515    -7829623.977 7  -6101002.93923
  21936436.2104   -8649279.73545  -4049802.02261
 91  4  7 22 27 14.9950000  0  6G18G 2G11G16G19G 6
  21425919.983     5015614.950 6   3908245.40521
  20164415.179   -22209864.198 7 -17005891.95022
  21717136.460   -15243286.511 6 -11877846.14121
  22693101.523    -4563617.307 4  -2861185.06321
  19797485.3044   -7833745.71447  -6104214.68662
  21927425.5384   -8696630.91245  -4086698.96161
 91  4  7 22 27 29.9950000  0  6G18G 2G11G16G19G 6
  21432257.632     5048911.880 6   3934190.93521
  20157199.3194  -22247781.31347 -17035437.69662
  21717800.437   -15239809.503 6 -11875136.79721
  22691870.858    -4570094.339 5  -2866232.16021
  19796708.6404   -7837813.11247  -6107384.09662
  21918415.124    -8743986.070 5  -4123598.99121
 91  4  7 22 27 44.9950000  0  6G18G 2G11G16G19G 6
  21438601.4444    5082264.07446   3960179.51161
  20149997.6484  -22285629.42947 -17064929.67862
  21718487.616   -15236193.532 6 -11872319.17621
  22690655.304    -4576460.269 5  -2871192.68921
  19795946.7414   -7841826.10747  -6110511.10863
  21909401.5934   -8791345.18045  -4160502.10461
 91  4  7 22 27 59.9950000  0  6G18G 2G11G16G19G 6
  21444962.585     5115672.349 6   3986211.79221
  20142807.976   -22323407.466 7 -17094367.05122
  21719202.780   -15232437.816 6 -11869392.66321
  22689468.843    -4582714.350 5  -2876066.11521
  19795192.6794   -7845783.43747  -6113594.74662
  21900389.585    -8838707.131 5  -4197407.43021
 91  4  7 22 28 14.9950000  0  6G18G 2G11G16G19G 6
  21451329.437     5149139.128 6   4012289.66721
  20135632.2734  -22361113.18647 -17123748.07962
  21719942.5384  -15228540.16746 -11866355.54061
  22688299.312    -4588854.326 5  -2880850.54321
  19794452.5544   -7849682.69647  -6116633.14162
  21891377.3354   -8886069.33745  -4234312.94861
 91  4  7 22 28 29.9950000  0  6G18G 2G11G16G19G 6
  21457710.1014    5182660.31846   4038409.92461
  20128471.265   -22398750.143 7 -17153075.52422
  21720711.483   -15224504.270 6 -11863210.69621
  22687154.5384   -4594884.11845  -2885549.15861
  19793719.2964   -7853527.46647  -6119629.06862
  21882363.3984   -8933435.42445  -4271221.50161
 91  4  7 22 28 44.9950000  0  6G18G 2G11G16G19G 6
  21464098.874     5216239.767 6   4064575.58921
  20121323.062   -22436314.302 7 -17182346.24322
  21721505.952   -15220326.125 6 -11859955.01821
  22686027.718    -4600799.541 5  -2890158.66621
  19793000.8824   -7857313.53847  -6122579.26162
  21873349.5694   -8980801.37045  -4308129.94061
 91  4  7 22 28 59.9950000  0  6G18G 2G11G16G19G 6
  21470500.8744    5249883.09646   4090791.02161
  20114188.3664  -22473799.86847 -17211555.71362
  21722331.944   -15215999.936 6 -11856583.96921
  22684923.062    -4606594.898 4  -2894674.57321
  19792294.0694   -7861034.73647  -6125478.90663
  21864337.5074   -9028161.20145  -4345033.61161
 91  4  7 22 29 14.9950000  0  6G18G 2G11G16G19G 6
  21476911.937     5283576.871 6   4117045.76521
  20107067.6404  -22511219.95447 -17240714.16962
  21723179.1794  -15211539.04746 -11853107.96861
  22683844.241    -4612283.425 4  -2899107.29521
  19791593.0234   -7864704.07447  -6128338.13463
  21855323.2654   -9075527.77245  -4381942.54561
 91  4  7 22 29 29.9950000  0  6G18G 2G11G16G19G 6
  21483336.7494    5317328.73646   4143345.77961
  20099960.9764  -22548566.65447 -17269815.43462
  21724054.108   -15206935.946 6 -11849521.15921
  22682783.710    -4617857.925 4  -2903451.09421
  19790905.4294   -7868313.77747  -6131150.89963
  21846310.2104   -9122893.47845  -4418850.79461
 91  4  7 22 29 44.9950000  0  6G18G 2G11G16G19G 6
  21489767.6554    5351132.38946   4169686.14061
  20092868.0234  -22585846.06447 -17298864.26662
  21724955.702   -15202196.695 6 -11845828.24821
  22681739.999    -4623324.367 4  -2907710.73821
  19790231.2264   -7871869.47447  -6133921.57962
  21837296.843    -9170264.334 5  -4455763.05821
 91  4  7 22 29 59.9950000  0  6G18G 2G11G16G19G 6
  21496211.640     5384990.376 6   4196068.84221
  20085786.148   -22623055.388 7 -17327858.49022
  21725885.023   -15197318.734 6 -11842027.25621
  22680720.788    -4628680.425 4  -2911884.36321
  19789563.3984   -7875368.50047  -6136648.10063
  21828281.9684   -9217637.43445  -4492677.07461
 91  4  7 22 30 14.9950000  0  6G18G 2G11G16G19G 6
  21502665.6794    5418901.65946   4222493.07661
  20078719.0854  -22660195.37547 -17356798.68062
  21726840.288   -15192303.102 6 -11838118.99321
  22679723.8434   -4633926.78244  -2915972.52161
  19788908.9524   -7878811.53647  -6139330.99463
  21819266.3354   -9265013.63445  -4529593.49361
 91  4  7 22 30 29.9950000  0  6G18G 2G11G16G19G 6
  21509129.0694    5452867.21746   4248959.59461
  20071665.0624  -22697264.63247 -17385683.75562
  21727821.069   -15187148.413 6 -11834102.37721
  22678746.741    -4639062.041 4  -2919974.09721
  19788263.218    -7882197.014 7  -6141969.03523
  21810250.898    -9312391.294 5  -4566511.06921
 91  4  7 22 30 44.9950000  0  6G18G 2G11G16G19G 6
  21515603.718     5486891.495 6   4275471.88121
  20064625.757   -22734258.496 7 -17414510.08922
  21728829.077   -15181850.139 6 -11829973.86521
  22677789.233    -4644081.871 4  -2923885.75021
  19787632.788    -7885520.081 7  -6144558.45423
  21801233.6164   -9359765.67245  -4603426.07661
 91  4  7 22 30 59.9950000  0  6G18G 2G11G16G19G 6
  21522087.1944    5520965.71046   4302023.06561
  20057598.429   -22771185.607 7 -17443284.40522
  21729861.241   -15176417.007 6 -11825740.26821
  22676858.827    -4648995.340 4  -2927714.48521
  19787009.3354   -7888789.21947  -6147105.84163
  21792218.562    -9407145.355 5  -4640345.23221
 91  4  7 22 31 14.9950000  0  6G18G 2G11G16G19G 6
  21528584.773     5555097.187 6   4328618.86621
  20050585.3194  -22808038.30847 -17472000.73662
  21730923.343   -15170841.578 6 -11821395.80121
  22675945.2184   -4653794.75444  -2931454.36561
  19786399.8824   -7891996.85247  -6149605.30763
  21783204.4524   -9454522.71345  -4677262.56661
 91  4  7 22 31 29.9950000  0  6G18G 2G11G16G19G 6
  21535087.2104    5589278.63546   4355253.62561
  20043584.3124  -22844823.80847 -17500664.70562
  21732011.3584  -15165131.18846 -11816946.15561
  22675052.9604   -4658487.44744  -2935111.10261
  19785799.241    -7895149.907 7  -6152062.24622
  21774186.390    -9501904.806 5  -4714183.60021
 91  4  7 22 31 44.9950000  0  6G18G 2G11G16G19G 6
  21541600.8354    5623508.08946   4381925.76461
  20036598.1164  -22881543.64147 -17529277.50062
  21733120.554   -15159287.724 6 -11812392.82421
  22674177.710    -4663075.465 4  -2938686.24821
  19785210.773    -7898250.086 7  -6154477.98123
  21765168.4374   -9549293.31045  -4751109.61761
 91  4  7 22 31 59.9950000  0  6G18G 2G11G16G19G 6
  21548124.8274    5657797.63546   4408644.75261
  20029624.9834  -22918185.80447 -17557829.78262
  21734260.515   -15153299.097 6 -11807726.38321
  22673327.7574   -4667546.70644  -2942170.41661
  19784630.241    -7901284.841 7  -6156842.73823
  21756151.2964   -9596676.08545  -4788031.17961
 91  4  7 22 32 14.9950000  0  6G18G 2G11G16G19G 6
  21554661.5774    5692138.64846   4435403.82561
  20022665.4054  -22954758.39747 -17586327.83862
  21735427.2884  -15147173.44246 -11802953.16461
  22672497.4444   -4671909.38744  -2945569.98561
  19784066.335    -7904262.082 7  -6159162.68123
  21747135.538    -9644060.843 5  -4824954.27821
 91  4  7 22 32 29.9950000  0  6G18G 2G11G16G19G 6
  21561205.9684    5726529.89546   4462202.05061
  20015718.6164  -22991262.47147 -17614772.51662
  21736618.312   -15140912.160 6 -11798074.26421
  22671686.4374   -4676164.68144  -2948885.87861
  19783508.874    -7907183.059 7  -6161438.78523
  21738117.491    -9691448.808 5  -4861879.88521
 91  4  7 22 32 44.9950000  0  6G18G 2G11G16G19G 6
  21567758.3044    5760968.59046   4489037.25061
  20008784.2024  -23027700.48547 -17643165.71062
  21737835.296   -15134517.951 6 -11793091.77921
  22670896.757    -4680315.572 5  -2952120.45221
  19782965.304    -7910050.309 7  -6163673.01823
  21729099.312    -9738842.449 5  -4898809.91221
 91  4  7 22 32 59.9950000  0  6G18G 2G11G16G19G 6
  21574322.4374    5795454.88646   4515909.54061
  20001863.241   -23064072.105 7 -17671507.18022
  21739077.4134  -15127990.43646 -11788005.41661
  22670127.007    -4684361.668 5  -2955273.31321
  19782430.827    -7912863.053 7  -6165864.78123
  21720077.218    -9786241.223 5  -4935743.94021
 91  4  7 22 33 14.9950000  0  6G18G 2G11G16G19G 6
  21580894.4134    5829995.13746   4542823.85961
  19994955.9374  -23100370.79547 -17699791.81862
  21740346.804   -15121323.302 6 -11782810.27021
  22669382.202    -4688296.709 5  -2958339.68021
  19781905.530    -7915614.654 7  -6168008.90523
  21711058.2104   -9833638.63445  -4972676.90361
 91  4  7 22 33 29.9950000  0  6G18G 2G11G16G19G 6
  21587477.6944    5864584.83746   4569776.72561
  19988061.6084  -23136600.77347 -17728022.91262
  21741642.429   -15114521.017 6 -11777509.81121
  22668652.0774   -4692125.01545  -2961322.86561
  19781391.163    -7918309.245 7  -6170108.60523
  21702039.6404   -9881038.81145  -5009612.02561
 91  4  7 22 33 44.9950000  0  6G18G 2G11G16G19G 6
  21594068.6554    5899222.89846   4596767.25961
  19981179.9994  -23172762.76147 -17756201.02162
  21742961.233   -15107584.434 6 -11772104.69621
  22667942.335    -4695847.767 5  -2964223.78821
  19780891.413    -7920947.526 7  -6172164.42423
  21693018.4604   -9928442.46145  -5046549.84561
 91  4  7 22 33 59.9950000  0  6G18G 2G11G16G19G 6
  21600671.6484    5933912.02846   4623797.59361
  19974311.8274  -23208853.77347 -17784323.83362
  21744307.6084  -15100510.78446 -11766592.79561
  22667255.796    -4699461.848 5  -2967040.02721
  19780399.796    -7923526.313 7  -6174173.88522
  21683997.390    -9975846.395 5  -5083487.89621
 91  4  7 22 34 14.9950000  0  6G18G 2G11G16G19G 6
  21607281.2104    5968649.26346   4650865.41761
  19967456.1794  -23244876.82547 -17812393.68062
  21745679.827   -15093303.218 6 -11760976.52721
  22666587.819    -4702970.717 5  -2969774.29021
  19779920.952    -7926048.392 7  -6176139.16423
  21674976.765   -10023253.679 6  -5120428.55721
 91  4  7 22 34 29.9950000  0  6G18G 2G11G16G19G 6
  21613901.5234    6003438.57546   4677973.78461
  19960615.843   -23280827.331 7 -17840407.00922
  21747076.8984  -15085957.38846 -11755252.54261
  22665939.976    -4706369.881 5  -2972423.04921
  19779451.944    -7928509.342 7  -6178056.80523
  21665952.9994  -10070659.76045  -5157368.26661
 91  4  7 22 34 44.9950000  0  6G18G 2G11G16G19G 6
  21620529.7494    6038280.22146   4705122.96761
  19953788.077   -23316705.126 7 -17868363.67322
  21748500.6634  -15078473.23346 -11749420.75961
  22665313.7494   -4709659.48145  -2974986.50961
  19778995.343    -7930908.789 7  -6179926.52223
  21656933.827   -10118064.243 6  -5194306.74321
 91  4  7 22 34 59.9950000  0  6G18G 2G11G16G19G 6
  21627170.7884    6073167.95846   4732308.03761
  19946973.0154  -23352515.87647 -17896268.09963
  21749949.6244  -15070856.69846 -11743485.82461
  22664704.843    -4712845.481 5  -2977469.15821
  19778548.593    -7933252.332 7  -6181752.67923
  21647914.3904  -10165472.86246  -5231248.44161
 91  4  7 22 35 14.9950000  0  6G18G 2G11G16G19G 6
  21633818.2804    6108103.53946   4759530.41661
  19940172.640   -23388257.540 7 -17924118.69422
  21751423.866   -15063105.784 6 -11737446.17721
  22664121.4914   -4715925.87345  -2979869.55561
  19778114.187    -7935537.538 6  -6183533.38323
  21638892.335   -10212883.338 6  -5268191.58121
 91  4  7 22 35 29.9950000  0  6G18G 2G11G16G19G 6
  21640473.163     6143078.986 6   4786783.84021
  19933382.421   -23423938.194 7 -17951921.74522
  21752925.0624  -15055228.66146 -11731308.19261
  22663554.0774   -4718909.05945  -2982194.18661
  19777688.827    -7937772.524 7  -6185274.95123
  21629867.210   -10260303.806 6  -5305142.52121
 91  4  7 22 35 44.9950000  0  6G18G 2G11G16G19G 6
  21647137.921     6178099.505 6   4814072.39521
  19926605.7024  -23459552.13747 -17979672.81862
  21754448.0544  -15047219.94246 -11725067.65361
  22663005.163    -4721789.124 5  -2984438.46621
  19777275.062    -7939951.561 6  -6186972.92223
  21620843.3124  -10307728.40046  -5342096.66561
 91  4  7 22 35 59.9950000  0  6G18G 2G11G16G19G 6
  21653811.5934    6213165.81046   4841396.60961
  19919839.9444  -23495098.60047 -18007371.30162
  21755997.6014  -15039078.76246 -11718723.90861
  22662474.405    -4724565.750 5  -2986602.15521
  19776868.530    -7942073.420 7  -6188626.34123
  21611815.7734  -10355156.07146  -5379053.20261
 91  4  7 22 36 14.9950000  0  6G18G 2G11G16G19G 6
  21660494.296     6248283.218 6   4868760.65721
  19913091.054   -23530571.690 7 -18035012.62123
  21757573.1944  -15030799.60746 -11712272.65261
  22661972.273    -4727233.216 5  -2988680.78421
  19776479.624    -7944132.352 7  -6190230.72223
  21602792.898   -10402581.014 6  -5416007.62321
 91  4  7 22 36 29.9950000  0  6G18G 2G11G16G19G 6
  21667186.608     6283446.848 6   4896160.72821
  19906352.741   -23565976.218 7 -18062600.51122
  21759174.3664  -15022387.66346 -11705717.92361
  22661479.491    -4729796.744 5  -2990678.40921
  19776099.866    -7946133.056 7  -6191789.73122
  21593767.0854  -10450008.23646  -5452963.81961
 91  4  7 22 36 44.9950000  0  6G18G 2G11G16G19G 6
  21673887.507     6318655.835 6   4923596.12421
  19899628.858   -23601313.073 7 -18090135.67023
  21760799.1944  -15013843.73346 -11699060.34761
  22661016.273    -4732257.329 5  -2992595.83721
  19775730.249    -7948076.218 7  -6193303.91122
  21584741.257   -10497438.303 6  -5489922.23621
 91  4  7 22 36 59.9950000  0  6G18G 2G11G16G19G 6
  21680594.1554    6353913.72246   4951069.65161
  19892917.890   -23636578.207 7 -18117614.94222
  21762452.773   -15005164.031 6 -11692296.97321
  22660569.226    -4734611.211 5  -2994430.11121
  19775371.804    -7949957.791 6  -6194770.08923
  21575717.1014  -10544867.10346  -5526879.66061
 91  4  7 22 37 14.9950000  0  6G18G 2G11G16G19G 6
  21687313.3824    6389211.41646   4978574.18061
  19886219.398   -23671780.444 7 -18145045.20523
  21764126.5624  -14996357.48846 -11685434.75861
  22660137.062    -4736867.119 5  -2996188.05021
  19775021.968    -7951786.318 7  -6196194.93522
  21566687.702   -10592303.406 6  -5563842.92421
 91  4  7 22 37 29.9950000  0  6G18G 2G11G16G19G 6
  21694037.765     6424550.685 6   5006111.10021
  19879532.765   -23706917.662 7 -18172424.80223
  21765826.827   -14987422.282 6 -11678472.28621
  22659725.929    -4739023.349 4  -2997868.31021
  19774683.296    -7953559.437 7  -6197576.59922
  21557659.780   -10639744.907 6  -5600810.24821
 91  4  7 22 37 44.9950000  0  6G18G 2G11G16G19G 6
  21700770.054     6459936.515 6   5033684.31621
  19872860.491   -23741984.668 7 -18199749.69222
  21767552.4604  -14978353.38846 -11671405.64561
  22659337.148    -4741074.755 5  -2999466.90021
  19774359.913    -7955272.059 7  -6198911.13223
  21548634.108   -10687186.447 6  -5637777.60421
 91  4  7 22 37 59.9950000  0  6G18G 2G11G16G19G 6
  21707514.5774    6495366.38046   5061291.83361
  19866199.866   -23776983.915 7 -18227021.78123
  21769304.007   -14969153.398 6 -11664236.84121
  22658963.733    -4743024.269 4  -3000986.09221
  19774045.913    -7956926.504 7  -6200200.33023
  21539604.9994  -10734630.38546  -5674746.81361
 91  4  7 22 38 14.9950000  0  6G18G 2G11G16G19G 6
  21714263.124     6530841.708 6   5088934.78521
  19859553.132   -23811913.799 7 -18254239.82223
  21771079.7964  -14959820.85246 -11656964.75661
  22658614.8124   -4744870.29044  -3002424.63961
  19773741.155    -7958521.067 7  -6201442.87223
  21530577.749   -10782075.012 6  -5711716.57621
 91  4  7 22 38 29.9950000  0  6G18G 2G11G16G19G 6
  21721026.0304    6566368.86646   5116618.10461
  19852920.023   -23846767.619 7 -18281398.59122
  21772882.296   -14950349.205 6 -11649584.27721
  22658284.2884   -4746606.43244  -3003777.54961
  19773447.210    -7960048.774 7  -6202633.31523
  21521551.007   -10829513.439 6  -5748681.49621
 91  4  7 22 38 44.9950000  0  6G18G 2G11G16G19G 6
  21727791.1084    6601928.89546   5144327.05961
  19846299.163   -23881563.958 7 -18308512.57522
  21774707.0464  -14940757.32646 -11642110.11961
  22657971.0074   -4748251.36444  -3005059.39061
  19773169.608    -7961528.210 7  -6203786.14223
  21512519.585   -10876964.330 6  -5785656.14121
 91  4  7 22 38 59.9950000  0  6G18G 2G11G16G19G 6
  21734565.5624    6637529.66346   5172067.73161
  19839689.530   -23916294.784 7 -18335575.50822
  21776557.2884  -14931037.33046 -11634536.12861
  22657677.288    -4749797.333 4  -3006264.14821
  19772895.741    -7962951.125 7  -6204894.92623
  21503489.812   -10924419.450 6  -5822634.07521
 91  4  7 22 39 14.9950000  0  6G18G 2G11G16G19G 6
  21741350.085     6673173.997 6   5199842.36621
  19833093.905   -23950957.120 7 -18362585.07123
  21778432.6324  -14921186.23346 -11626859.97761
  22657402.3904   -4751241.24244
  19772638.054    -7964314.238 7
  21494457.3984  -10971875.71146  -5859612.89261
 91  4  7 22 39 29.9950000  0  6G18G 2G11G16G19G 6
  21748140.952     6708866.798 6   5227654.77121
  19826511.718   -23985545.389 7 -18389536.91622
  21780332.9054  -14911198.94446 -11619077.71061
  22657147.265    -4752578.436 4
  19772393.593    -7965612.217 7
  21485427.8194  -11019327.62846  -5896588.33661
 91  4  7 22 39 44.9950000  0  6G18G 2G11G16G19G 6
  21754942.351     6744597.252 6   5255496.50221
  19819941.757   -24020070.573 7 -18416439.60623
  21782256.671   -14901086.522 6 -11611197.92921
  22656909.2884   -4753819.62644
  19772154.960    -7966855.811 7
  21476397.273   -11066785.888 6  -5933568.71421
 91  4  7 22 39 59.9950000  0  6G18G 2G11G16G19G 6
  21761749.0234    6780369.66546   5283370.96161
  19813384.733   -24054528.153 7 -18443289.62123
  21784205.093   -14890844.524 6 -11603217.17921
  22656694.5544   -4754960.38144
  19771929.007    -7968040.295 7  -6208860.59522
  21467367.358   -11114245.895 6  -5970550.46121
 91  4  7 22 40 14.9950000  0  6G18G 2G11G16G19G 6
  21768564.5154    6816187.27646   5311280.60361
  19806840.421   -24088914.641 7 -18470084.23923
  21786180.179   -14880469.780 6 -11595132.98621
  22656496.5154   -4755997.73044
  19771716.780    -7969162.234 7  -6209734.85422
  21458334.7494  -11161704.16846  -6007530.84061
 91  4  7 22 40 29.9950000  0  6G18G 2G11G16G19G 6
  21775388.921     6852046.956 6   5339223.03721
  19800310.421   -24123232.628 7 -18496825.47823
  21788179.718   -14869965.284 6 -11586947.68321
  22656323.3354   -4756934.32144
  19771513.765    -7970224.081 7  -6210562.28922
  21449303.898   -11209163.296 6  -6044511.90121
 91  4  7 22 40 44.9950000  0  6G18G 2G11G16G19G 6
  21782219.7734    6887946.75446   5367196.73361
  19793791.890   -24157484.032 7 -18523514.83823
  21790201.983   -14859332.908 6 -11578662.73721
  22656160.8434   -4757772.46944
  19771324.476    -7971227.450 7  -6211344.15522
  21440271.1794  -11256624.98246  -6081494.95661
 91  4  7 22 40 59.9950000  0  6G18G 2G11G16G19G 6
  21789061.8664    6923893.15346   5395206.72861
  19787289.554   -24191662.035 7 -18550147.00123
  21792250.7964  -14848566.07746 -11570273.02961
  22656023.8744   -4758505.28044        -0.33171
  19771143.319    -7972165.471 7  -6212075.10322
  21431240.296   -11304082.235 6  -6118474.54521
 91  4  7 22 41 14.9950000  0  6G18G 2G11G16G19G 6
  21795909.124     6959882.348 6   5423250.09721
  19780798.335   -24225770.419 7 -18576724.91323
  21794325.8194  -14837668.61346 -11561781.53261
  22655901.8274   -4759136.94244      -492.61561
  19770978.343    -7973041.573 7  -6212757.79622
  21422211.898   -11351538.737 6  -6155453.55521
 91  4  7 22 41 29.9950000  0  5G18G 2G11G19G 6
  21802765.398     6995906.586 6   5451320.73221
  19774320.030   -24259816.655 7 -18603254.39523
  21796421.1714  -14826648.19546 -11553194.22161
  19770823.968    -7973863.265 7  -6213398.09722
  21413176.796   -11399001.840 6  -6192437.70321
 91  4  7 22 41 44.9950000  0  5G18G 2G11G19G 6
  21809627.835     7031972.262 6   5479423.69021
  19767852.601   -24293793.921 7 -18629730.14023
  21798544.3664  -14815498.21946 -11544505.96761
  19770678.546    -7974623.755 7  -6213990.71022
  21404145.944   -11446464.790 6  -6229421.73721
 91  4  7 22 41 59.9950000  0  5G18G 2G11G19G 6
  21816497.9914    7068073.76845   5507554.56161
  19761399.804   -24327707.361 7 -18656156.14623
  21800690.1634  -14804224.16746 -11535721.01561
  19770542.483    -7975328.079 7  -6214539.55222
  21395114.3274  -11493932.44846  -6266409.43061
 91  4  7 22 42 14.9950000  0  5G18G 2G11G19G 6
  21823374.9444    7104219.07346   5535719.53661
  19754960.819   -24361549.360 7 -18682526.48623
  21802858.944   -14792818.544 6 -11526833.54121
  19770422.562    -7975968.130 7  -6215038.30822
  21386081.054   -11541397.170 6  -6303394.85221
 91  4  7 22 42 29.9950000  0  5G18G 2G11G19G 6
  21830260.812     7140407.718 5   5563918.32621
  19748532.679   -24395319.725 7 -18708841.00823
  21805055.1164  -14781281.29146 -11517843.51261
  19770312.116    -7976543.685 7  -6215486.80922
  21377049.1484  -11588858.59846  -6340377.69461
 91  4  7 22 42 44.9950000  0  5G18G 2G11G19G 6
  21837156.015     7176637.479 5   5592149.10921
  19742120.976   -24429020.355 7 -18735101.18823
  21807275.452   -14769614.506 6 -11508752.53421
  19770214.101    -7977056.689 7  -6215886.56922
  21368017.616   -11636318.695 6  -6377359.49921
 91  4  7 22 42 59.9950000  0  5G18G 2G11G19G 6
  21844060.233     7212904.451 6   5620408.90721
  19735720.530   -24462654.997 7 -18761309.95523
  21809519.757   -14757822.245 6 -11499563.77921
  19770125.530    -7977510.742 7  -6216240.39122
  21358987.171   -11683781.139 6  -6414343.13221
 91  4  7 22 43 14.9940000  0  5G18G 2G11G19G 6
  21850967.1904    7249209.99845   5648698.77461
  19729333.635   -24496217.475 7 -18787462.49423
  21811787.658   -14745901.585 6 -11490274.99721
  19770053.525    -7977901.917 7  -6216545.21522
  21349955.2524  -11731238.68046  -6451322.95061
 91  4  7 22 43 29.9940000  0  5G18G 2G11G19G 6
  21857883.674     7285557.876 5   5677021.59921
  19722959.252   -24529713.161 7 -18813562.97823
  21814081.791   -14733851.810 6 -11480885.58821
  19769990.690    -7978230.804 7  -6216801.51022
  21340924.229   -11778698.276 6  -6488304.38321
 91  4  7 22 43 44.9940000  0  5G18G 2G11G19G 6
  21864810.2914    7321949.28545   5705378.36661
  19716599.346   -24563135.848 7 -18839606.58722
  21816398.5494  -14721670.00346 -11471393.30061
  19769942.096    -7978493.291 7  -6217006.05922
  21331893.9164  -11826152.71446  -6525281.76561
 91  4  7 22 43 59.9940000  0  5G18G 2G11G19G 6
  21871742.369     7358388.306 5   5733772.21921
  19710253.549   -24596481.316 7 -18865590.02422
  21818744.0184  -14709352.25346 -11461795.08861
  19769905.752    -7978684.862 7  -6217155.34722
  21322865.986   -11873597.770 6  -6562251.86621
 91  4  7 22 44 14.9940000  0  5G18G 2G11G19G 6
  21878684.6434    7394863.68545   5762194.39961
  19703921.197   -24629760.277 7 -18891521.63423
  21821110.791   -14696909.563 6 -11452099.52421
  19769880.518    -7978816.390 7
  21313836.721   -11921044.146 6  -6599222.97721
 91  4  7 22 44 29.9940000  0  5G18G 2G11G19G 6
  21885633.8694    7431382.69245   5790650.59861
  19697602.525   -24662965.402 7 -18917395.71423
  21823504.4554  -14684334.76046 -11442301.01361
  19769866.525    -7978880.289 7
  21304808.854   -11968484.304 6  -6636189.25521
 91  4  7 22 44 44.9940000  0  5G18G 2G11G19G 6
  21892589.8614    7467940.09545   5819136.67661
  19691296.940   -24696101.800 7 -18943216.23823
  21825920.8224  -14671633.16846 -11432403.70461
  19769867.205    -7978881.674 7
  21295782.9324  -12015923.22846  -6673154.55961
 91  4  7 22 44 59.9940000  0  5G18G 2G11G19G 6
  21899553.604     7504526.422 5   5847645.32021
  19685002.135   -24729178.686 7 -18968990.38823
  21828361.2604  -14658814.15746 -11422414.90061
  19769876.471    -7978829.536 7
  21286752.1904  -12063369.97546  -6710125.97061
 91  4  7 22 45 14.9940000  0  5G18G 2G11G19G 6
  21906521.7294    7541152.28945   5876184.78961
  19678721.565   -24762185.037 7 -18994709.57622
  21830823.1744  -14645866.89546 -11412326.15261
  19769899.815    -7978712.820 7
  21277723.369   -12110813.437 6  -6747094.82021
 91  4  7 22 45 29.9940000  0  5G18G 2G11G19G 6
  21913502.9084    7577821.32245   5904757.84961
  19672454.986   -24795117.004 7 -19020370.80223
  21833313.5024  -14632787.68546 -11402134.60461
  19769935.088    -7978527.314 7
  21268698.596   -12158249.559 6  -6784057.95021
 91  4  7 22 45 44.9940000  0  5G18G 2G11G19G 6
  21920487.213     7614533.972 6   5933364.93821
  19666201.252   -24827974.250 7 -19045973.80523
  21835826.8304  -14619576.40346 -11391840.13861
  19769983.697    -7978272.730 7
  21259671.916   -12205678.023 6  -6821015.11421
 91  4  7 22 45 59.9940000  0  5G18G 2G11G19G 6
  21927481.9864    7651286.33045   5962002.96061
  19659963.424   -24860760.049 7 -19071521.13223
  21838365.2444  -14606236.60046 -11381445.52061
  19770042.455    -7977952.309 7  -6216584.65122
  21250646.7054  -12253101.98046  -6857968.76761
 91  4  7 22 46 14.9940000  0  5G18G 2G11G19G 6
  21934482.072     7688071.328 5   5990666.38621
  19653736.518   -24893481.331 7 -19097018.19023
  21840925.9864  -14592775.46946 -11370956.35661
  19770115.2294   -7977572.76847  -6216288.91862
  21241621.682   -12300528.257 6  -6894924.23021
 91  4  7 22 46 29.9940000  0  5G18G 2G11G19G 6
  21941488.2754    7724895.52545   6019360.39461
  19647522.674   -24926131.417 7 -19122459.77323
  21843512.674   -14579186.403 6 -11360367.50421
  19770200.119    -7977127.234 7  -6215941.76122
  21232598.6584  -12347949.93746  -6931876.10261
 91  4  7 22 46 44.9940000  0  5G18G 2G11G19G 6
  21948502.2524    7761750.05845   6048078.01161
  19641321.611   -24958719.010 7 -19147852.65823
  21846120.963   -14565478.386 6 -11349685.97821
  19770298.010    -7976624.359 7  -6215549.92922
  21223574.479   -12395375.741 6  -6968831.19821
 91  4  7 22 46 59.9940000  0  5G18G 2G11G19G 6
  21955522.6664    7798638.81846   6076822.31261
  19635132.705   -24991239.594 7 -19173193.32923
  21848754.7214  -14551647.02246 -11338908.32961
  19770404.830    -7976059.234 7  -6215109.58522
  21214549.6904  -12442800.92146  -7005785.81061
 91  4  7 22 47 14.9940000  0  5G18G 2G11G19G 6
  21962549.4404    7835559.85345   6105591.77261
  19628957.440   -25023695.302 7 -19198483.44323
  21851408.0804  -14537694.64846 -11328036.38361
  19770523.799    -7975433.907 7  -6214622.32822
  21205523.955   -12490227.364 6  -7042741.39421
 91  4  7 22 47 29.9940000  0  5G18G 2G11G19G 6
  21969581.5104    7872516.28145   6134388.78161
  19622794.502   -25056082.564 7 -19223720.22723
  21854088.658   -14523617.993 6 -11317067.58921
  19770653.768    -7974744.822 7  -6214085.39522
  21196499.744   -12537651.605 6  -7079695.27921
 91  4  7 22 47 44.9940000  0  5G18G 2G11G19G 6
  21976620.268     7909506.697 6   6163212.28221
  19616642.979   -25088402.689 7 -19248904.69423
  21856787.9004  -14509418.62646 -11306003.17761
  19770798.322    -7973993.144 7  -6213499.68822
  21187474.283   -12585074.713 6  -7116648.26921
 91  4  7 22 47 59.9940000  0  5G18G 2G11G19G 6
  21983664.588     7946523.453 5   6192056.32721
  19610504.8464  -25120662.79047 -19274042.39563
  21859513.1274  -14495103.92646 -11294848.91061
  19770951.565    -7973186.062 7  -6212870.81422
  21178449.643   -12632503.926 6  -7153606.02421
 91  4  7 22 48 14.9940000  0  5G18G 2G11G19G 6
  21990715.0184    7983577.32645   6220929.24861
  19604379.0574  -25152852.06947 -19299124.90563
  21862260.7834  -14480663.09546 -11283596.34661
  19771117.799    -7972312.381 7  -6212190.03722
  21169425.315   -12679928.076 6  -7190559.83921
 91  4  7 22 48 29.9940000  0  5G18G 2G11G19G 6
  21997771.791     8020661.217 5   6249825.59921
  19598265.940   -25184977.140 7 -19324157.38723
  21865033.2754  -14466103.05546 -11272250.90561
  19771293.838    -7971378.540 7  -6211462.38622
  21160399.8544  -12727353.64846  -7227514.76361
 91  4  7 22 48 44.9940000  0  5G18G 2G11G19G 6
  22004836.447     8057782.588 5   6278751.14821
  19592166.3694  -25217030.42647 -19349133.93063
  21867827.971   -14451416.600 6 -11260806.93821
  19771485.072    -7970377.135 7  -6210682.09022
  21151375.971   -12774773.196 6  -7264464.98421
 91  4  7 22 48 59.9940000  0  5G18G 2G11G19G 6
  22011905.807     8094932.996 5   6307699.30621
  19586078.596   -25249020.017 7 -19374060.84123
  21870644.588   -14436611.939 6 -11249270.88421
  19771688.393    -7969316.126 7  -6209855.34522
  21142351.955   -12822194.572 6  -7301416.64521
 91  4  7 22 49 14.9940000  0  5G18G 2G11G19G 6
  22018981.1504    8132111.15945   6336669.11361
  19580003.2054  -25280947.20947 -19398939.13263
  21873482.9004  -14421690.59346 -11237643.89661
  19771901.838    -7968196.440 7  -6208982.88322
  21133329.1114  -12869618.88146  -7338370.58261
 91  4  7 22 49 29.9940000  0  5G18G 2G11G19G 6
  22026061.1744    8169318.63445   6365661.74561
  19573940.041   -25312810.037 7 -19423767.27023
  21876345.385   -14406650.761 6 -11225924.59021
  19772127.846    -7967016.065 6  -6208063.12423
  21124301.9944  -12917044.00846  -7375325.15661
 91  4  7 22 49 44.9940000  0  5G18G 2G11G19G 6
  22033146.3774    8206552.09745   6394674.62061
  19567889.705   -25344611.584 7 -19448547.65223
  21879229.8224  -14391495.75846 -11214115.53361
  19772362.127    -7965777.883 7  -6207098.32422
  21115278.104   -12964472.955 6  -7412282.70721
 91  4  7 22 49 59.9940000  0  5G18G 2G11G19G 6
  22040239.354     8243816.125 5   6423711.33921
  19561849.4474  -25376347.14347 -19473276.62263
  21882137.1354  -14376221.14046 -11202213.26961
  19772606.502    -7964477.145 7  -6206084.78723
  21106252.4554  -13011900.83046  -7449239.43261
 91  4  7 22 50 14.9940000  0  5G18G 2G11G19G 6
  22047336.3384    8281117.41745   6452777.08061
  19555824.346   -25408009.689 7 -19497948.69123
  21885067.6904  -14360820.13746 -11190212.52661
  19772868.635    -7963106.791 7  -6205016.99623
  21097227.979   -13059320.580 6  -7486189.81121
 91  4  7 22 50 29.9940000  0  5G18G 2G11G19G 6
  22054441.1904    8318448.79345   6481866.23861
  19549810.9944  -25439606.46847 -19522569.52063
  21888019.6354  -14345299.98046 -11178118.93061
  19773142.447    -7961673.572 6  -6203900.22023
  21088204.510   -13106739.068 6  -7523139.21821
 91  4  7 22 50 44.9940000  0  5G18G 2G11G19G 6
  22061550.611     8355806.129 5   6510975.65221
  19543810.900   -25471141.321 7 -19547142.09323
  21890994.822   -14329664.767 6 -11165935.68021
  19773425.861    -7960181.355 7  -6202737.47223
  21079180.5494  -13154160.09746  -7560090.60261
 91  4  7 22 50 59.9940000  0  5G18G 2G11G19G 6
  22068666.080     8393192.346 5   6540107.58021
  19537822.0724  -25502610.78447 -19571663.70963
  21893993.908   -14313911.354 6 -11153660.33921
  19773718.447    -7958626.614 7  -6201526.00623
  21070157.2054  -13201580.00646  -7597041.11761
 91  4  7 22 51 14.9940000  0  5G18G 2G11G19G 6
  22075783.643     8430613.579 5   6569266.75621
  19531846.9864  -25534008.49147 -19596129.41663
  21897015.760   -14298033.760 6 -11141288.22821
  19774031.486    -7957002.904 6  -6200260.79823
  21061135.4324  -13248992.66346  -7633985.97961
 91  4  7 22 51 29.9940000  0  5G18G 2G11G19G 6
  22082911.2914    8468062.80545   6598447.79161
  19525885.1354  -25565341.35547 -19620544.59363
  21900059.611   -14282038.963 6 -11128824.79721
  19774348.361    -7955316.904 7  -6198947.05623
  21052111.7134  -13296404.64246  -7670930.31461
 91  4  7 22 51 44.9940000  0  5G18G 2G11G19G 6
  22090043.4244    8505537.91745   6627648.97761
  19519934.0254  -25596611.42747 -19644910.84463
  21903124.8304  -14265929.11746 -11116271.71161
  19774683.588    -7953570.673 6  -6197586.38622
  21043089.7134  -13343817.65946  -7707875.45161
 91  4  7 22 51 59.9940000  0  5G18G 2G11G19G 6
  22097181.0104    8543040.59745   6656871.62561
  19513996.643   -25627816.547 7 -19669226.48123
  21906211.049   -14249702.338 6 -11103627.51221
  19775029.393    -7951762.012 6  -6196177.06623
  21034066.682   -13391229.691 6  -7744819.82221
 91  4  7 22 52 14.9940000  0  5G18G 2G11G19G 6
  22104322.963     8580566.923 5   6686112.71421
  19508070.4634  -25658960.24447 -19693494.25963
  21909322.2604  -14233362.41646 -11090895.15061
  19775384.877    -7949893.970 7  -6194721.47523
  21025043.1354  -13438643.93046  -7781765.90961
 91  4  7 22 52 29.9940000  0  5G18G 2G11G19G 6
  22111469.916     8618121.744 5   6715376.00521
  19502155.1114  -25690037.74747 -19717710.45563
  21912453.7524  -14216904.77746 -11078071.04661
  19775749.135    -7947961.790 7  -6193215.90423
  21016023.705   -13486055.562 6  -7818709.96721
 91  4  7 22 52 44.9940000  0  5G18G 2G11G19G 6
  22118619.143     8655700.164 5   6744657.67321
  19496253.7294  -25721053.67847 -19741878.67563
  21915607.3614  -14200334.32546 -11065159.06961
  19776131.0804   -7945969.98946  -6191663.88263
  21006999.9244  -13533468.91346  -7855655.36661
 91  4  7 22 52 59.9940000  0  5G18G 2G11G19G 6
  22125776.7914    8693308.53345   6773962.68661
  19490364.2994  -25752001.18047 -19765993.57263
  21918783.2364  -14183644.59146 -11052154.11961
  19776522.0724   -7943911.63946  -6190059.99963
  20997977.7054  -13580877.21946  -7892596.83661
 91  4  7 22 53 14.9940000  0  5G18G 2G11G19G 6
  22132937.9084    8730938.60845   6803284.61461
  19484487.1434  -25782888.63548 -19790061.67863
  21921979.807   -14166844.013 6 -11039062.80021
  19776925.9554   -7941794.96246  -6188410.67063
  20988956.158   -13628288.495 6  -7929540.61121
 91  4  7 22 53 29.9940000  0  5G18G 2G11G19G 6
  22140100.3614    8768587.63945   6832621.32761
  19478619.9944  -25813718.49447 -19814084.90963
  21925197.5184  -14149935.34046 -11025887.25161
  19777338.025    -7939622.321 7  -6186717.73023
  20979932.8464  -13675705.35046  -7966488.75161
 91  4  7 22 53 44.9940000  0  5G18G 2G11G19G 6
  22147273.6824    8806262.90545   6861978.44261
  19472765.494   -25844483.033 7 -19838057.23723
  21928438.6354  -14132910.86646 -11012621.47061
  19777764.0884   -7937385.71847  -6184974.95463
  20970910.4004  -13723119.63146  -8003434.87361
 91  4  7 22 53 59.9940000  0  5G18G 2G11G19G 6
  22154445.7134    8843964.06045   6891355.79161
  19466923.8464  -25875182.49747 -19861978.86063
  21931699.775   -14115771.203 6 -10999265.94021
  19778203.4864   -7935085.40546  -6183182.53263
  20961888.650   -13770531.502 6  -8040379.11121
 91  4  7 22 54 14.9940000  0  5G18G 2G11G19G 6
  22161627.400     8881695.275 5   6920756.50321
  19461095.4714  -25905812.43147 -19885846.30463
  21934983.940   -14098512.034 6 -10985817.28421
  19778653.2294   -7932716.79346  -6181336.89663
  20952867.3774  -13817936.34646  -8077317.88361
 91  4  7 22 54 29.9940000  0  5G18G 2G11G19G 6
  22168811.6044    8919452.00045   6950177.11461
  19455278.2054  -25936376.96747 -19909662.78663
  21938290.3614  -14081137.84746 -10972278.99361
  19779114.0654   -7930283.83646  -6179441.11863
  20943847.6434  -13865338.23046  -8114254.34161
 91  4  7 22 54 44.9940000  0  5G18G 2G11G19G 6
  22176000.1904    8957234.09445   6979617.50061
  19449474.5184  -25966876.19247 -19933428.38263
  21941618.0884  -14063649.06146 -10958651.41061
  19779590.0964   -7927786.57046  -6177495.22963
  20934827.8614  -13912737.13546  -8151188.47961
 91  4  7 22 54 59.9940000  0  5G18G 2G11G19G 6
  22183195.9864    8995037.24345   7009074.29661
  19443683.4794  -25997314.44247 -19957146.45863
  21944965.166   -14046050.070 6 -10944937.95121
  19780077.1194   -7925229.03846  -6175502.37863
  20925807.783   -13960137.060 6  -8188123.41721
 91  4  7 22 55 14.9940000  0  5G18G 2G11G19G 6
  22190395.283     9032870.177 5   7038554.27521
  19437903.7524  -26027682.74947 -19980810.03163
  21948337.025   -14028332.251 6 -10931131.91521
  19780577.4634   -7922602.11246  -6173455.45763
  20916788.658   -14007528.996 6  -8225052.12021
 91  4  7 22 55 29.9940000  0  5G18G 2G11G19G 6
  22197600.135     9070732.497 5   7068057.17221
  19432138.1744  -26057980.91847 -20004418.96363
  21951732.018   -14010495.716 6 -10917233.35721
  19781087.9634   -7919905.69347  -6171354.37963
  20907771.619   -14054912.614 6  -8261974.34621
 91  4  7 22 55 44.9940000  0  5G18G 2G11G19G 6
  22204809.330     9108621.053 5   7097580.53621
  19426385.8154  -26088211.86947 -20027975.51063
  21955148.6974  -13992543.73546 -10903244.83861
  19781616.0334   -7917142.61046  -6169201.35863
  20898757.322   -14102290.867 6  -8298892.38421
 91  4  7 22 55 59.9940000  0  5G18G 2G11G19G 6
  22212024.0724    9146533.35145   7127122.36161
  19420646.1744  -26118377.91047 -20051481.48263
  21958586.744   -13974478.609 6 -10889168.16721
  19782153.7524   -7914314.89746  -6166997.97163
  20889741.2604  -14149665.70246  -8335807.76161
 91  4  7 22 56 14.9940000  0  5G18G 2G11G19G 6
  22219244.830     9184473.426 5   7156685.83621
  19414918.0104  -26148475.06047 -20074933.76963
  21962045.729   -13956296.718 6 -10875000.50321
  19782705.4714   -7911418.47746  -6164741.05063
  20880727.9404  -14197033.07846  -8372717.32861
 91  4  7 22 56 29.9940000  0  5G18G 2G11G19G 6
  22226467.916     9222438.727 5   7186268.95621
  19409202.9474  -26178505.70247 -20098334.23163
  21965527.979   -13938000.294 6 -10860743.59021
  19783268.7994   -7908455.34046  -6162432.13863
  20871714.643   -14244394.980 6  -8409622.62821
 91  4  7 22 56 44.9940000  0  5G18G 2G11G19G 6
  22233695.900     9260431.493 5   7215873.51121
  19403501.0724  -26208466.84647 -20121680.54063
  21969030.447   -13919586.932 6 -10846395.56421
  19783846.0654   -7905422.76546  -6160069.12662
  20862703.182   -14291748.438 6  -8446521.35321
 91  4  7 22 56 59.9940000  0  5G18G 2G11G19G 6
  22240929.9324    9298447.68745   7245496.28161
  19397811.6114  -26238362.46347 -20144975.79363
  21972556.541   -13901060.873 6 -10831959.71421
  19784435.0804   -7902324.38447  -6157654.83963
  20853692.096   -14339097.278 6  -8483416.47421
 91  4  7 22 57 14.9940000  0  5G18G 2G11G19G 6
  22248171.3074    9336487.15245   7275137.20861
  19392136.1584  -26268192.43247 -20168219.88763
  21976103.486   -13882421.926 6 -10817435.89821
  19785038.1824   -7899159.89846  -6155189.03962
  20844684.619   -14386441.042 6  -8520307.64321
 91  4  7 22 57 29.9940000  0  5G18G 2G11G19G 6
  22255414.822     9374549.281 5   7304795.78621
  19386472.6194  -26297957.18847 -20191413.16663
  21979673.025   -13863670.991 6 -10802824.82721
  19785652.3614   -7895929.78347  -6152672.09563
  20835675.768   -14433780.139 6  -8557195.16721
 91  4  7 22 57 44.9940000  0  5G18G 2G11G19G 6
  22262662.5574    9412637.87045   7334475.00461
  19380820.9794  -26327653.02847 -20214552.74763
  21983262.6434  -13844804.69146 -10788123.84961
  19786281.2444   -7892630.15246  -6150100.98462
  20826669.494   -14481110.787 6  -8594076.11621
 91  4  7 22 57 59.9940000  0  5G18G 2G11G19G 6
  22269913.971     9450750.034 5   7364172.55521
  19375182.6584  -26357282.41147 -20237640.53963
  21986874.338   -13825825.608 6 -10773335.00021
  19786922.0804   -7889263.27246  -6147477.47162
  20817661.565   -14528435.231 6  -8630952.23221
 91  4  7 22 58 14.9940000  0  5G18G 2G11G19G 6
  22277172.9244    9488883.76945   7393886.95761
  19369556.1744  -26386847.34647 -20260678.11063
  21990506.8464  -13806735.87746 -10758459.92361
  19787575.8614   -7885830.99247  -6144802.99662
  20808658.604   -14575755.221 6  -8667824.86821
 91  4  7 22 58 29.9940000  0  5G18G 2G11G19G 6
  22284432.940     9527042.618 5   7423620.89421
  19363944.2914  -26416343.96247 -20283662.45463
  21994160.955   -13787531.984 6 -10743495.89021
  19788239.2604   -7882329.42046  -6142074.52762
  20799655.916   -14623066.774 6  -8704690.93821
 91  4  7 22 58 44.9940000  0  5G18G 2G11G19G 6
  22291698.4794    9565218.30645   7453367.94361
  19358342.3854  -26445779.93647 -20306599.54163
  21997836.2054  -13768221.94446 -10728449.15561
  19788920.088    -7878766.040 6  -6139297.89722
  20790652.713   -14670377.472 6  -8741556.33621
 91  4  7 22 58 59.9940000  0  5G18G 2G11G19G 6
  22298967.3384    9603417.08945   7483133.02961
  19352753.8304  -26475148.88247 -20329484.40163
  22001532.4004  -13748799.62046 -10713314.92061
  19789609.979    -7875134.374 6  -6136468.04922
  20781651.096   -14717680.807 6  -8778416.00621
 91  4  7 22 59 14.9940000  0  5G18G 2G11G19G 6
  22306241.0964    9641634.43845   7512912.55561
  19347176.2444  -26504455.19847 -20352320.45363
  22005248.846   -13729269.503 6 -10698096.69521
  19790314.541    -7871438.593 6  -6133588.24422
  20772649.346   -14764980.871 6  -8815273.12221
 91  4  7 22 59 29.9940000  0  5G18G 2G11G19G 6
  22313519.611     9679875.379 5   7542710.46221
  19341613.0414  -26533693.49247 -20375103.50863
  22008984.4714  -13709626.55246 -10682790.53961
  19791031.5024   -7867673.18446  -6130654.19462
  20763651.869   -14812272.174 6  -8852123.41021
 91  4  7 22 59 44.9940000  0  5G18G 2G11G19G 6
  22320801.471     9718141.167 5   7572527.73721
  19336061.1504  -26562862.54247 -20397832.60463
  22012745.736   -13689869.727 6 -10667395.65021
  19791761.2754   -7863836.89046  -6127664.90362
  20754653.471   -14859553.433 6  -8888965.87721
 91  4  7 22 59 59.9940000  0  5G18G 2G11G19G 6
  22328084.6274    9756424.92045   7602358.97961
  19330522.9864  -26591968.81648 -20420512.78263
  22016525.479   -13670005.809 6 -10651917.32721
  19792501.424    -7859936.084 7  -6124625.33722
  20745656.736   -14906830.782 6  -8925805.29221
 91  4  7 23  0 14.9940000  0  5G18G 2G11G19G 6
  22335374.8224    9794732.44845   7632208.81461
  19324998.3224  -26621006.45348 -20443139.47763
  22020327.752   -13650029.078 6 -10636351.07921
  19793259.5804   -7855964.77247  -6121530.83862
  20736661.838   -14954098.186 6  -8962636.95821
 91  4  7 23  0 29.9940000  0  5G18G 2G11G19G 6
  22342668.7214    9833055.27645   7662070.51861
  19319483.1744  -26649983.55947 -20465719.00663
  22024148.8224  -13629947.91046 -10620703.46161
  19794026.408    -7851930.743 6  -6118387.46722
  20727667.291   -15001363.638 6  -8999467.11021
 91  4  7 23  0 44.9940000  0  5G18G 2G11G19G 6
  22349967.393     9871407.095 5   7691954.81021
  19313983.1904  -26678886.15647 -20488240.47563
  22027992.025   -13609748.649 6 -10604963.81721
  19794807.8224   -7847820.19446  -6115184.46662
  20718675.760   -15048613.108 6  -9036284.80121
 91  4  7 23  0 59.9940000  0  5G18G 2G11G19G 6
  22357267.6744    9909777.80045   7721853.84361
  19308495.4794  -26707724.33147 -20510711.75163
  22031855.7054  -13589441.59246 -10589140.17361
  19795601.729    -7843642.878 7  -6111929.44222
  20709686.260   -15095856.359 6  -9073097.64621
 91  4  7 23  1 14.9940000  0  5G18G 2G11G19G 6
  22364570.0104    9948167.96545   7751768.02961
  19303020.4404  -26736496.89847 -20533131.90463
  22035742.322   -13569025.857 6 -10573231.85421
  19796411.752    -7839397.699 6  -6108621.53822
  20700696.658   -15143092.149 6  -9109904.69421
 91  4  7 23  1 29.9940000  0  5G18G 2G11G19G 6
  22371883.4324    9986579.23045   7781698.63661
  19297558.0254  -26765202.34048 -20555499.75163
  22039647.7134  -13548500.08646 -10557237.78861
  19797233.713    -7835082.900 6  -6105259.38022
  20691709.3854  -15190318.68446  -9146704.51461
 91  4  7 23  1 44.9940000  0  5G18G 2G11G19G 6
  22379197.854    10025014.496 5   7811647.99321
  19292108.9324  -26793837.58048 -20577812.89063
  22043575.1044  -13527861.46846 -10541155.78261
  19798067.5494   -7830695.18346  -6101840.40962
  20682725.3074  -15237532.77346  -9183494.64261
 91  4  7 23  1 59.9940000  0  5G18G 2G11G19G 6
  22386516.6354   10063466.50545   7841610.37961
  19286672.1824  -26822409.51848 -20600076.70563
  22047523.3224  -13507117.04846 -10524991.34061
  19798917.0964   -7826241.23146  -6098369.82662
  20673741.9004  -15284741.06746  -9220280.25761
 91  4  7 23  2 14.9940000  0  5G18G 2G11G19G 6
  22393838.400    10101944.368 5   7871592.88121
  19281247.9944  -26850908.82048 -20622283.92063
  22051492.924   -13486257.821 6 -10508737.44821
  19799777.9864   -7821711.61446  -6094840.28062
  20664760.893   -15331934.039 6  -9257053.92521
 91  4  7 23  2 29.9940000  0  5G18G 2G11G19G 6
  22401163.0804   10140442.53645   7901591.20161
  19275838.1044  -26879340.71448 -20644438.60963
  22055482.791   -13465289.301 6 -10492398.38521
  19800649.9004   -7817111.47547  -6091255.78462
  20655784.2364  -15379116.75946  -9293819.61861
 91  4  7 23  2 44.9940000  0  5G18G 2G11G19G 6
  22408492.486    10178956.689 5   7931602.01121
  19270439.7834  -26907709.31048 -20666543.98163
  22059492.799   -13444215.888 6 -10475977.58121
  19801541.080    -7812445.075 6  -6087619.65422
  20646805.7994  -15426293.23546  -9330580.44461
 91  4  7 23  2 59.9940000  0  5G18G 2G11G19G 6
  22415823.3854   10217485.22445   7961624.01761
  19265052.7834  -26936016.13548 -20688601.21063
  22063523.635   -13423039.198 6 -10459476.31621
  19802441.2994   -7807713.60346  -6083932.82562
  20637829.3774  -15473464.73746  -9367337.39561
 91  4  7 23  3 14.9940000  0  5G18G 2G11G19G 6
  22423161.4794   10256034.36345   7991662.07061
  19259679.3154  -26964254.68248 -20710605.24363
  22067572.986   -13401753.129 6 -10442889.81421
  19803355.5884   -7802910.49346  -6080190.16862
  20628854.971   -15520624.699 6  -9404085.34121
 91  4  7 23  3 29.9940000  0  5G18G 2G11G19G 6
  22430498.338    10294598.710 5   8021711.94321
  19254316.8774  -26992429.98348 -20732559.99263
  22071644.010   -13380363.083 6 -10426222.30121
  19804277.721    -7798040.661 7  -6076395.51622
  20619882.3854  -15567778.11246  -9440828.19761
 91  4  7 23  3 44.9940000  0  5G18G 2G11G19G 6
  22437841.580    10333186.575 5   8051780.15021
  19248969.6664  -27020533.44848 -20754458.75963
  22075735.6974  -13358860.56746 -10409467.15161
  19805222.6904   -7793095.19746  -6072541.93562
  20610911.7914  -15614915.84846  -9477558.83461
 91  4  7 23  3 59.9940000  0  5G18G 2G11G19G 6
  22445187.338    10371786.775 5   8081857.98321
  19243633.4864  -27048576.46748 -20776310.43263
  22079846.861   -13337257.159 6 -10392633.38221
  19806174.690    -7788085.429 6  -6068638.24722
  20601942.4164  -15662049.14346  -9514286.01761
 91  4  7 23  4 14.9940000  0  5G18G 2G11G19G 6
  22452534.877    10410403.837 5   8111948.95621
  19238308.2294  -27076553.97648 -20798111.05863
  22083977.424   -13315548.024 6 -10375717.21421
  19807144.158    -7783006.261 6  -6064680.48222
  20592976.2054  -15709172.83346  -9551005.70761
 91  4  7 23  4 29.9940000  0  5G18G 2G11G19G 6
  22459886.604    10449029.302 5   8142046.47821
  19232996.2134  -27104474.23948 -20819867.07463
  22088126.088   -13293741.614 6 -10358725.25821
  19808123.0884   -7777865.75746  -6060674.92062
  20584008.4714  -15756294.98446  -9587724.20261
 91  4  7 23  4 44.9940000  0  5G18G 2G11G19G 6
  22467241.2914   10487670.38345   8172156.15361
  19227694.5574  -27132329.79048 -20841572.66363
  22092296.557   -13271830.837 6 -10341651.97721
  19809112.9714   -7772656.28946  -6056615.62762
  20575042.8464  -15803408.08646  -9624435.64461
 91  4  7 23  4 59.9940000  0  5G18G 2G11G19G 6
  22474597.229    10526328.607 5   8202279.19921
  19222407.2834  -27160119.12948 -20863226.66163
  22096486.674   -13249814.521 6 -10324496.46021
  19810115.1434   -7767376.41546  -6052501.46462
  20566079.3694  -15850510.28546  -9661138.58761
 91  4  7 23  5 14.9940000  0  5G18G 2G11G19G 6
  22481955.7754   10564998.57345   8232411.37461
  19217130.2054  -27187847.12548 -20884832.85763
  22100695.705   -13227697.689 6 -10307262.60521
  19811134.6744   -7762030.72046  -6048336.01862
  20557118.2294  -15897606.29446  -9697836.71261
 91  4  7 23  5 29.9940000  0  5G18G 2G11G19G 6
  22489317.744    10603686.255 5   8262557.41121
  19211865.9634  -27215507.84448 -20906386.62963
  22104925.8774  -13205474.67046 -10289946.02761
  19812164.5574   -7756613.08646  -6044114.51562
  20548158.1274  -15944689.90646  -9734525.17161
 91  4  7 23  5 44.9940000  0  5G18G 2G11G19G 6
  22496682.033    10642386.679 5   8292713.30121
  19206615.9634  -27243105.89948 -20927891.57363
  22109171.182   -13183150.506 6 -10272550.63321
  19813208.6744   -7751128.03746  -6039840.48762
  20539200.111   -15991765.827 6  -9771207.63821
 91  4  7 23  5 59.9940000  0  5G18G 2G11G19G 6
  22504050.002    10681097.772 5   8322877.58721
  19201373.9554  -27270643.16948 -20949349.15363
  22113438.6904  -13160727.06446 -10255077.87361
  19814263.4864   -7745577.36646  -6035515.32162
  20530243.0024  -16038835.43746  -9807885.19161
 91  4  7 23  6 14.9940000  0  5G18G 2G11G19G 6
  22511420.455    10719824.843 5   8353054.27821
  19196147.2444  -27298114.25848 -20970755.16063
  22117727.471   -13138199.315 6 -10237523.83121
  19815334.5334   -7739955.62446  -6031134.77362
  20521287.7994  -16085893.30046  -9844553.58861
 91  4  7 23  6 29.9940000  0  5G18G 2G11G19G 6
  22518791.408    10758566.186 5   8383242.08921
  19190932.6194  -27325520.35948 -20992110.53363
  22122031.072   -13115568.681 6 -10219889.62421
  19816419.7994   -7734263.92446  -6026699.71262
  20512333.7294  -16132940.51346  -9881213.69061
 91  4  7 23  6 44.9930000  0  5G18G 2G11G19G 6
  22526166.403    10797314.259 5   8413435.13821
  19185729.5604  -27352864.59648 -21013417.69663
  22126358.7864  -13092841.93246 -10202180.52161
  19817513.0604   -7728507.48446  -6022214.20862
  20503385.1304  -16179978.52346  -9917866.61761
 91  4  7 23  6 59.9930000  0  4G 2G11G19G 6
  19180536.4114  -27380150.39048 -21034679.32163
  22130701.357   -13070016.032 6 -10184394.15621
  19818620.0754   -7722685.23146  -6017677.42262
  20494432.927   -16227013.301 6  -9954517.02221
 91  4  7 23  7 14.9930000  0  4G 2G11G19G 6
  19175356.1144  -27407373.56548 -21055892.15263
  22135064.419   -13047090.423 6 -10166530.09121
  19819742.7634   -7716794.94246  -6013087.62662
  20485486.2244  -16274039.07046  -9991160.41761
 91  4  7 23  7 29.9930000  0  4G 2G11G19G 6
  19170187.5914  -27434535.89148 -21077057.56863
  22139446.9034  -13024067.26646 -10148590.00761
  19820874.8884   -7710838.23046  -6008446.07062
  20476538.6694  -16321057.54546 -10027798.11861
 91  4  7 23  7 44.9930000  0  4G 2G11G19G 6
  19165030.7944  -27461631.58648 -21098171.06563
  22143844.7244  -13000940.98446 -10130569.58961
  19822023.6694   -7704809.19746  -6003748.15562
  20467592.7634  -16368062.67446 -10064425.42861
 91  4  7 23  7 59.9930000  0  4G 2G11G19G 6
  19159887.4974  -27488656.42948 -21119229.35563
  22148266.4584  -12977707.52146 -10112465.64261
  19823184.6464   -7698703.54346  -5998990.54362
  20458650.4584  -16415050.02246 -10101038.88361
 91  4  7 23  8 14.9930000  0  4G 2G11G19G 6
  19154758.0604  -27515613.11348 -21140234.53263
  22152708.458   -12954369.931 6 -10094280.55021
  19824360.9194   -7692523.90546  -5994175.27562
  20449711.7634  -16462022.17946 -10137640.49161
 91  4  7 23  8 29.9930000  0  4G 2G11G19G 6
  19149639.3104  -27542512.57748 -21161195.12363
  22157164.1384  -12930939.42046 -10076023.07061
  19825548.505    -7686281.166 6  -5989310.84322
  20440775.6074  -16508989.85146 -10174238.61761
 91  4  7 23  8 44.9930000  0  4G 2G11G19G 6
  19144533.1924  -27569346.73948 -21182104.82963
  22161646.817   -12907408.118 6 -10057687.03621
  19826750.2864   -7679967.13046  -5984390.85362
  20431840.2554  -16555944.78546 -10210826.80461
 91  4  7 23  8 59.9930000  0  4G 2G11G19G 6
  19139438.5914  -27596119.20648 -21202966.46063
  22166141.177   -12883779.833 6 -10039275.43921
  19827965.903    -7673585.105 6  -5979417.88922
  20422905.0524  -16602890.23346 -10247407.59861
 91  4  7 23  9 14.9930000  0  4G 2G11G19G 6
  19134356.4354  -27622827.14348 -21223777.81163
  22170656.5134  -12860052.01746 -10020786.27961
  19829193.482    -7667132.158 6  -5974389.66722
  20413974.5214  -16649823.20946 -10283978.68061
 91  4  7 23  9 29.9930000  0  4G 2G11G19G 6
  19129285.560   -27649477.922 8 -21244544.62423
  22175189.5364  -12836232.27646 -10002225.47661
  19830431.950    -7660615.547 6  -5969311.83422
  20405044.3334  -16696750.95446 -10320545.68961
 91  4  7 23  9 44.9930000  0  4G 2G11G19G 6
  19124225.1614  -27676067.37047 -21265263.64563
  22179739.396   -12812316.673 5  -9983589.99621
  19831686.419    -7654030.826 6  -5964180.92322
  20396115.9114  -16743668.95446 -10357105.10361
 91  4  7 23  9 59.9930000  0  4G 2G11G19G 6
  19119177.013   -27702596.190 7 -21285935.42723
  22184309.763   -12788306.224 6  -9964880.60521
  19832950.5834   -7647378.72646  -5958997.50862
  20387190.2004  -16790577.76046 -10393657.34861
 91  4  7 23 10 14.9930000  0  4G 2G11G19G 6
  19114139.9424  -27729063.76047 -21306559.48063
  22188897.349   -12764200.716 6  -9946097.14321
  19834231.6534   -7640658.63746  -5953761.11162
  20378264.6144  -16837476.64046 -10430201.87061
 91  4  7 23 10 29.9930000  0  4G 2G11G19G 6
  19109115.146   -27755470.549 8 -21327136.17323
  22193502.255   -12740000.849 5  -9927240.16221
  19835523.5444   -7633870.87846  -5948471.99062
  20369343.1464  -16884365.91446 -10466738.90161
 91  4  7 23 10 44.9930000  0  4G 2G11G19G 6
  19104102.732   -27781811.226 8 -21347661.35123
  22198125.3724  -12715701.34145  -9908305.53361
  19836828.5284   -7627009.80846  -5943125.74062
  20360422.4504  -16931239.92346 -10503264.03661
 91  4  7 23 10 59.9930000  0  4G 2G11G19G 6
  19099102.302   -27808086.316 8 -21368135.42223
  22202768.161   -12691302.961 6  -9889293.85921
  19838146.4894   -7620075.88146  -5937722.71962
  20351505.0214  -16978098.93746 -10539777.49261
 91  4  7 23 11 14.9930000  0  4G 2G11G19G 6
  19094113.341   -27834300.881 8 -21388562.33123
  22207428.630   -12666811.181 6  -9870209.40421
  19839481.896    -7613074.047 6  -5932266.78622
  20342590.4114  -17024947.79546 -10576283.03261
 91  4  7 23 11 29.9930000  0  4G 2G11G19G 6
  19089135.880   -27860459.385 8 -21408945.55923
  22212107.021   -12642230.774 6  -9851055.88821
  19840824.247    -7606008.658 6  -5926761.32722
  20333676.5754  -17071790.83546 -10612784.03161
 91  4  7 23 11 44.9930000  0  4G 2G11G19G 6
  19084170.575   -27886559.104 8 -21429282.97823
  22216801.2004  -12617559.22946  -9831831.36761
  19842182.591    -7598876.945 6  -5921204.19422
  20324763.5524  -17118625.19446 -10649278.27661
 91  4  7 23 11 59.9930000  0  4G 2G11G19G 6
  19079214.708   -27912600.534 8 -21449574.97823
  22221513.075   -12592797.387 6  -9812536.47121
  19843551.771    -7591679.577 6  -5915595.89822
  20315853.9824  -17165451.21646 -10685766.01561
 91  4  7 23 12 14.9930000  0  4G 2G11G19G 6
  19074270.208   -27938580.950 7 -21469819.43623
  22226243.732   -12567942.896 6  -9793169.38621
  19844934.6144   -7584413.48646  -5909934.04562
  20306943.6924  -17212265.98146 -10722244.99661
 91  4  7 23 12 29.9930000  0  4G 2G11G19G 6
  19069337.849   -27964494.968 7 -21490012.15423
  22230991.1224  -12542990.50246  -9773726.02261
  19846329.528    -7577072.962 6  -5904214.20122
  20298040.3104  -17259063.80746 -10758710.76861
 91  4  7 23 12 44.9930000  0  4G 2G11G19G 6
  19064418.357   -27990355.206 8 -21510162.96823
  22235754.997   -12517953.052 6  -9754216.38021
  19847739.513    -7569670.741 6  -5898446.27922
  20289134.2324  -17305857.01746 -10795172.94361
 91  4  7 23 12 59.9930000  0  4G 2G11G19G 6
  19059507.872   -28016152.708 7 -21530264.89623
  22240539.450   -12492821.866 6  -9734633.68221
  19849161.1614   -7562197.74546  -5892623.20462
  20280233.6304  -17352636.54646 -10831624.46861
 91  4  7 23 13 14.9930000  0  4G 2G11G19G 6
  19054610.724   -28041892.630 8 -21550321.95623
  22245336.286   -12467602.268 6  -9714982.09521
  19850596.6534   -7554659.01046  -5886748.90362
  20271332.2784  -17399407.25146 -10868069.10361
 91  4  7 23 13 29.9930000  0  4G 2G11G19G 6
  19049724.794   -28067572.777 8 -21570332.43623
  22250155.3414  -12442292.51546  -9695260.26561
  19852040.5284   -7547052.13846  -5880821.50462
  20262434.685   -17446166.730 6 -10904505.00221
 91  4  7 23 13 44.9930000  0  4G 2G11G19G 6
  19044848.724   -28093189.020 8 -21590293.12623
  22254987.310   -12416888.745 6  -9675465.16421
  19853505.8574   -7539372.98446  -5874837.78762
  20253539.0214  -17492910.72446 -10940928.83161
 91  4  7 23 13 59.9930000  0  4G 2G11G19G 6
  19039986.114   -28118744.032 8 -21610206.10023
  22259840.802   -12391393.772 6  -9655599.00921
  19854981.044    -7531624.062 6  -5868799.70922
  20244647.0284  -17539641.64346 -10977342.46461
 91  4  7 23 14 14.9930000  0  4G 2G11G19G 6
  19035133.357   -28144245.424 8 -21630077.29423
  22264706.7864  -12365815.31546  -9635667.78961
  19856466.2394   -7523812.77246  -5862713.02762
  20235755.7324  -17586366.74046 -11013751.57161
 91  4  7 23 14 29.9930000  0  4G 2G11G19G 6
  19030291.958   -28169684.975 8 -21649900.29823
  22269592.763   -12340145.596 6  -9615665.47121
  19857968.1694   -7515930.76946  -5856571.24262
  20226865.3024  -17633077.80246 -11050149.73261
 91  4  7 23 14 44.9930000  0  4G 2G11G19G 6
  19025463.716   -28195068.866 8 -21669679.93123
  22274493.599   -12314391.156 6  -9595597.12721
  19859479.075    -7507984.269 6  -5850379.20522
  20217979.646   -17679780.716 6 -11086541.56021
 91  4  7 23 14 59.9930000  0  4G 2G11G19G 6
  19020643.755   -28220389.439 8 -21689410.22523
  22279412.4354  -12288544.59145  -9575457.00461
  19861001.6074   -7499965.54346  -5844130.88662
  20209095.1144  -17726467.65846 -11122920.93661
 91  4  7 23 15 14.9930000  0  4G 2G11G19G 6
  19015836.864   -28245650.158 8 -21709093.88223
  22284347.1074  -12262609.47245  -9555247.89361
  19862544.396    -7491877.834 6  -5837828.81422
  20200213.6694  -17773141.69146 -11159290.25261
 91  4  7 23 15 29.9930000  0  4G 2G11G19G 6
  19011042.138   -28270845.378 8 -21728726.50123
  22289299.911   -12236580.519 5  -9534965.62621
  19864097.810    -7483715.364 6  -5831468.49122
  20191335.8414  -17819797.01546 -11195644.98161
 91  4  7 23 15 44.9930000  0  4G 2G11G19G 6
  19006258.278   -28295982.458 8 -21748313.81423
  22294270.2864  -12210465.30545  -9514616.17361
  19865663.067    -7475485.275 6  -5825055.47722
  20182459.0674  -17866440.79246 -11231990.72761
 91  4  7 23 15 59.9930000  0  4G 2G11G19G 6
  19001487.028   -28321060.892 8 -21767855.42623
  22299254.2714  -12184263.77245  -9494199.45761
  19867239.028    -7467187.123 6  -5818589.42722
  20173585.0134  -17913072.34346 -11268326.93161
 91  4  7 23 16 14.9930000  0  4G 2G11G19G 6
  18996724.669   -28346084.831 8 -21787354.58123
  22304255.9824  -12157980.13145  -9473718.76461
  19868833.474    -7458824.751 6  -5812073.33722
  20164712.3024  -17959695.58546 -11304656.67161
 91  4  7 23 16 29.9930000  0  4G 2G11G19G 6
  18991974.153   -28371047.411 8 -21806805.91823
  22309274.1694  -12131607.99545  -9453169.11261
  19870436.6464   -7450391.42946  -5805501.96162
  20155844.1384  -18006303.49946 -11340974.46361
 91  4  7 23 16 44.9930000  0  4G 2G11G19G 6
  18987234.825   -28395949.549 8 -21826210.16023
  22314310.3724  -12105148.56445  -9432551.43261
  19872056.567    -7441888.002 6  -5798875.96222
  20146976.396   -18052896.769 6 -11377280.85121
 91  4  7 23 16 59.9930000  0  4G 2G11G19G 6
  18982508.364   -28420792.671 8 -21845568.41223
  22319362.091   -12078603.415 5  -9411866.94721
  19873690.380    -7433315.702 6  -5792196.29922
  20138112.0444  -18099476.63446 -11413576.78661
 91  4  7 23 17 14.9930000  0  4G 2G11G19G 6
  18977792.903   -28445574.574 8 -21864878.97423
  22324430.1074  -12051970.43745  -9391114.03961
  19875333.013    -7424672.032 6  -5785461.01322
  20129251.2864  -18146040.33346 -11449860.13061
 91  4  7 23 17 29.9930000  0  4G 2G11G19G 6
  18973087.380   -28470299.917 8 -21884145.44923
  22329513.169   -12025254.837 5  -9370296.73521
  19876989.0754   -7415961.65446  -5778673.74462
  20120393.3334  -18192592.62546 -11486134.58161
 91  4  7 23 17 44.9930000  0  4G 2G11G19G 6
  18968394.013   -28494960.679 8 -21903361.60623
  22334614.130   -11998448.904 6  -9349409.06221
  19878662.567    -7407176.529 6  -5771828.23822
  20111539.841   -18239125.261 6 -11522393.71921
 91  4  7 23 17 59.9930000  0  4G 2G11G19G 6
  18963713.778   -28519563.709 8 -21922532.77323
  22339731.747   -11971559.621 6  -9328456.43421
  19880345.8494   -7398323.46946  -5764929.78762
  20102686.6384  -18285644.71446 -11558642.58261
 91  4  7 23 18 14.9930000  0  4G 2G11G19G 6
  18959041.646   -28544107.559 8 -21941657.83023
  22344864.8024  -11944585.65945  -9307437.78461
  19882043.732    -7389400.717 6  -5757977.04522
  20093836.208   -18332149.148 6 -11594879.74721
 91  4  7 23 18 29.9930000  0  4G 2G11G19G 6
  18954383.169   -28568590.352 8 -21960735.30823
  22350013.833   -11917525.536 5  -9286352.04821
  19883756.107    -7380406.545 6  -5750968.64622
  20084990.5834  -18378636.77946 -11631103.81261
 91  4  7 23 18 44.9930000  0  4G 2G11G19G 6
  18949735.536   -28593016.105 8 -21979768.34123
  22355179.6384  -11890383.79445  -9265202.69661
  19885481.653    -7371344.848 6  -5743907.62922
  20076147.4034  -18425111.39546 -11667317.74061
 91  4  7 23 18 59.9930000  0  4G 2G11G19G 6
  18945097.935   -28617381.547 8 -21998754.37623
  22360360.896   -11863157.256 6  -9243987.26421
  19887221.208    -7362212.106 6  -5736791.24722
  20067306.2244  -18471569.46146 -11703518.77361
 91  4  7 23 19 14.9930000  0  4G 2G11G19G 6
  18940473.560   -28641686.285 8 -22017693.11423
  22365558.450   -11835845.759 5  -9222705.63121
  19888969.146    -7353007.751 6  -5729619.06922
  20058468.6924  -18518010.29646 -11739706.38261
 91  4  7 23 19 29.9930000  0  4G 2G11G19G 6
  18935860.552   -28665924.641 8 -22036580.11723
  22370772.1304  -11808443.81245  -9201353.52661
  19890735.4114   -7343725.87246  -5722386.46762
  20049635.9354  -18564427.87246 -11775875.85661
 91  4  7 23 19 44.9930000  0  4G 2G11G19G 6
  18931259.341   -28690103.183 8 -22055420.51523
  22376003.7714  -11780958.40646  -9179936.38761
  19892515.286    -7334373.137 6  -5715098.67022
  20040805.4424  -18610828.59146 -11812032.19661
 91  4  7 23 19 59.9930000  0  4G 2G11G19G 6
  18926669.950   -28714221.845 8 -22074214.25423
  22381248.028   -11753389.678 6  -9158454.32621
  19894308.372    -7324949.307 6  -5707755.46522
  20031979.5834  -18657212.14146 -11848175.16261
 91  4  7 23 20 14.9930000  0  4G 2G11G19G 6
  18922091.325   -28738284.348 8 -22092964.23523
  22386510.755   -11725741.756 6  -9136910.53821
  19896116.4824   -7315458.22746  -5700359.86462
  20023154.2084  -18703582.10946 -11884307.54561
 91  4  7 23 20 29.9930000  0  4G 2G11G19G 6
  18917523.614   -28762286.908 8 -22111667.50623
  22391785.935   -11698010.980 5  -9115302.22121
  19897934.1774   -7305895.79546  -5692908.65762
  20014334.6304  -18749934.34246 -11920426.10661
 91  4  7 23 20 44.9930000  0  4G 2G11G19G 6
  18912968.130   -28786225.633 8 -22130321.03723
  22397079.591   -11670194.061 5  -9093626.75521
  19899770.083    -7296258.194 6  -5685398.87422
  20005517.8494  -18796265.05846 -11956527.90261
 91  4  7 23 20 59.9930000  0  4G 2G11G19G 6
  18908423.739   -28810108.412 8 -22148930.97323
  22402385.857   -11642298.977 5  -9071890.40421
  19901616.185    -7286553.099 6  -5677836.51622
  19996704.7554  -18842581.54546 -11992618.60961
 91  4  7 23 21 14.9930000  0  4G 2G11G19G 6
  18903890.060   -28833933.683 8 -22167496.09323
  22407711.982   -11614324.281 5  -9050092.02921
  19903476.583    -7276778.817 6  -5670220.23822
  19987893.3964  -18888882.12046 -12028696.92261
 91  4  7 23 21 29.9930000  0  4G 2G11G19G 6
  18899368.208   -28857694.507 8 -22186011.00123
  22413053.513   -11586263.493 5  -9028226.53321
  19905351.0914   -7266928.38646  -5662544.62062
  19979087.0674  -18935159.57446 -12064757.20861
 91  4  7 23 21 44.9930000  0  4G 2G11G19G 6
  18894858.130   -28881396.111 8 -22204479.75923
  22418409.0054  -11558122.03345  -9006298.18961
  19907238.388    -7257006.857 6  -5654813.59922
  19970284.2244  -18981418.85646 -12100803.33761
 91  4  7 23 21 59.9930000  0  4G 2G11G19G 6
  18890359.028   -28905036.689 8 -22222900.96523
  22423778.903   -11529898.499 5  -8984305.89121
  19909139.349    -7247012.434 6  -5647025.78422
  19961485.310   -19027658.157 6 -12136833.90721
 91  4  7 23 22 14.9930000  0  4G 2G11G19G 6
  18885872.388   -28928614.537 8 -22241273.29023
  22429165.161   -11501591.362 5  -8962248.48021
  19911057.5524   -7236943.31446  -5639179.75562
  19952690.4894  -19073875.29746 -12172847.20561
 91  4  7 23 22 29.9930000  0  4G 2G11G19G 6
  18881397.122   -28952132.937 8 -22259599.29623
  22434566.896   -11473203.951 5  -8940128.48421
  19912985.896    -7226802.407 6  -5631277.79222
  19943899.1304  -19120073.32546 -12208845.60962
 91  4  7 23 22 44.9930000  0  4G 2G11G19G 6
  18876933.083   -28975590.561 8 -22277877.94623
  22439985.216   -11444735.392 5  -8917945.26721
  19914930.778    -7216588.493 6  -5623318.94122
  19935111.9114  -19166250.68346 -12244827.90462
 91  4  7 23 22 59.9930000  0  4G 2G11G19G 6
  18872480.278   -28998989.550 8 -22296110.90323
  22445417.161   -11416188.141 5  -8895700.73421
  19916888.6384   -7206303.60046  -5615304.77662
  19926328.7164  -19212409.29346 -12280795.59462
 91  4  7 23 23 14.9930000  0  3G 2G19G 6
  18868037.458   -29022335.751 8 -22314302.72823
  19918857.583    -7195953.314 6  -5607239.66322
  19917546.982   -19258554.659 6 -12316752.96922
 91  4  7 23 23 29.9930000  0  3G 2G19G 6
  18863605.114   -29045628.582 8 -22332452.96723
  19920838.7864   -7185537.20546  -5599123.25662
  19908768.3414  -19304686.00946 -12352699.41462
 91  4  7 23 23 44.9930000  0  3G 2G19G 6
  18859184.271   -29068858.076 7 -22350553.85623
  19922836.4424   -7175045.25546  -5590947.74262
  19899994.3254  -19350793.36146 -12388627.16362
 91  4  7 23 23 59.9930000  0  3G 2G19G 6
  18854774.724   -29092032.231 8 -22368611.62023
  19924842.997    -7164485.345 6  -5582719.28922
  19891224.3414  -19396884.35746 -12424542.16161
 91  4  7 23 24 14.9930000  0  3G 2G19G 6
  18850375.982   -29115145.091 8 -22386621.62523
  19926869.1774   -7153851.21546  -5574432.98962
  19882457.4354  -19442952.60346 -12460439.43362
 91  4  7 23 24 29.9930000  0  3G 2G19G 6
  18845989.310   -29138197.971 8 -22404584.88123
  19928906.919    -7143144.272 6  -5566089.96422
  19873695.005   -19488999.311 7 -12496319.92322
 91  4  7 23 24 44.9930000  0  3G 2G19G 6
  18841613.849   -29161194.801 8 -22422504.47123
  19930958.075    -7132368.128 6  -5557693.01222
  19864935.5444  -19535028.25646 -12532186.57862
 91  4  7 23 24 59.9930000  0  3G 2G19G 6
  18837248.458   -29184134.408 8 -22440379.47123
  19933019.864    -7121521.594 6  -5549241.21722
  19856178.8964  -19581037.88746 -12568038.17162
 91  4  7 23 25 14.9930000  0  3G 2G19G 6
  18832894.810   -29207011.437 8 -22458205.71123
  19935099.700    -7110599.364 6  -5540730.43422
  19847429.6464  -19627022.67947 -12603870.41762
 91  4  7 23 25 29.9930000  0  3G 2G19G 6
  18828552.544   -29229829.714 8 -22475986.16723
  19937192.427    -7099605.190 6  -5532163.59722
  19838683.9274  -19672986.25847 -12639686.13462
 91  4  7 23 25 44.9930000  0  3G 2G19G 6
  18824222.513   -29252586.617 8 -22493718.80323
  19939298.435    -7088536.342 6  -5523538.57222
  19829940.7944  -19718925.55047 -12675482.91862
 91  4  7 23 25 59.9930000  0  3G 2G19G 6
  18819902.130   -29275289.677 8 -22511409.47923
  19941416.419    -7077400.178 6  -5514861.09722
  19821202.0054  -19764847.92847 -12711266.52662
 91  4  7 23 26 14.9930000  0  3G 2G19G 6
  18815593.185   -29297934.801 8 -22529055.01023
  19943550.161    -7066192.476 6  -5506127.87222
  19812467.1384  -19810749.20347 -12747033.69162
 91  4  7 23 26 29.9930000  0  3G 2G19G 6
  18811295.099   -29320518.399 8 -22546652.59923
  19945697.403    -7054909.725 6  -5497336.17022
  19803737.4584  -19856625.43047 -12782781.33462
 91  4  7 23 26 44.9930000  0  3G 2G19G 6
  18807008.450   -29343043.595 8 -22564204.68523
  19947858.161    -7043554.915 6  -5488488.31522
  19795011.8254  -19902479.37147 -12818511.61462
 91  4  7 23 26 59.9930000  0  4G15G 2G19G 6
  22128561.817          -0.52515
  18802733.653   -29365514.820 8 -22581714.71223
  19950034.060    -7032132.208 6  -5479587.55922
  19786288.6224  -19948315.30747 -12854227.85962
 91  4  7 23 27 14.9930000  0  4G15G 2G19G 6
  22120302.903      -43410.277 5
  18798467.724   -29387926.985 8 -22599178.71723
  19952219.317    -7020636.495 6  -5470629.90822
  19777570.2394  -19994127.88147 -12889925.90262
 91  4  7 23 27 29.9930000  0  4G15G 2G19G 6
  22112056.9354     -86741.82545        -0.45171
  18794214.716   -29410280.122 8 -22616596.72923
  19954419.208    -7009067.740 6  -5461615.34422
  19768858.0604  -20039916.86046 -12925605.56062
 91  4  7 23 27 44.9930000  0  4G15G 2G19G 6
  22103823.372     -130001.604 5    -33709.24521
  18789969.982   -29432581.282 8 -22633974.23823
  19956635.864    -6997432.871 6  -5452549.26922
  19760148.403   -20085689.029 7 -12961272.11322
 91  4  7 23 27 59.9930000  0  4G15G 2G19G 6
  22095608.114     -173184.491 5    -67358.11721
  18785738.169   -29454825.901 8 -22651307.68823
  19958864.7394   -6985727.18746  -5443428.01562
  19751441.4194  -20131439.56147 -12996921.81362
 91  4  7 23 28 14.9930000  0  4G15G 2G19G 6
  22087402.8644    -216288.52145   -100945.55861
  18781515.099   -29477012.065 8 -22668595.58923
  19961105.122    -6973948.957 6  -5434250.22522
  19742739.2324  -20177166.36347 -13032553.01862
 91  4  7 23 28 29.9930000  0  4G15G 2G19G 6
  22079214.146     -259319.368 5   -134475.98821
  18777303.708   -29499146.048 8 -22685842.83123
  19963355.911    -6962104.154 6  -5425020.56522
  19734041.3254  -20222875.36947 -13068170.35862
 91  4  7 23 28 44.9930000  0  4G15G 2G19G 6
  22071044.013     -302272.144 5   -167945.52621
  18773102.622   -29521223.310 8 -22703045.87423
  19965625.6144   -6950188.31346  -5415735.54962
  19725347.0674  -20268561.83147 -13103770.13062
 91  4  7 23 28 59.9930000  0  4G15G 2G19G 6
  22062884.3964    -345143.05945   -201351.31661
  18768913.114   -29543240.329 8 -22720201.97523
  19967904.7004   -6938197.91946  -5406392.44562
  19716658.3414  -20314222.03147 -13139349.44262
 91  4  7 23 29 14.9930000  0  4G15G 2G19G 6
  22054742.5364    -387938.47645   -234698.29461
  18764732.927   -29565204.010 8 -22737316.51223
  19970201.7944   -6926139.64846  -5396996.44962
  19707973.8104  -20359862.52547 -13174913.39962
 91  4  7 23 29 29.9930000  0  4G15G 2G19G 6
  22046609.825     -430651.251 4   -267980.84921
  18760565.060   -29587107.808 8 -22754384.38523
  19972513.2784   -6914006.69146  -5387542.25662
  19699293.9974  -20405476.45647 -13210456.65462
 91  4  7 23 29 44.9930000  0  4G15G 2G19G 6
  22038499.9894    -473279.45944   -301197.51761
  18756408.521   -29608950.085 8 -22771404.32323
  19974834.4424   -6901797.48946  -5378028.65562
  19690618.661   -20451062.175 7 -13245977.92322
 91  4  7 23 29 59.9930000  0  4G15G 2G19G 6
  22030401.9194    -515827.50745   -334351.71361
  18752263.036   -29630735.759 8 -22788380.15023
  19977170.0214   -6889516.79646  -5368459.34462
  19681948.7084  -20496624.20747 -13281480.73662
 91  4  7 23 30 14.9920000  0  4G15G 2G19G 6
  22022320.3994    -558295.88945   -367443.84561
  18748127.609   -29652467.128 8 -22805313.66323
  19979520.8134   -6877168.92046  -5358837.68962
  19673283.0554  -20542162.82447 -13316965.30662
 91  4  7 23 30 29.9920000  0  4G15G 2G19G 6
  22014254.164     -600682.478 5   -400472.22421
  18744003.070   -29674139.930 8 -22822201.54023
  19981884.5004   -6864745.40146  -5349157.09262
  19664622.1174  -20587676.82047 -13352430.69962
 91  4  7 23 30 44.9920000  0  4G15G 2G19G 6
  22006205.9844    -642984.47545   -433434.71461
  18739890.047   -29695752.917 8 -22839042.80523
  19984265.586    -6852247.240 6  -5339418.32222
  19655966.8524  -20633163.16547 -13387874.54262
 91  4  7 23 30 59.9920000  0  4G15G 2G19G 6
  21998172.0554    -685198.54245   -466328.65961
  18735788.930   -29717303.086 8 -22855835.12723
  19986655.1884   -6839671.12646  -5329618.81462
  19647315.8134  -20678618.50147 -13423294.21962
 91  4  7 23 31 14.9920000  0  4G15G 2G19G 6
  21990155.8054    -727330.51645   -499158.63761
  18731699.211   -29738796.687 8 -22872583.36423
  19989064.6724   -6827023.45046  -5319763.54162
  19638670.8444  -20724049.10547 -13458694.62262
 91  4  7 23 31 29.9920000  0  4G15G 2G19G 6
  21982155.4064    -769384.03245   -531927.49661
  18727619.633   -29760238.043 8 -22889290.89223
  19991484.4534   -6814308.28246  -5309855.68462
  19630028.9924  -20769458.73047 -13494078.68862
 91  4  7 23 31 44.9920000  0  4G15G 2G19G 6
  21974163.0784    -811355.82945   -564632.67761
  18723549.125   -29781624.091 8 -22905955.32423
  19993916.4774   -6801522.29646  -5299892.63862
  19621393.3834  -20814843.99847 -13529443.77162
 91  4  7 23 31 59.9920000  0  4G15G 2G19G 6
  21966193.7274    -853243.54445   -597272.32861
  18719490.719   -29802953.098 8 -22922575.30823
  19996362.344    -6788663.759 6  -5289873.05922
  19612761.891   -20860203.004 7 -13564788.40122
 91  4  7 23 32 14.9920000  0  4G15G 2G19G 6
  21958242.039     -895040.709 5   -629841.43921
  18715443.875   -29824219.002 8 -22939146.12023
  19998826.438    -6775726.711 6  -5279792.30222
  19604136.641   -20905529.486 7 -13600107.68522
 91  4  7 23 32 29.9920000  0  4G15G 2G19G 6
  21950301.430     -936758.219 5   -662348.48221
  18711407.492   -29845433.118 8 -22955676.57523
  20001299.0314   -6762722.21146  -5269658.98662
  19595514.570   -20950834.315 7 -13635410.08922
 91  4  7 23 32 44.9920000  0  4G15G 2G19G 6
  21942379.1414    -978393.11745   -694791.15261
  18707380.727   -29866592.712 8 -22972164.54623
  20003788.6094   -6749647.54546  -5259470.99662
  19586898.781   -20996114.672 7 -13670693.43422
 91  4  7 23 32 59.9920000  0  4G15G 2G19G 6
  21934474.8914   -1019944.52245   -727168.75961
  18703364.211   -29887697.590 8 -22988609.88323
  20006288.6564   -6736502.52846  -5249228.19362
  19578285.977   -21041369.993 7 -13705957.26922
 91  4  7 23 33 14.9920000  0  4G15G 2G19G 6
  21926579.461    -1061408.766 5   -759478.45621
  18699359.774   -29908744.609 8 -23005010.13323
  20008805.4534   -6723283.65246  -5238927.83162
  19569678.938   -21086596.786 7 -13741198.87022
 91  4  7 23 33 29.9920000  0  4G15G 2G19G 6
  21918704.750    -1102788.766 5   -791722.49821
  18695365.024   -29929736.859 8 -23021367.70823
  20011332.7424   -6709994.14146  -5228572.43362
  19561079.078   -21131797.915 7 -13776420.48422
 91  4  7 23 33 44.9920000  0  4G15G 2G19G 6
  21910849.8754   -1144079.17245   -823896.72261
  18691381.961   -29950669.400 8 -23037678.75623
  20013878.4144   -6696628.91146  -5218158.03062
  19552483.625   -21176968.200 7 -13811618.05622
 91  4  7 23 33 59.9920000  0  4G15G 2G19G 6
  21903008.8994   -1185287.18445   -856006.76061
  18687407.711   -29971550.188 8 -23053949.47623
  20016433.0084   -6683195.89346  -5207690.80462
  19543891.149   -21222115.386 7 -13846797.63222
 91  4  7 23 34 14.9920000  0  4G15G 2G19G 6
  21895182.953    -1226411.638 5   -888051.67621
  18683444.320   -29992378.203 8 -23070179.07523
  20019003.5784   -6669693.97046  -5197169.88862
  19535306.586   -21267238.170 7 -13881958.19522
 91  4  7 23 34 29.9920000  0  5G15G 2G13G19G 6
  21887374.164    -1267450.624 5   -920030.00521
  18679490.828   -30013151.782 8 -23086366.25523
  21819270.9064         -0.17955
  20021584.7974   -6656121.53346  -5186594.02261
  19526723.367   -21312334.795 7 -13917098.37822
 91  4  7 23 34 44.9920000  0  5G15G 2G13G19G 6
  21879581.188    -1308397.518 5   -951936.56521
  18675549.594   -30033864.625 8 -23102506.11323
  21804762.0634     -76255.30645
  20024184.0634   -6642472.10846  -5175958.17561
  19518148.0244  -21357398.60647 -13952212.99762
 91  4  7 23 34 59.9920000  0  5G15G 2G13G19G 6
  21871803.2664   -1349257.21245   -983775.19561
  18671618.289   -30054522.227 8 -23118602.92323
  21790257.8754    -152480.80744
  20026793.7424   -6628751.01646  -5165266.47861
  19509577.6644  -21402434.60047 -13987305.94062
 91  4  7 23 35 14.9920000  0  5G15G 2G13G19G 6
  21864047.586    -1390028.776 5  -1015545.14121
  18667698.352   -30075124.186 8 -23134656.37723
  21775756.7114    -228675.85744
  20029418.0864   -6614957.89046  -5154518.64961
  19501013.891   -21447442.257 7 -14022376.79522
 91  4  7 23 35 29.9920000  0  5G15G 2G13G19G 6
  21856306.2114   -1430711.60045  -1047245.93061
  18663787.859   -30095669.884 8 -23150665.98923
  21761262.328     -304839.581 4
  20032057.820    -6601092.262 6  -5143714.32122
  19492454.125   -21492420.811 7 -14057424.97722
 91  4  7 23 35 44.9920000  0  5G15G 2G13G19G 6
  21848579.867    -1471303.873 5  -1078876.17721
  18659889.313   -30116158.289 8 -23166630.95823
  21746772.3834    -380970.35444        -0.26771
  20034710.633    -6587152.805 6  -5132852.46321
  19483901.9924  -21537368.77247 -14092449.32162
 91  4  7 23 35 59.9920000  0  5G15G 2G13G19G 6
  21840871.563    -1511813.136 5  -1110441.74821
  18655999.930   -30136597.361 8 -23182557.48523
  21732292.203     -457075.670 4    -59302.76221
  20037372.813    -6573147.497 6  -5121939.28821
  19475351.1024  -21582293.95747 -14127455.92362
 91  4  7 23 36 14.9920000  0  5G15G 2G13G19G 6
  21833180.9384   -1552232.52645  -1141937.28661
  18652121.070   -30156980.856 8 -23198440.70723
  21717814.094     -533148.693 4   -118580.07621
  20040055.102    -6559069.860 6  -5110969.75721
  19466808.641   -21627189.612 7 -14162439.50322
 91  4  7 23 36 29.9920000  0  5G15G 2G13G19G 6
  21825504.719    -1592563.748 5  -1173364.10821
  18648252.352   -30177310.596 8 -23214282.04623
  21703344.6804    -609190.94345   -177833.43761
  20042746.0244   -6544921.71146  -5099945.28461
  19458270.4144  -21672057.33347 -14197401.32862
 91  4  7 23 36 44.9920000  0  5G15G 2G13G19G 6
  21817845.563    -1632805.118 5  -1204720.93721
  18644394.258   -30197585.381 8 -23230080.56123
  21688879.430     -685200.599 5   -237061.43521
  20045451.922    -6530701.794 6  -5088864.88221
  19449737.461   -21716895.804 7 -14232340.35022
 91  4  7 23 36 59.9920000  0  5G15G 2G13G19G 6
  21810206.500    -1672953.572 5  -1236005.35121
  18640548.406   -30217802.781 8 -23245834.35823
  21674421.8594    -761174.93144   -296261.89961
  20048173.524    -6516407.675 6  -5077726.65821
  19441210.633   -21761702.285 7 -14267254.44722
 91  4  7 23 37 14.9920000  0  5G15G 2G13G19G 6
  21802583.508    -1713013.847 5  -1267221.06321
  18636709.125   -30237967.520 8 -23261547.12423
  21659972.6884    -837118.21945   -355438.15361
  20050905.828    -6502044.033 6  -5066534.26621
  19432690.180   -21806481.175 7 -14302147.04722
 91  4  7 23 37 29.9920000  0  5G15G 2G13G19G 6
  21794975.945    -1752991.776 5  -1298372.59121
  18632881.492   -30258086.062 8 -23277223.89523
  21645525.4454    -913036.45245   -414594.85561
  20053650.5554   -6487617.22746  -5055292.65861
  19424172.875   -21851238.762 7 -14337023.03922
 91  4  7 23 37 44.9920000  0  5G15G 2G13G19G 6
  21787386.852    -1792877.098 5  -1329451.96421
  18629063.633   -30278148.457 8 -23292856.91223
  21631083.0944    -988918.98045   -473723.74861
  20056410.5244   -6473117.19746  -5043993.99161
  19415660.742   -21895964.570 7 -14371874.27122
 91  4  7 23 37 59.9920000  0  5G15G 2G13G19G 6
  21779816.586    -1832665.886 5  -1360456.14321
  18625257.399   -30298151.318 8 -23308443.54223
  21616652.4064   -1064762.16445   -532822.01061
  20059185.984    -6458540.619 6  -5032635.67521
  19407157.391   -21940655.047 7 -14406697.97922
 91  4  7 23 38 14.9920000  0  5G15G 2G13G19G 6
  21772257.555    -1872368.635 5  -1391393.26621
  18621460.313   -30318105.461 8 -23323992.21523
  21602225.828    -1140576.473 5   -591897.77021
  20061972.281    -6443898.417 6  -5021226.22021
  19398657.5474  -21985320.90247 -14441502.50062
 91  4  7 23 38 29.9920000  0  5G15G 2G13G19G 6
  21764721.0944   -1911978.24645  -1422257.78461
  18617673.414   -30338003.993 8 -23339497.55023
  21587805.3754   -1216354.52845   -650945.29861
  20064772.0704   -6429183.52046  -5009760.12561
  19390164.516   -22029954.821 7 -14476282.12822
 91  4  7 23 38 44.9920000  0  5G15G 2G13G19G 6
  21757202.836    -1951496.316 5  -1453051.02421
  18613897.578   -30357849.112 8 -23354961.26723
  21573389.688    -1292098.205 5   -709966.02721
  20067585.9924   -6414397.89646  -4998238.91861
  19381676.906   -22074558.813 7 -14511038.43722
 91  4  7 23 38 59.9920000  0  5G15G 2G13G19G 6
  21749699.594    -1990920.816 5  -1483771.30221
  18610132.250   -30377639.334 8 -23370382.20723
  21558981.6494   -1367805.51045
  20070414.1334   -6399540.14946  -4986661.51161
  19373193.875   -22119131.178 7 -14545770.10622
 91  4  7 23 39 14.9920000  0  5G15G 2G13G19G 6
  21742212.6724   -2030252.69545  -1514419.44861
  18606375.305   -30397375.925 8 -23385761.35323
  21544582.617    -1443477.391 5
  20073253.7034   -6384611.53846  -4975028.88961
  19364718.899   -22163672.711 7 -14580477.74222
 91  4  7 23 39 29.9920000  0  5G15G 2G13G19G 6
  21734750.9304   -2069493.93245  -1544996.93261
  18602629.7974  -30417061.18048 -23401100.50663
  21530189.5944   -1519115.22745
  20076109.180    -6369614.163 6  -4963342.68021
  19356247.844   -22208185.529 7 -14615163.00622
 91  4  7 23 39 44.9920000  0  5G15G 2G13G19G 6
  21727297.4924   -2108640.40645  -1575500.57961
  18598893.5704  -30436691.50248 -23416396.85663
  21515801.6414   -1594715.00345
  20078975.305    -6354544.209 6  -4951599.91221
  19347783.703   -22252665.646 7 -14649822.78922
 91  4  7 23 39 59.9920000  0  5G15G 2G13G19G 6
  21719866.250    -2147702.598 5  -1605938.55021
  18595166.4304  -30456277.85448 -23431658.93463
  21501420.6644   -1670287.17145        -0.09571
  20081852.227    -6339412.589 6  -4939809.09021
  19339322.617   -22297123.632 7 -14684465.33122
 91  4  7 23 40 14.9920000  0  5G15G 2G13G19G 6
  21712449.797    -2186665.598 5  -1636299.27521
  18591451.8054  -30475805.47448 -23446875.25263
  21487047.609    -1745816.746 5    -58854.03321
  20084747.7744   -6324204.64646  -4927958.79961
  19330871.164   -22341544.748 7 -14719079.13622
 91  4  7 23 40 29.9920000  0  5G15G 2G13G19G 6
  21705053.5164   -2225533.97145  -1666586.19661
  18587744.4454  -30495279.59948 -23462049.88863
  21472683.656    -1821308.316 5   -117678.32021
  20087657.227    -6308925.459 6  -4916052.99621
  19322423.227   -22385933.727 7 -14753667.90222
 91  4  7 23 40 44.9920000  0  5G15G 2G13G19G 6
  21697675.1024   -2264306.82645  -1696798.74261
  18584049.649   -30514699.638 8 -23477182.37123
  21458325.2894   -1896760.88644   -176472.19061
  20090578.2274   -6293574.54646  -4904091.30461
  19313983.375   -22430289.813 7 -14788231.03122
 91  4  7 23 40 59.9920000  0  5G15G 2G13G19G 6
  21690314.4614   -2302982.82945  -1726935.77561
  18580364.1174  -30534064.51848 -23492271.88563
  21443971.703    -1972172.899 5   -235234.43421
  20093510.7814   -6278150.70246  -4892072.78861
  19305548.141   -22474611.505 7 -14822767.36722
 91  4  7 23 41 14.9920000  0  5G15G 2G13G19G 6
  21682974.281    -2341561.159 5  -1756996.69321
  18576689.6564  -30553373.82448 -23507318.08563
  21429631.227    -2047543.679 5   -293964.62221
  20096461.602    -6262653.566 6  -4879997.14721
  19297121.930   -22518898.248 7 -14857276.46622
 91  4  7 23 41 29.9920000  0  5G15G 2G13G19G 6
  21675650.1174   -2380045.81745  -1786984.66861
  18573025.9614  -30572632.02948 -23522324.47063
  21415295.172    -2122877.077 5   -352665.68721
  20099421.9614   -6247087.34046  -4867867.67761
  19288699.453   -22563154.057 7 -14891761.46122
 91  4  7 23 41 44.9920000  0  5G15G 2G13G19G 6
  21668344.094    -2418437.589 5  -1816900.22621
  18569368.8754  -30591840.47148 -23537292.07763
  21400968.016    -2198173.980 5   -411338.28421
  20102400.117    -6231453.386 6  -4855685.42921
  19280284.469   -22607380.094 7 -14926223.25622
 91  4  7 23 41 59.9920000  0  5G15G 2G13G19G 6
  21661059.0944   -2456725.61445  -1846734.96561
  18565726.8674  -30610988.55148 -23552212.64963
  21386648.5864   -2273423.48245   -469973.94661
  20105392.445    -6215741.124 6  -4843442.16321
  19271875.188   -22651565.527 7 -14960653.41022
 91  4  7 23 42 14.9920000  0  5G15G 2G13G19G 6
  21653790.734    -2494916.571 5  -1876494.03821
  18562092.6254  -30630083.32648 -23567091.68263
  21372336.594    -2348632.410 5   -528577.98321
  20108393.5944   -6199957.64446  -4831143.40561
  19263473.750   -22695717.175 7 -14995057.24022
 91  4  7 23 42 29.9920000  0  5G15G 2G13G19G 6
  21646543.164    -2533014.871 5  -1906180.93321
  18558468.9064  -30649129.13948 -23581932.56464
  21358033.914    -2423804.610 5   -587153.47621
  20111407.7274   -6184107.46746  -4818792.67361
  19255076.852   -22739839.213 7 -15029438.00222
 91  4  7 23 42 44.9920000  0  5G15G 2G13G19G 6
  21639309.1884   -2571013.25345  -1935789.95761
  18554854.4924  -30668119.63748 -23596730.34463
  21343733.164    -2498932.984 5   -645694.73421
  20114436.9694   -6168183.84346  -4806384.72261
  19246687.859   -22783924.880 7 -15063790.41622
 91  4  7 23 42 59.9920000  0  5G15G 2G13G19G 6
  21632097.688    -2608918.853 5  -1965326.69021
  18551249.305   -30687062.168 8 -23611490.74423
  21329442.570    -2574024.392 5   -704207.23621
  20117481.5784   -6152193.97946  -4793925.15361
  19238304.758   -22827981.009 7 -15098119.82022
 91  4  7 23 43 14.9920000  0  5G15G 2G13G19G 6
  21624900.461    -2646730.724 5  -1994790.37821
  18547654.5554  -30705956.11648 -23626213.29164
  21315162.2194   -2649078.10245   -762690.30761
  20120537.203    -6136137.437 6  -4781413.61421
  19229926.617   -22872006.955 7 -15132425.69822
 91  4  7 23 43 29.9920000  0  5G15G 2G13G19G 6
  21617724.4614   -2684443.98545  -2024177.24161
  18544070.4224  -30724797.07248 -23640894.54364
  21300888.109    -2724089.212 5   -821140.25821
  20123604.8284   -6120009.75246  -4768846.65361
  19221555.914   -22915998.005 7 -15166704.38922
 91  4  7 23 43 44.9920000  0  5G15G 2G13G19G 6
  21610565.711    -2722059.927 5  -2053488.26921
  18540493.992   -30743586.737 8 -23655535.82824
  21286621.492    -2799058.678 5   -879557.76521
  20126688.3674   -6103812.51746  -4756225.48961
  19213191.516   -22959955.510 7 -15200956.93822
 91  4  7 23 43 59.9920000  0  5G15G 2G13G19G 6
  21603427.695    -2759571.270 5  -2082717.80421
  18536928.977   -30762318.386 8 -23670131.90524
  21272363.8994   -2873979.26545   -937937.15961
  20129788.930    -6087538.841 6  -4743544.76021
  19204834.234   -23003872.320 7 -15235177.77322
 91  4  7 23 44 14.9920000  0  5G15G 2G13G19G 6
  21596309.9924   -2796981.66245  -2111868.64261
  18533374.758   -30780995.628 8 -23684685.58824
  21258116.008    -2948854.250 5   -996281.00221
  20132895.4144   -6071192.69246  -4730807.55961
  19196483.0944  -23047751.87447 -15269369.57662
 91  4  7 23 44 29.9920000  0  5G15G 2G13G19G 6
  21589208.1094   -2834296.55645  -2140945.09461
  18529830.3674  -30799624.43648 -23699201.53164
  21243874.547    -3023689.274 5  -1054593.78721
  20136018.133    -6054779.855 6  -4718018.38721
  19188138.969   -23091599.925 7 -15303536.83722
 91  4  7 23 44 44.9920000  0  5G15G 2G13G19G 6
  21582125.1334   -2871517.82745  -2169948.58761
  18526293.891   -30818207.356 8 -23713681.71424
  21229639.891    -3098486.308 5  -1112876.89221
  20139155.0244   -6038302.63446  -4705179.05961
  19179800.406   -23135418.687 7 -15337681.27622
 91  4  7 23 44 59.9920000  0  5G15G 2G13G19G 6
  21575060.680    -2908636.600 5  -2198872.21821
  18522767.3204  -30836735.79548 -23728119.44564
  21215415.320    -3173236.290 5  -1171123.34121
  20142303.4224   -6021752.32346  -4692282.76961
  19171469.539   -23179199.117 7 -15371795.84622
 91  4  7 23 45 14.9920000  0  5G15G 2G13G19G 6
  21568019.0004   -2945655.06845  -2227717.67261
  18519251.461   -30855212.213 8 -23742516.64124
  21201199.930    -3247941.264 5  -1229334.75921
  20145466.6254   -6005131.52846  -4679331.56661
  19163144.453   -23222943.462 7 -15405882.29622
 91  4  7 23 45 29.9920000  0  5G15G 2G13G19G 6
  21560992.2504   -2982567.35045  -2256480.40461
  18515747.258   -30873631.051 8 -23756868.96724
  21186995.211    -3322595.447 5
  20148643.9454   -5988434.76146  -4666321.15961
  19154829.578   -23266645.985 7 -15439936.15922
 91  4  7 23 45 44.9920000  0  5G15G 2G13G19G 6
  21553987.7974   -3019378.81745  -2285164.56861
  18512252.484   -30891998.028 8 -23771180.87924
  21172797.195    -3397203.889 5
  20151834.3754   -5971667.45846  -4653255.79261
  19146519.445   -23310312.057 7 -15473961.61622
 91  4  7 23 45 59.9920000  0  5G15G 2G13G19G 6
  21547001.149    -3056094.814 5  -2313774.33121
  18508765.055   -30910319.108 8 -23785457.02824
  21158605.625    -3471772.120 5
  20155037.2274   -5954835.68446  -4640140.19361
  19138216.297   -23353947.317 7 -15507963.06722
 91  4  7 23 46 14.9920000  0  5G15G 2G13G19G 6
  21540035.984    -3092704.908 5  -2342301.57321
  18505289.930   -30928584.185 8 -23799689.53924
  21144424.609    -3546289.395 5        -0.24231
  20158256.4064   -5937929.14146  -4626966.32361
  19129920.102   -23397541.311 7 -15541932.36222
 91  4  7 23 46 29.9920000  0  5G15G 2G13G19G 6
  21533087.047    -3129211.657 5  -2370748.29621
  18501823.781   -30946795.898 8 -23813880.47124
  21130254.7274   -3620758.20945    -58027.69261
  20161486.8524   -5920950.73446  -4613736.46461
  19121632.367   -23441096.671 7 -15575871.55522
 91  4  7 23 46 44.9920000  0  5G15G 2G13G19G 6
  21526160.344    -3165617.683 5  -2399116.52821
  18498367.352   -30964957.587 8 -23828032.42024
  21116091.906    -3695181.467 5   -116019.58021
  20164731.8674   -5903903.65046  -4600453.08861
  19113349.609   -23484616.291 7 -15609782.89922
 91  4  7 23 46 59.9920000  0  5G15G 2G13G19G 6
  21519252.2974   -3201917.95745  -2427402.35761
  18494922.289   -30983064.279 8 -23842141.51024
  21101937.8754   -3769553.82145   -173971.81461
  20167986.9144   -5886782.73246  -4587112.17861
  19105076.117   -23528094.833 7 -15643662.22422
 91  4  7 23 47 14.9920000  0  5G15G 2G13G19G 6
  21512363.5864   -3238116.89045  -2455609.22561
  18491486.367   -31001120.998 8 -23856211.67124
  21087793.688    -3843879.505 5   -231887.68821
  20171260.5784   -5869592.97046  -4573717.62561
  19096808.727   -23571536.926 7 -15677513.15622
 91  4  7 23 47 29.9920000  0  5G15G 2G13G19G 6
  21505494.0004   -3274214.29346  -2483736.96961
  18488059.797   -31019127.914 8 -23870243.01924
  21073659.9694   -3918158.33745   -289767.06961
  20174542.649    -5852334.704 6  -4560269.69821
  19088549.672   -23614942.658 7 -15711335.75822
 91  4  7 23 47 44.9920000  0  5G15G 2G13G19G 6
  21498644.695    -3310211.988 6  -2511787.02921
  18484642.328   -31037087.311 8 -23884237.33924
  21059536.211    -3992392.105 5   -347611.29421
  20177841.4694   -5835009.91146  -4546769.93361
  19080295.992   -23658313.745 7 -15745131.36322
 91  4  7 23 47 59.9920000  0  5G15G 2G13G19G 6
  21491813.086    -3346109.309 6  -2539758.88521
  18481233.484   -31054998.747 8 -23898194.29224
  21045415.8444   -4066579.94945   -405419.78861
  20181151.9224   -5817618.19746  -4533218.01561
  19072049.883   -23701649.671 7 -15778899.56922
 91  4  7 23 48 14.9920000  0  5G15G 2G13G19G 6
  21485002.4614   -3381905.72545  -2567652.10461
  18477834.586   -31072862.026 8 -23912113.71024
  21031309.0864   -4140721.47045   -463192.18661
  20184473.0244   -5800159.55646  -4519613.94961
  19063810.844   -23744949.941 7 -15812639.99522
 91  4  7 23 48 29.9920000  0  5G15G 2G13G19G 6
  21478208.7114   -3417593.14845  -2595460.39561
  18474446.508   -31090669.536 8 -23925989.67824
  21017209.9924   -4214808.43845   -520922.04061
  20187808.3364   -5782626.22446  -4505951.68061
  19055580.188   -23788206.641 7 -15846346.46822
 91  4  7 23 48 44.9920000  0  5G15G 2G13G19G 6
  21471436.125    -3453180.714 5  -2623190.90021
  18471066.141   -31108430.772 8 -23939829.58824
  21003120.2344   -4288849.91445   -578616.44561
  20191158.0084   -5765027.82846  -4492238.70961
  19047354.508   -23831428.983 7 -15880026.17222
 91  4  7 23 48 59.9920000  0  5G15G 2G13G19G 6
  21464683.5784   -3488671.19145  -2650845.72161
  18467693.953   -31126148.852 8 -23953635.86524
  20989037.609    -4362848.589 5   -636277.52321
  20194518.180    -5747367.253 6  -4478477.29421
  19039135.508   -23874619.580 7 -15913681.13722
 91  4  7 23 49 14.9920000  0  5G15G 2G13G19G 6
  21457949.7504   -3524052.30346  -2678415.32661
  18464332.922   -31143811.383 8 -23967398.86224
  20974966.8754   -4436792.01945   -693895.53761
  20197893.320    -5729632.149 6  -4464657.80321
  19030923.977   -23917766.178 7 -15947301.82322
 91  4  7 23 49 29.9920000  0  5G15G 2G13G19G 6
  21451238.6494   -3559329.91445  -2705904.29161
  18460981.164   -31161424.992 8 -23981123.73624
  20960905.9844   -4510685.92745   -751474.94861
  20201282.3204   -5711829.16246  -4450785.41561
  19022721.406   -23960874.738 7 -15980892.86122
 91  4  7 23 49 44.9920000  0  5G15G 2G13G19G 6
  21444544.617    -3594504.607 5  -2733313.06221
  18457638.774   -31178990.733 8 -23994811.31324
  20946853.320    -4584531.070 5   -809016.41621
  20204681.7424   -5693959.29846  -4436860.92161
  19014524.211   -24003946.230 7 -16014455.01922
 91  4  7 23 49 59.9920000  0  5G15G 2G13G19G 6
  21437873.5244   -3629567.57145  -2760634.76461
  18454306.328   -31196500.158 8 -24008455.00624
  20932812.1884   -4658318.02445   -866512.49161
  20208095.9774   -5676013.89546  -4422877.56261
  19006336.9694  -24046971.57447 -16047981.21862
 91  4  7 23 50 14.9920000  0  5G15G 2G13G19G 6
  21431217.938    -3664530.517 5  -2787878.54921
  18450983.274   -31213965.222 8 -24022064.13524
  20918777.758    -4732058.482 5   -923972.39321
  20211524.664    -5658004.985 6  -4408844.71321
  18998156.5704  -24089962.61747 -16081480.69462
 91  4  7 23 50 29.9920000  0  5G15G 2G13G19G 6
  21424585.297    -3699387.630 6  -2815039.83521
  18447669.875   -31231380.443 8 -24035634.42224
  20904755.7814   -4805746.96045   -981391.70761
  20214965.266    -5639927.066 6  -4394758.09621
  18989983.4534  -24132913.64447 -16114948.98662
 91  4  7 23 50 44.9920000  0  5G15G 2G13G19G 6
  21417973.1494   -3734142.05046  -2842121.11361
  18444363.930   -31248749.557 8 -24049168.78524
  20890743.211    -4879386.604 5  -1038772.99921
  20218416.445    -5621783.807 6  -4380620.56721
  18981817.242   -24175827.837 7 -16148388.57922
 91  4  7 23 50 59.9920000  0  5G15G 2G13G19G 6
  21411378.8674   -3768793.75846  -2869122.36561
  18441067.172   -31266072.801 8 -24062667.39924
  20876737.9304   -4952977.26545  -1096116.19361
  20221879.539    -5603575.374 6  -4366432.25221
  18973658.0864  -24218705.42247 -16181799.64862
 91  4  7 23 51 14.9920000  0  5G15G 2G13G19G 6
  21404805.578    -3803336.333 6  -2896038.56121
  18437781.109   -31283344.023 8 -24076125.48324
  20862745.3524   -5026512.32345  -1153415.95261
  20225360.578    -5585295.820 6  -4352188.52021
  18965506.6644  -24261539.88447 -16215177.11162
 91  4  7 23 51 29.9920000  0  5G15G 2G13G19G 6
  21398253.859    -3837771.646 6  -2922871.20521
  18434504.281   -31300565.369 8 -24089544.69824
  20848762.172    -5099993.410 5  -1210673.73321
  20228852.914    -5566947.459 6  -4337891.17421
  18957362.977   -24304333.061 7 -16248522.40122
 91  4  7 23 51 44.9920000  0  5G15G 2G13G19G 6
  21391717.8444   -3872103.83346  -2949623.46361
  18431235.594   -31317741.029 8 -24102928.32024
  20834787.1254   -5173424.24745  -1267892.34361
  20232356.024    -5548534.333 6  -4323543.35421
  18949226.2974  -24347089.02147 -16281838.69562
 91  4  7 23 51 59.9920000  0  5G15G 2G13G19G 6
  21385206.188    -3906331.644 6  -2976294.40921
  18427976.7114  -31334870.38248 -24116275.85764
  20820826.3594   -5246803.64645  -1325070.86561
  20235874.2974   -5530055.51045  -4309144.34161
  18941097.680   -24389806.511 7 -16315125.00922
 91  4  7 23 52 14.9920000  0  5G15G 2G13G19G 6
  21378713.836    -3940445.912 6  -3002876.86621
  18424726.9454  -31351944.91448 -24129580.67664
  20806872.031    -5320122.627 5  -1382202.29921
  20239403.7114   -5511502.53746  -4294687.54761
  18932977.977   -24432476.838 7 -16348374.57122
 91  4  7 23 52 29.9920000  0  5G15G 2G13G19G 6
  21372242.0784   -3974451.10045  -3029374.33361
  18421487.5944  -31368968.85848 -24142846.07664
  20792931.828    -5393385.394 5  -1439289.95021
  20242944.3914   -5492879.90446  -4280176.47661
  18924864.6564  -24475104.13447 -16381590.60762
 91  4  7 23 52 44.9920000  0  5G15G 2G13G19G 6
  21365791.0004   -4008351.26545  -3055789.96161
  18418256.3134  -31385947.07148 -24156075.84664
  20778999.844    -5466595.933 6  -1496336.90121
  20246501.4774   -5474192.07045  -4265614.59361
  18916761.461   -24517692.543 7 -16414776.33722
 91  4  7 23 52 59.9920000  0  5G15G 2G13G19G 6
  21359359.664    -4042145.513 5  -3082123.05221
  18415033.7974  -31402878.98748 -24169269.53564
  20765079.391    -5539753.504 5  -1553342.59421
  20250073.203    -5455438.651 5  -4251001.61821
  18908664.7194  -24560241.55347 -16447931.37062
 91  4  7 23 53 14.9920000  0  5G15G 2G13G19G 6
  21352950.2194   -4075828.94845  -3108369.80261
  18411820.9384  -31419760.03848 -24182423.59564
  20751167.6644   -5612853.17345  -1610303.09161
  20253654.266    -5436615.097 6  -4236333.98821
  18900575.6174  -24602746.09047 -16481051.75262
 91  4  7 23 53 29.9920000  0  5G15G 2G13G19G 6
  21346561.3134   -4109404.37045  -3134532.38061
  18408618.6024  -31436593.10048 -24195540.25664
  20737267.0784   -5685897.34345  -1667220.44161
  20257244.188    -5417724.131 6  -4221613.83121
  18892496.0244  -24645208.82147 -16514139.55362
 91  4  7 23 53 44.9920000  0  5G15G 2G13G19G 6
  21340193.5164   -4142871.98945  -3160610.95661
  18405424.3594  -31453378.99348 -24208620.16564
  20723376.047    -5758886.185 5  -1724094.65821
  20260856.031    -5398766.561 5  -4206841.77521
  18884423.500   -24687630.150 7 -16547195.08822
 91  4  7 23 53 59.9910000  0  5G15G 2G13G19G 6
  21333844.5814   -4176233.49145  -3186606.85361
  18402237.7374  -31470120.62848 -24221665.58864
  20709498.370    -5831818.569 5  -1780924.83921
  20264473.167    -5379747.940 6  -4192022.14821
  18876358.698   -24730011.243 7 -16580219.27022
 91  4  7 23 54 14.9910000  0  5G15G 2G13G19G 6
  21327516.144    -4209485.551 5  -3212517.46621
  18399061.9564  -31486813.00148 -24234672.62664
  20695628.6834   -5904696.41545  -1837712.58561
  20268107.8784   -5360658.22645  -4177147.11861
  18868302.214   -24772349.886 7 -16613210.37622
 91  4  7 23 54 29.9910000  0  5G15G 2G13G19G 6
  21321208.112    -4242631.217 5  -3238345.17321
  18395893.1364  -31503460.38548 -24247644.60364
  20681773.1054   -5977519.85145  -1894457.86161
  20271753.316    -5341504.006 5  -4162221.83521
  18860252.378   -24814648.517 7 -16646170.30122
 91  4  7 23 54 44.9910000  0  5G15G 2G13G19G 6
  21314922.308    -4275663.330 5  -3264084.39621
  18392736.1834  -31520055.93148 -24260576.19063
  20667925.9094   -6050281.62945  -1951155.13961
  20275411.245    -5322278.688 5  -4147241.13921
  18852212.964   -24856899.870 7 -16679093.39322
 91  4  7 23 54 59.9910000  0  5G15G 2G13G19G 6
  21308657.9954   -4308587.12345  -3289739.22161
  18389586.4254  -31536605.51448 -24273471.96463
  20654090.448    -6122987.359 5  -2007808.74321
  20279080.151    -5302988.195 6  -4132209.66021
  18844180.401   -24899109.765 7 -16711984.17322
 91  4  7 23 55 14.9910000  0  5G15G 2G13G19G 6
  21302412.331    -4341399.528 5  -3315307.25021
  18386446.6594  -31553106.22348 -24286329.64963
  20640265.589    -6195633.441 5  -2064415.84921
  20282765.917    -5283629.455 5  -4117124.99421
  18836156.347   -24941274.673 7 -16744839.89722
 91  4  7 23 55 29.9910000  0  5G15G 2G13G19G 6
  21296190.276    -4374099.152 5  -3340787.39021
  18383315.6364  -31569557.13748 -24299148.53963
  20626451.7304   -6268218.61745  -2120975.54261
  20286462.667    -5264201.275 5  -4101986.23121
  18828141.675   -24983393.436 7 -16777659.66922
 91  4  7 23 55 44.9910000  0  5G15G 2G13G19G 6
  21289988.862    -4406686.358 5  -3366179.95421
  18380194.9954  -31585958.78848 -24311929.03964
  20612651.066    -6340742.937 5  -2177487.78321
  20290174.237    -5244704.657 5  -4086794.14021
  18820134.230   -25025466.559 7 -16810443.87523
 91  4  7 23 55 59.9910000  0  5G15G 2G13G19G 6
  21283809.9954   -4439166.07645  -3391488.74361
  18377082.5664  -31602316.53148 -24324675.32563
  20598862.5264   -6413211.40645  -2233956.50161
  20293893.792    -5225144.690 6  -4071552.68921
  18812136.691   -25067498.867 7 -16843196.27522
 91  4  7 23 56 14.9910000  0  5G15G 2G13G19G 6
  21277649.8784   -4471534.87145  -3416711.09761
  18373978.4724  -31618627.02448 -24337384.79863
  20585083.1984   -6485620.19645  -2290378.72061
  20297631.003    -5205517.861 5  -4056259.12221
  18804146.300   -25109486.686 7 -16875914.00823
 91  4  7 23 56 29.9910000  0  5G15G 2G13G19G 6
  21271511.9644   -4503789.76145  -3441844.71261
  18370883.6204  -31634887.80948 -24350055.53364
  20571316.0974   -6557966.18046  -2346752.01061
  20301380.534    -5185822.007 5  -4040911.79121
  18796165.651   -25151427.145 7 -16908594.83923
 91  4  7 23 56 44.9910000  0  5G15G 2G13G19G 6
  21265396.347    -4535930.380 5  -3466889.26721
  18367799.6054  -31651098.71648 -24362687.40264
  20557560.253    -6630249.295 5  -2403076.28621
  20305140.441    -5166057.102 5  -4025510.64421
  18788193.753   -25193320.174 7 -16941238.71323
 91  4  7 23 56 59.9910000  0  5G15G 2G13G19G 6
  21259298.2614   -4567959.70045  -3491847.11561
  18364723.2374  -31667263.26248 -24375283.14563
  20543817.386    -6702472.468 5  -2459353.90921
  20308910.464    -5146226.326 5  -4010058.17321
  18780229.581   -25235168.660 7 -16973847.88122
 91  4  7 23 57 14.9910000  0  5G15G 2G13G19G 6
  21253226.5344   -4599874.95945  -3516716.08361
  18361656.6914  -31683378.78048 -24387840.68464
  20530086.073    -6774632.581 5  -2515582.37421
  20312699.526    -5126327.277 5  -3994552.48821
  18772274.956   -25276969.801 7 -17006420.15423
 91  4  7 23 57 29.9910000  0  5G15G 2G13G19G 6
  21247174.300    -4631676.276 5  -3541496.24821
  18358598.4334  -31699445.89448 -24400360.50364
  20516366.1834   -6846729.43645  -2571761.52461
  20316499.2764   -5106360.34646  -3978993.91361
  18764329.7144  -25318723.73147 -17038955.64463
 91  4  7 23 57 44.9910000  0  5G15G 2G13G19G 6
  21241142.3554   -4663372.62145  -3566194.63461
  18355549.5734  -31715473.88748 -24412849.84064
  20502654.292    -6918772.123 5  -2627898.49321
  20320311.4724   -5086334.74245  -3963389.62061
  18756392.362   -25360439.399 7 -17071461.31523
 91  4  7 23 57 59.9910000  0  5G15G 2G13G19G 6
  21235135.151    -4694953.687 5  -3590803.17521
  18352508.7454  -31731452.85748 -24425300.97964
  20488958.964    -6990750.328 5  -2683985.20421
  20324132.855    -5066240.424 6  -3947731.78921
  18748462.105   -25402106.595 7 -17103929.21823
 91  4  7 23 58 14.9910000  0  5G15G 2G13G19G 6
  21229146.675    -4726417.114 5  -3615320.05821
  18349478.5814  -31747380.45248 -24437712.08464
  20475272.534    -7062661.372 5  -2740019.60321
  20327973.448    -5046075.449 6  -3932018.89721
  18740543.6444  -25443722.83647 -17136357.41863
 91  4  7 23 58 29.9910000  0  5G15G 2G13G19G 6
  21223181.534    -4757765.448 5  -3639747.26021
  18346456.3554  -31763259.72348 -24450085.53664
  20461602.9484   -7134507.96746  -2796003.74461
  20331821.261    -5025842.866 6  -3916253.32221
  18732633.5584  -25485290.96647 -17168748.12763
 91  4  7 23 58 44.9910000  0  5G15G 2G13G19G 6
  21217238.2064   -4788999.32045  -3664085.27061
  18343443.2694  -31779091.52048 -24462421.99764
  20447943.9254   -7206290.43646  -2851937.95561
  20335686.276    -5005543.408 5  -3900435.64721
  18724732.0734  -25526811.25147 -17201101.55663
 91  4  7 23 58 59.9910000  0  5G15G 2G13G19G 6
  21211317.1754   -4820116.25845  -3688332.15361
  18340440.1834  -31794873.59048 -24474719.70964
  20434293.847    -7278006.197 5  -2907820.18921
  20339561.972    -4985174.834 6  -3884564.11421
  18716840.4254  -25568281.22847 -17233415.78763
 91  4  7 23 59 14.9910000  0  5G15G 2G13G19G 6
  21205415.9254   -4851115.66245  -3712487.45661
  18337446.3704  -31810605.89348 -24486978.64164
  20420660.073    -7349654.663 5  -2963649.95421
  20343450.6204   -4964737.20945  -3868638.76461
  18708959.2614  -25609700.60847 -17265690.59863
 91  4  7 23 59 29.9910000  0  5G15G 2G13G19G 6
  21199539.823    -4881999.891 5  -3736553.01621
  18334461.2924  -31826291.26248 -24499200.99964
  20407038.7534   -7421238.25045  -3019429.18161
  20347350.558    -4944233.432 5  -3852661.87221
  18701086.3554  -25651071.81047 -17297927.86263
 91  4  7 23 59 44.9910000  0  5G15G 2G13G19G 6
  21193684.487    -4912770.370 5  -3760529.94621
  18331484.5664  -31841931.28548 -24511388.02564
  20393428.480    -7492758.020 6  -3075158.70221
  20351267.964    -4923664.959 5  -3836634.56821
  18693222.1984  -25692396.11747 -17330128.58263
 91  4  7 23 59 59.9910000  0  5G15G 2G13G19G 6
  21187851.6124   -4943420.40845  -3784413.02361
  18328518.4874  -31857519.57548 -24523534.73863
  20379835.6124   -7564207.25246  -3130833.21761
  20355192.886    -4903025.311 5  -3820551.81021
  18685368.3234  -25733666.93047 -17362287.62363
 91  4  8  0  0 14.9910000  0  5G15G 2G13G19G 6
  21182041.386    -4973955.752 5  -3808206.72321
  18325560.8704  -31873062.09448 -24535645.78263
  20366248.8474   -7635591.58646  -3186457.20761
  20359134.784    -4882320.494 5  -3804418.26521
  18677524.8554  -25774889.83247 -17394409.33663
 91  4  8  0  0 29.9910000  0  5G15G 2G13G19G 6
  21176254.073    -5004369.663 5  -3831905.79921
  18322613.8394  -31888552.28448 -24547716.05563
  20352678.558    -7706903.975 6  -3242025.13221
  20363088.167    -4861543.832 5  -3788228.73321
  18669690.2534  -25816057.89647 -17426488.31063
 91  4  8  0  0 44.9910000  0  5G15G 2G13G19G 6
  21170487.8554   -5034667.43145  -3855514.38961
  18319674.1674  -31903995.69548 -24559749.87364
  20339120.636    -7778149.524 6  -3297540.95521
  20367053.425    -4840700.958 5  -3771987.61421
  18661865.8474  -25857176.51147 -17458528.75763
 91  4  8  0  0 59.9910000  0  5G15G 2G13G19G 6
  21164747.003    -5064843.438 5  -3879028.08021
  18316745.1284  -31919387.09748 -24571743.16764
  20325575.9254   -7849322.55246  -3353000.28261
  20371032.737    -4819786.845 5  -3755690.98521
  18654051.5664  -25898240.08147 -17490526.31063
 91  4  8  0  1 14.9910000  0  5G15G 2G13G19G 6
  21159026.8314   -5094903.35645  -3902451.31061
  18313827.0344  -31934732.40148 -24583700.54063
  20312045.105    -7920428.394 6  -3408407.23921
  20375023.495    -4798807.503 5  -3739343.52821
  18646247.0344  -25939254.18747 -17522485.32063
 91  4  8  0  1 29.9910000  0  5G15G 2G13G19G 6
  21153325.9804   -5124841.55645  -3925779.70861
  18310916.3084  -31950026.26548 -24595617.82464
  20298527.628    -7991461.670 6  -3463757.66721
  20379031.5424   -4777757.57545  -3722941.06761
  18638451.7304  -25980213.40547 -17554401.56663
 91  4  8  0  1 44.9910000  0  5G15G 2G13G19G 6
  21147653.566    -5154659.582 5  -3949014.46021
  18308014.3084  -31965270.61648 -24607496.53064
  20285023.519    -8062423.778 6  -3519052.64621
  20383051.651    -4756638.895 5  -3706485.03521
  18630668.9334  -26021119.14547 -17586276.13563
 91  4  8  0  1 59.9910000  0  5G15G 2G13G19G 6
  21142000.050    -5184364.172 5  -3972160.81021
  18305121.4874  -31980472.59548 -24619342.21864
  20271530.9874   -8133321.26646  -3574297.25461
  20387081.862    -4735458.566 5  -3689980.96521
  18622892.3864  -26061978.25047 -17618114.36863
 91  4  8  0  2 14.9910000  0  5G15G 2G13G19G 6
  21136371.503    -5213948.559 5  -3995213.50121
  18302237.4724  -31995625.46348 -24631149.63664
  20258054.5264   -8204147.01446  -3629485.95761
  20391125.097    -4714209.980 5  -3673423.71021
  18615127.2224  -26102783.73647 -17649910.82263
 91  4  8  0  2 29.9910000  0  5G15G 2G13G19G 6
  21130764.675    -5243417.308 5  -4018176.09021
  18299363.4484  -32010734.33248 -24642922.77364
  20244588.011    -8274905.770 6  -3684622.46521
  20395177.4564   -4692898.08745  -3656817.12561
  18607372.4644  -26143540.19447 -17681669.06963
 91  4  8  0  2 44.9910000  0  5G15G 2G13G19G 6
  21125178.1514   -5272762.31845  -4041042.24661
  18296497.9094  -32025791.56648 -24654655.67264
  20231137.1514   -8345589.10046  -3739700.21061
  20399251.3554   -4671515.32345  -3640155.31561
  18599628.0034  -26184239.61647 -17713382.87563
 91  4  8  0  2 59.9910000  0  5G15G 2G13G19G 6
  21119618.097    -5301992.258 5  -4063818.76321
  18293640.8944  -32040806.04148 -24666355.25164
  20217701.3704   -8416205.92346  -3794726.13661
  20403331.9014   -4650070.65045  -3623445.27161
  18591891.7064  -26224890.79447 -17745059.08363
 91  4  8  0  3 14.9910000  0  5G15G 2G13G19G 6
  21114076.417    -5331109.278 5  -4086507.27921
  18290791.0034  -32055779.86548 -24678023.16064
  20204276.9724   -8486758.03646  -3849701.63061
  20407422.847    -4628566.149 5  -3606688.60121
  18584164.8864  -26265495.35947 -17776698.97163
 91  4  8  0  3 29.9910000  0  5G15G 2G13G19G 6
  21108557.2614   -5360104.94345  -4109101.23561
  18287951.2304  -32070705.10448 -24689653.20764
  20190862.6204   -8557236.64046  -3904619.85661
  20411526.0114   -4606993.90645  -3589879.14961
  18576447.8474  -26306045.29247 -17808296.28663
 91  4  8  0  3 44.9910000  0  5G15G 2G13G19G 6
  21103066.855    -5388972.737 5  -4131595.54721
  18285121.1284  -32085575.44948 -24701240.47864
  20177466.370    -8627635.142 6  -3959475.64021
  20415646.378    -4585347.607 5  -3573011.99221
  18568745.0264  -26346533.76147 -17839845.70663
 91  4  8  0  3 59.9910000  0  5G15G 2G13G19G 6
  21097593.737    -5417725.985 5  -4154000.60921
  18282299.4804  -32100404.52748 -24712795.59464
  20164081.112    -8697966.942 6  -4014279.46421
  20419777.7924   -4563641.13245  -3556097.95261
  18561047.6364  -26386974.33947 -17871357.81663
 91  4  8  0  4 14.9910000  0  5G15G 2G13G19G 6
  21092143.3554   -5446359.65245  -4176312.47061
  18279485.7924  -32115187.73848 -24724314.97164
  20150713.8234   -8768226.90146  -4069027.32461
  20423920.987    -4541869.699 5  -3539133.27621
  18553362.4094  -26427361.87047 -17902828.58163
 91  4  8  0  4 29.9910000  0  5G15G 2G13G19G 6
  21086721.1124   -5474866.51045  -4198525.54961
  18276683.0264  -32129917.96848 -24735793.06264
  20137358.9484   -8838407.52046  -4123713.33361
  20428079.2374   -4520026.21345  -3522112.48061
  18545688.8084  -26467688.98747 -17934252.26663
 91  4  8  0  4 44.9910000  0  5G15G 2G13G19G 6
  21081318.276    -5503254.447 5  -4220645.94421
  18273888.0424  -32144603.00148 -24747235.93364
  20124016.4094   -8908516.23446  -4178343.31961
  20432245.761    -4498118.456 5  -3505041.58321
  18538024.7304  -26507963.29047 -17965634.79863
 91  4  8  0  4 59.9910000  0  5G15G 2G13G19G 6
  21075938.183    -5531521.583 5  -4242672.22021
  18271103.7614  -32159241.58448 -24758642.61364
  20110689.0114   -8978551.46646  -4232916.06761
  20436425.3474   -4476145.35945  -3487919.77761
  18530370.3314  -26548183.02047 -17996974.81063
 91  4  8  0  5 14.9910000  0  5G15G 2G13G19G 6
  21070584.5264   -5559665.34945  -4264602.36261
  18268327.230   -32173831.469 8 -24770011.34024
  20097376.308    -9048510.402 6  -4287429.33921
  20440622.3164   -4454104.74245  -3470745.36261
  18522727.776   -26588345.696 7 -18028270.35723
 91  4  8  0  5 29.9910000  0  5G15G 2G13G19G 6
  21065251.0344   -5587692.81445  -4286441.86261
  18265558.3084  -32188380.01748 -24781347.86164
  20084076.612    -9118399.963 6  -4341888.56721
  20444827.9724   -4432003.94045  -3453524.05561
  18515094.800   -26628458.473 7 -18059527.02123
 91  4  8  0  5 44.9910000  0  5G15G 2G13G19G 6
  21059940.4644   -5615599.86245  -4308187.54261
  18262797.7224  -32202883.75548 -24792649.46664
  20070791.558    -9188216.288 6  -4396290.71021
  20449045.6674   -4409839.39745  -3436253.05661
  18507472.011   -26668517.355 7 -18090741.68823
 91  4  8  0  5 59.9910000  0  5G15G 2G13G19G 6
  21054653.6284   -5643380.32945  -4329834.59861
  18260047.667   -32217336.428 8 -24803911.27824
  20057520.6284   -9257952.72846  -4450630.63061
  20453275.5264   -4387604.77545  -3418927.47961
  18499860.542   -26708515.866 7 -18121909.31023
 91  4  8  0  6 14.9910000  0  5G15G 2G13G19G 6
  21049389.7764   -5671037.07245  -4351385.24061
  18257307.034   -32231740.713 8 -24815135.38424
  20044263.8084   -9327612.00946  -4504910.40661
  20457520.1754   -4365303.21245  -3401549.72861
  18492259.534   -26748456.646 7 -18153031.95023
 91  4  8  0  6 29.9910000  0  5G15G 2G13G19G 6
  21044149.519    -5698574.680 5  -4372843.03621
  18254574.2614  -32246101.87948 -24826325.89364
  20031022.2144   -9397198.47446  -4559133.47061
  20461775.206    -4342939.718 5  -3384123.73321
  18484669.355   -26788344.356 7 -18184113.23923
 91  4  8  0  6 44.9910000  0  5G15G 2G13G19G 6
  21038933.5424   -5725983.94645  -4394200.82861
  18251851.495   -32260411.230 8 -24837476.02424
  20017795.855    -9466703.045 6  -4613292.70621
  20466045.6284   -4320505.53245  -3366642.64861
  18477090.269   -26828169.893 7 -18215146.08123
 91  4  8  0  6 59.9910000  0  5G15G 2G13G19G 6
  21033741.769    -5753269.290 5  -4415462.06521
  18249137.0974  -32274673.33648 -24848589.34364
  20004585.378    -9536129.980 6  -4667391.44121
  20470328.5664   -4298005.48045  -3349110.24261
  18469523.144   -26867937.618 7 -18246133.87123
 91  4  8  0  7 14.9910000  0  5G15G 2G13G19G 6
  21028571.159    -5780432.982 5  -4436628.53121
  18246432.0664  -32288890.61148 -24859667.73064
  19991386.933    -9605481.224 6  -4721431.20321
  20474622.4334   -4275441.71145  -3331528.17261
  18461965.245   -26907649.599 7 -18277078.22523
 91  4  8  0  7 29.9910000  0  5G15G 2G13G19G 6
  21023425.300    -5807475.229 5  -4457700.33321
  18243734.9724  -32303063.50348 -24870711.53964
  19978203.401    -9674757.003 6  -4775412.17121
  20478925.956    -4252814.827 5  -3313896.92821
  18454420.003   -26947305.962 7 -18307979.23923
 91  4  8  0  7 44.9910000  0  5G15G 2G13G19G 6
  21018304.8004   -5834384.52845  -4478668.56461
  18241048.073   -32317180.923 8 -24881712.11224
  19965037.964    -9743945.582 6  -4829325.18021
  20483247.597    -4230113.763 5  -3296207.88821
  18446886.159   -26986895.274 7 -18338828.00723
 91  4  8  0  7 59.9910000  0  5G15G 2G13G19G 6
  21013208.073    -5861172.613 5  -4499542.32121
  18238369.8704  -32331254.76048 -24892678.73364
  19951886.4724   -9813058.37646  -4883179.14661
  20487576.7144   -4207350.66345  -3278470.51261
  18439363.480   -27026429.387 7 -18369633.76323
 91  4  8  0  8 14.9910000  0  5G15G 2G13G19G 6
  21008133.9254   -5887839.20645  -4520321.41061
  18235700.2454  -32345284.71648 -24903611.15364
  19938748.8164   -9882094.99146  -4936973.72861
  20491922.9724   -4184525.08945  -3260684.43561
  18431850.698   -27065907.463 7 -18400395.85323
 91  4  8  0  8 29.9910000  0  5G15G 2G13G19G 6
  21003084.3314   -5914383.57845  -4541005.27961
  18233038.2614  -32359270.28848 -24914508.99264
  19925626.620    -9951054.452 6  -4990708.21321
  20496275.675    -4161636.745 5  -3242849.47021
  18424348.636   -27105328.953 7 -18431113.85023
 91  4  8  0  8 44.9910000  0  5G15G 2G13G19G 6
  20998054.659    -5940799.981 5  -4561589.42621
  18230386.8864  -32373206.06448 -24925368.03164
  19912518.441   -10019931.213 6  -5044378.24821
  20500648.5114   -4138680.33445  -3224961.45361
  18416859.675   -27144688.080 7 -18461783.25623
 91  4  8  0  8 59.9910000  0  5G15G 2G13G19G 6
  20993052.128    -5967095.103 6  -4582079.05821
  18227743.0344  -32387099.46248 -24936194.04864
  19899426.2764  -10088731.97246  -5097989.07361
  20505027.2374   -4115663.06945  -3207026.01061
  18409379.120   -27183991.739 7 -18492409.44023
 91  4  8  0  9 14.9910000  0  5G15G 2G13G19G 6
  20988072.691    -5993261.516 6  -4602468.40721
  18225109.0814  -32400943.04348 -24946981.24464
  19886351.8234  -10157448.86246  -5151534.53461
  20509419.1124   -4092577.63545  -3189037.45761
  18401912.753   -27223232.293 7 -18522986.45323
 91  4  8  0  9 29.9910000  0  5G15G 2G13G19G 6
  20983115.5424   -6019304.55845  -4622761.62161
  18222483.0034  -32414742.32348 -24957733.92364
  19873287.112   -10226086.884 6  -5205018.53521
  20513823.6834   -4069429.40845  -3170999.97261
  18394455.9334  -27262414.74147 -18553518.19063
 91  4  8  0  9 44.9910000  0  5G15G 2G13G19G 6
  20978184.9644   -6045226.85646  -4642960.75361
  18219865.0734  -32428500.07048 -24968454.24264
  19860241.808   -10294648.638 6  -5258443.12421
  20518240.9254   -4046221.34945  -3152915.86261
  18387010.3164  -27301541.72647 -18584006.70663
 91  4  8  0  9 59.9910000  0  5G15G 2G13G19G 6
  20973274.4564   -6071023.58346  -4663062.03461
  18217255.4804  -32442211.97548 -24979138.83564
  19847210.8864  -10363129.28046  -5311804.50461
  20522668.1364   -4022949.18445  -3134781.81161
  18379576.7534  -27340608.50547 -18614448.31463
 91  4  8  0 10 14.9910000  0  5G15G 2G13G19G 6
  20968390.0734   -6096695.44846  -4683066.02361
  18214654.6674  -32455878.98748 -24989788.44864
  19834194.136   -10431529.251 6  -5365103.01221
  20527111.542    -3999613.770 5  -3116598.47121
  18372153.6054  -27379615.72147 -18644843.51163
 91  4  8  0 10 29.9910000  0  5G15G 2G13G19G 6
  20963528.472    -6122239.153 6  -4702970.14321
  18212063.8164  -32469497.87648 -25000400.56164
  19821193.2144  -10499845.11046  -5418335.98361
  20531562.8864   -3976212.21845  -3098363.59761
  18364742.8474  -27418560.06347 -18675189.71263
 91  4  8  0 10 44.9910000  0  5G15G 2G13G19G 6
  20958692.058    -6147656.190 6  -4722775.55821
  18209480.8234  -32483070.49848 -25010976.62364
  19808209.823   -10568078.285 6  -5471504.54221
  20536031.425    -3952746.343 5  -3080078.60321
  18357343.8864  -27457442.91947 -18705488.00363
 91  4  8  0 10 59.9910000  0  5G15G 2G13G19G 6
  20953877.8234   -6172951.77646  -4742486.34161
  18206904.7224  -32496602.32048 -25021520.89564
  19795240.3864  -10636233.94146  -5524612.71161
  20540505.917    -3929221.589 5  -3061747.72621
  18349955.0264  -27496269.32847 -18735742.31663
 91  4  8  0 11 14.9910000  0  5G15G 2G13G19G 6
  20949089.5584   -6198120.52146  -4762098.29061
  18204338.9804  -32510087.97448 -25032029.18964
  19782286.1984  -10704306.35946  -5577655.98661
  20544994.901    -3905632.741 5  -3043366.90021
  18342578.5264  -27535033.84147 -18765948.39463
 91  4  8  0 11 29.9910000  0  5G15G 2G13G19G 6
  20944324.0894   -6223160.92046  -4781610.23961
  18201781.9414  -32523526.47448 -25042500.73764
  19769348.3784  -10772293.86846  -5630633.11561
  20549494.784    -3881978.496 5  -3024935.12021
  18335213.9174  -27573734.88847 -18796105.01463
 91  4  8  0 11 44.9910000  0  5G15G 2G13G19G 6
  20939584.0814   -6248075.28746  -4801023.95761
  18199233.0504  -32536920.12248 -25052937.34064
  19756426.089   -10840198.571 6  -5683545.72321
  20554009.8004   -3858261.46045  -3006454.41561
  18327860.9564  -27612374.60347 -18826213.84963
 91  4  8  0 11 59.9910000  0  5G15G 2G13G19G 6
  20934864.3314   -6272869.24546  -4820343.86161
  18196691.0584  -32550274.71748 -25063343.50764
  19743519.511   -10908026.068 6  -5736398.18621
  20558531.917    -3834487.641 5  -2987929.46321
  18320519.7694  -27650958.48647 -18856279.17963
 91  4  8  0 12 14.9910000  0  5G15G 2G13G19G 6
  20930172.2694   -6297530.63546  -4839560.46361
  18194160.0034  -32563578.54648 -25073710.11964
  19730628.0424  -10975764.33146  -5789181.10361
  20563068.292    -3810645.325 5  -2969351.13721
  18313189.1984  -27689474.58947 -18886291.69463
 91  4  8  0 12 29.9910000  0  5G15G 2G13G19G 6
  20925500.253    -6322069.041 6  -4858681.23221
  18191636.6284  -32576841.32848 -25084044.74364
  19717752.6594  -11043422.36346  -5841901.49561
  20567616.901    -3786744.177 5  -2950726.97221
  18305872.2064  -27727932.21647 -18916258.64063
 91  4  8  0 12 44.9910000  0  5G15G 2G13G19G 6
  20920854.6284   -6346486.22146  -4877707.54961
  18189119.6054  -32590065.07648 -25094348.95564
  19704894.761   -11111001.880 6  -5894560.71221
  20572177.136    -3762786.296 5  -2932058.59221
  18298564.1444  -27766332.99147 -18946181.29063
 91  4  8  0 12 59.9910000  0  5G15G 2G13G19G 6
  20916231.792    -6370779.851 5  -4896637.58221
  18186610.8704  -32603247.70448 -25104621.12864
  19692049.831   -11178500.462 6  -5947156.87121
  20576750.816    -3738769.756 5  -2913344.51021
  18291266.9414  -27804674.70947 -18976057.92563
 91  4  8  0 13 14.9910000  0  5G15G 2G13G19G 6
  20911633.1834   -6394946.42945  -4915468.62861
  18184111.4334  -32616385.86748 -25114858.65264
  19679221.550   -11245914.359 6  -5999687.02121
  20581329.644    -3714690.968 5  -2894581.93321
  18283983.6834  -27842953.51847 -19005885.53663
 91  4  8  0 13 29.9910000  0  5G15G 2G13G19G 6
  20907061.058    -6418979.102 5  -4934195.33821
  18181620.4254  -32629472.93748 -25125056.36364
  19666409.159   -11313236.465 6  -6052145.66821
  20585923.6284   -3690543.61645  -2875765.90761
  18276711.7224  -27881162.67847 -19035658.87363
 91  4  8  0 13 44.9910000  0  5G15G 2G13G19G 6
  20902509.2224   -6442888.87545  -4952826.27061
  18179138.0974  -32642520.33848 -25135223.16164
  19653613.339   -11380477.851 6  -6104541.41321
  20590529.980    -3666339.064 5  -2856905.33021
  18269452.4414  -27919312.99047 -19065386.35763
 91  4  8  0 13 59.9910000  0  5G15G 2G13G19G 6
  20897983.370    -6466675.266 5  -4971361.07021
  18176663.0034  -32655527.57548 -25145358.66064
  19640832.8004  -11447637.87046  -6156873.75361
  20595146.034    -3642076.985 5  -2837999.91521
  18262204.5974  -27957404.00147 -19095067.63263
 91  4  8  0 14 14.9910000  0  5G15G 2G13G19G 6
  20893482.487    -6490337.153 5  -4989798.85421
  18174195.5264  -32668493.93048 -25155462.30464
  19628067.073   -11514715.219 6  -6209141.67321
  20599777.1204   -3617756.85645  -2819049.26661
  18254968.3084  -27995434.48247 -19124701.74263
 91  4  8  0 14 29.9910000  0  5G15G 2G13G19G 6
  20889002.784    -6513872.531 5  -5008138.05721
  18171735.8554  -32681417.50348 -25165532.61764
  19615321.0114  -11581707.40546  -6261343.23561
  20604415.612    -3593376.549 5  -2800051.73021
  18247742.3784  -28033402.19847 -19154286.93863
 91  4  8  0 14 44.9910000  0  5G15G 2G13G19G 6
  20884546.151    -6537278.608 5  -5026376.50621
  18169284.7374  -32694295.79148 -25175567.63864
  19602589.7064  -11648611.62046  -6313476.25161
  20609067.605    -3568933.522 5  -2781005.32021
  18240529.7224  -28071304.41147 -19183821.10363
 91  4  8  0 14 59.9910000  0  5G15G 2G13G19G 6
  20880119.0894   -6560556.62646  -5044515.16761
  18166842.9874  -32707130.11648 -25185568.40764
  19589874.917   -11715428.999 6  -6365541.61121
  20613729.409    -3544429.585 5  -2761911.44721
  18233329.8704  -28109142.03647 -19213304.93463
 91  4  8  0 15 14.9910000  0  5G15G 2G13G19G 6
  20875712.175    -6583708.659 6  -5062555.66121
  18164408.2534  -32719922.76348 -25195536.69664
  19577175.0424  -11782161.59246  -6417540.88061
  20618405.0814   -3519866.99545  -2742771.85761
  18226140.8164  -28146917.15947 -19242740.06363
 91  4  8  0 15 29.9910000  0  5G15G 2G13G19G 6
  20871332.534    -6606732.384 5  -5080496.17221
  18161982.7304  -32732671.52248 -25205470.78464
  19564492.933   -11848806.660 6  -6469471.96621
  20623090.566    -3495243.396 5  -2723584.76221
  18218965.0734  -28184627.13147 -19272124.42463
 91  4  8  0 15 44.9910000  0  5G15G 2G13G19G 6
  20866973.3704   -6629634.01545  -5098341.55461
  18159564.3944  -32745383.14948 -25215375.94264
  19551826.019   -11915370.497 6  -6521339.75621
  20627785.9724   -3470565.82845  -2704355.58661
  18211799.6834  -28222278.59547 -19301463.19763
 91  4  8  0 15 59.9910000  0  5G15G 2G13G19G 6
  20862639.730    -6652404.256 6  -5116084.55021
  18157153.8314  -32758048.29448 -25225244.88164
  19539176.612   -11981843.434 6  -6573136.73021
  20632492.136    -3445824.950 5  -2685077.08321
  18204647.9484  -28259861.64747 -19330748.65763
 91  4  8  0 16 14.9910000  0  5G15G 2G13G19G 6
  20858331.855    -6675046.027 5  -5133727.44521
  18154751.3944  -32770670.23048 -25235080.14664
  19526544.331   -12048228.507 6  -6624865.21321
  20637214.8084   -3421023.89945  -2665751.69861
  18197508.0424  -28297379.51047 -19359983.32263
 91  4  8  0 16 29.9910000  0  5G15G 2G13G19G 6
  20854048.308    -6697557.617 5  -5151268.88721
  18152358.0504  -32783247.23248 -25244880.40264
  19513928.941   -12114523.504 6  -6676523.51621
  20641946.4414   -3396161.15445  -2646378.23461
  18190382.4724  -28334830.09047 -19389165.55963
 91  4  8  0 16 44.9910000  0  5G15G 2G13G19G 6
  20849787.026    -6719944.518 5  -5168713.18421
  18149971.8004  -32795785.26648 -25254650.29464
  19501327.659   -12180733.727 6  -6728115.76221
  20646687.7694   -3371242.61845  -2626961.31861
  18183266.8314  -28372218.81447 -19418299.59463
 91  4  8  0 16 59.9910000  0  5G15G 2G13G19G 6
  20845551.4334   -6742203.94545  -5186058.14561
  18147594.4564  -32808281.57448 -25264387.66864
  19488746.050   -12246856.361 6  -6779639.75821
  20651442.112    -3346265.821 5  -2607498.97521
  18176164.0034  -28409542.80747 -19447383.19363
 91  4  8  0 17 14.9910000  0  5G15G 2G13G19G 6
  20841339.425    -6764336.775 5  -5203304.46221
  18145223.4564  -32820737.46448 -25274093.55064
  19476178.886   -12312892.379 6  -6831096.25821
  20656203.4954   -3321231.92145  -2587992.16561
  18169074.0734  -28446803.21647 -19476417.24563
 91  4  8  0 17 29.9910000  0  5G15G 2G13G19G 6
  20837152.6204   -6786339.50945  -5220449.39561
  18142862.5034  -32833149.36148 -25283765.14764
  19463630.698   -12378837.801 6  -6882482.17421
  20660976.4724   -3296137.36045  -2568438.05061
  18161996.1124  -28483995.65047 -19505398.33263
 91  4  8  0 17 44.9910000  0  5G15G 2G13G19G 6
  20832989.3784   -6808209.06045  -5237490.56761
  18140509.2764  -32845514.44548 -25293400.27264
  19451099.480   -12444689.259 6  -6933794.86321
  20665768.964    -3270979.467 5  -2548834.60621
  18154932.7614  -28521117.22947 -19534324.20663
 91  4  8  0 17 59.9900000  0  5G15G 2G13G19G 6
  20828854.6784   -6829944.56446  -5254427.27961
  18138165.1154  -32857832.59448 -25302998.82464
  19438587.6074  -12510442.89946  -6985031.33261
  20670568.084    -3245760.836 5  -2529183.83221
  18147882.6784  -28558166.09847 -19563193.42363
 91  4  8  0 18 14.9900000  0  5G15G 2G13G19G 6
  20824744.4824   -6851547.78646  -5271260.89261
  18135829.2014  -32870104.43248 -25312561.28964
  19426089.772   -12576106.165 6  -7036197.38021
  20675378.2724   -3220477.35745  -2509482.51761
  18140845.6864  -28595145.71047 -19592008.67063
 91  4  8  0 18 29.9900000  0  5G15G 2G13G19G 6
  20820657.584    -6873023.243 6  -5287994.97721
  18133502.9364  -32882335.38048 -25322091.89164
  19413612.490   -12641680.469 6  -7087294.11221
  20680197.459    -3195136.904 5  -2489736.82621
  18133821.0454  -28632059.61847 -19620772.71863
 91  4  8  0 18 44.9900000  0  5G15G 2G13G19G 6
  20816594.990    -6894366.176 6  -5304625.79221
  18131183.6784  -32894521.05948 -25331587.21164
  19401153.272   -12707160.803 6  -7138317.60621
  20685034.1624   -3169735.18945  -2469943.37061
  18126809.6394  -28668903.07747 -19649481.87363
 91  4  8  0 18 59.9900000  0  5G15G 2G13G19G 6
  20812559.584    -6915579.574 6  -5321155.66621
  18128872.7644  -32906664.60848 -25341049.71264
  19388707.8504  -12772550.08546  -7189270.16761
  20689877.8184   -3144275.19645  -2450104.53061
  18119810.9754  -28705678.73947 -19678138.20263
 91  4  8  0 19 14.9900000  0  5G15G 2G13G19G 6
  20808546.4754   -6936663.30146  -5337584.51161
  18126570.4674  -32918765.89248 -25350479.27964
  19376284.3034  -12837848.07146  -7240151.57561
  20694734.7954   -3118757.16645  -2430220.44761
  18112825.7564  -28742386.46847 -19706741.59863
 91  4  8  0 19 29.9900000  0  5G15G 2G13G19G 6
  20804559.740    -6957616.454 6  -5353911.59921
  18124275.8114  -32930824.06348 -25359875.24864
  19363875.131   -12903053.483 6  -7290960.85421
  20699603.2794   -3093180.01244  -2410290.31161
  18105854.3734  -28779024.94747 -19735291.02663
 91  4  8  0 19 44.9900000  0  5G15G 2G13G19G 6
  20800600.0764   -6978436.31746  -5370134.81761
  18121989.5534  -32942836.86248 -25369235.86464
  19351484.8424  -12968163.91146  -7341696.11861
  20704480.217    -3067541.711 5  -2390312.52421
  18098895.6074  -28815591.47947 -19763784.39663
 91  4  8  0 19 59.9900000  0  5G15G 2G13G19G 6
  20796660.857    -6999128.405 6  -5386258.48221
  18119711.8654  -32954810.02048 -25378565.59264
  19339110.3344  -13033184.64246  -7392361.50061
  20709367.7644   -3041848.10745  -2370291.63361
  18091949.8264  -28852091.69147 -19792226.08463
 91  4  8  0 20 14.9900000  0  5G15G 2G13G19G 6
  20792748.3424   -7019689.34846  -5402279.95461
  18117440.5614  -32966740.01248 -25387861.67964
  19326756.4754  -13098111.61446  -7442953.79861
  20714272.123    -3016095.669 4  -2350224.91721
  18085017.0764  -28888521.80647 -19820613.15563
 91  4  8  0 20 29.9900000  0  5G15G 2G13G19G 6
  20788859.3344   -7040114.03446  -5418195.23961
  18115180.4044  -32978622.08548 -25397120.43164
  19314420.0144  -13162939.64446  -7493469.02361
  20719181.584    -2990279.665 4  -2330108.63921
  18078099.1934  -28924876.49347 -19848941.44663
 91  4  8  0 20 44.9900000  0  5G15G 2G13G19G 6
  20785000.0224   -7060409.51546  -5434009.85361
  18112926.1784  -32990463.54248 -25406347.53264
  19302101.7324  -13227675.81746  -7543912.66761
  20724107.8184   -2964407.60945  -2309948.71361
  18071193.9434  -28961162.84347 -19877216.49363
 91  4  8  0 20 59.9900000  0  5G15G 2G13G19G 6
  20781161.256    -7080570.783 6  -5449719.88921
  18110681.7094  -33002259.42048 -25415539.11564
  19289799.2094  -13292314.73546  -7594280.52461
  20729040.897    -2938474.586 5  -2289741.27821
  18064303.1154  -28997375.54847 -19905434.15463
 91  4  8  0 21 14.9900000  0  5G15G 2G13G19G 6
  20777352.0534   -7100597.85646  -5465325.34461
  18108446.0764  -33014009.64948 -25424695.11764
  19277518.397   -13356856.109 6  -7644572.38021
  20733988.889    -2912480.807 4  -2269486.50021
  18057426.3264  -29033514.45047 -19933594.30163
 91  4  8  0 21 29.9900000  0  5G15G 2G13G19G 6
  20773564.4044   -7120495.33746  -5480829.82061
  18106217.803   -33025719.231 8 -25433819.46224
  19265253.467   -13421304.403 6  -7694791.70021
  20738946.5224   -2886431.25844  -2249188.26761
  18050562.5764  -29069584.04247 -19961700.44263
 91  4  8  0 21 44.9900000  0  5G15G 2G13G19G 6
  20769802.920    -7140256.753 6  -5496228.28821
  18103998.0064  -33037381.85948 -25442907.21664
  19253008.5224  -13485653.00146  -7744933.33861
  20743915.529    -2860319.710 5  -2228841.71021
  18043712.4594  -29105577.88747 -19989747.56363
 91  4  8  0 21 59.9900000  0  5G15G 2G13G19G 6
  20766068.9204   -7159889.41846  -5511526.43761
  18101786.0924  -33049005.15148 -25451964.32264
  19240779.8424  -13549909.54846  -7795003.23761
  20748891.365    -2834153.889 5  -2208452.88221
  18036876.3574  -29141503.29047 -20017741.35063
 91  4  8  0 22 14.9900000  0  5G15G 2G13G19G 6
  20762358.068    -7179387.601 6  -5526719.76821
  18099582.5844  -33060583.42648 -25460986.34964
  19228571.654   -13614067.953 6  -7844996.67221
  20753883.5224   -2807928.30345  -2188017.48261
  18030054.6474  -29177354.16447 -20045677.06563
 91  4  8  0 22 29.9900000  0  5G15G 2G13G19G 6
  20758675.568    -7198752.067 6  -5541808.92121
  18097387.9434  -33072117.76248 -25469974.14464
  19216382.1394  -13678128.49746  -7894913.84961
  20758884.506    -2781643.669 5  -2167536.05021
  18023246.6544  -29213131.24347 -20073555.28363
 91  4  8  0 22 44.9900000  0  5G15G 2G13G19G 6
  20755015.334    -7217985.938 6  -5556796.31021
  18095200.4044  -33083611.34248 -25478930.17464
  19204208.7324  -13742093.95546  -7944756.93161
  20763898.4674   -2755303.33745  -2147011.23361
  18016450.9904  -29248837.26947 -20101378.12663
 91  4  8  0 22 59.9900000  0  5G15G 2G13G19G 6
  20751381.9904   -7237087.61946  -5571680.69761
  18093021.4904  -33095062.58448 -25487853.21764
  19192056.3424  -13805962.55646  -7994524.53961
  20768918.912    -2728906.025 5  -2126442.02121
  18009670.6394  -29284470.48247 -20129144.23863
 91  4  8  0 23 14.9900000  0  5G15G 2G13G19G 6
  20747768.4124   -7256060.08046  -5586464.38461
  18090849.3974  -33106474.92748 -25496745.94864
  19179918.842   -13869737.477 6  -8044219.16321
  20773954.889    -2702455.198 5  -2105831.09021
  18002902.764   -29320033.937 7 -20156855.99523
 91  4  8  0 23 29.9900000  0  5G15G 2G13G19G 6
  20744181.6704   -7274903.30546  -5601147.37561
  18088686.5064  -33117848.34148 -25505608.34464
  19167801.1624  -13933418.55646  -8093840.65461
  20778998.764    -2675951.168 5  -2085178.74021
  17996148.2564  -29355527.58047 -20184513.35263
 91  4  8  0 23 44.9900000  0  5G15G 2G13G19G 6
  20740620.6864   -7293611.97746  -5615725.52361
  18086530.6864  -33129177.64348 -25514436.36964
  19155702.029   -13997000.128 6  -8143384.60721
  20784054.678    -2649388.662 5  -2064480.78221
  17989410.1474  -29390945.64147 -20212111.81263
 91  4  8  0 23 59.9900000  0  5G15G 2G13G19G 6
  20737087.045    -7312187.514 6  -5630199.92021
  18084381.2014  -33140464.49148 -25523231.31664
  19143620.2564  -14060483.30346  -8192851.87961
  20789119.1154   -2622769.26545  -2043738.51961
  17982683.779   -29426289.468 7 -20239652.43023
 91  4  8  0 24 14.9900000  0  5G15G 2G13G19G 6
  20733580.186    -7330630.659 6  -5644571.16321
  18082241.7254  -33151709.87548 -25531993.94964
  19131560.5224  -14123868.74646  -8242243.01661
  20794196.2404   -2596094.22045  -2022952.90561
  17975971.686   -29461559.747 7 -20267135.74323
 91  4  8  0 24 29.9900000  0  5G15G 2G13G19G 6
  20730093.006    -7348939.128 6  -5658837.45621
  18080111.1864  -33162911.40148 -25540722.41264
  19119516.006   -14187153.975 6  -8291556.04821
  20799282.740    -2569361.085 5  -2002122.00221
  17969274.498   -29496753.870 7 -20294559.70923
 91  4  8  0 24 44.9900000  0  5G15G 2G13G19G 6
  20726634.4984   -7367116.07146  -5673001.27261
  18077986.7564  -33174072.42448 -25549419.31164
  19107492.2484  -14250341.89546  -8340793.26161
  20804378.951    -2542573.432 5  -1981248.65321
  17962590.311   -29531874.940 7 -20321926.75223
 91  4  8  0 24 59.9900000  0  5G15G 2G13G19G 6
  20723198.068    -7385157.716 6  -5687059.64621
  18075871.0684  -33185189.40548 -25558081.89764
  19095488.873   -14313428.543 6  -8389951.55321
  20809484.475    -2515727.567 5  -1960329.90421
  17955922.045   -29566918.933 7 -20349233.73623
 91  4  8  0 25 14.9900000  0  5G15G 2G13G19G 6
  20719795.4364   -7403064.61046  -5701013.03861
  18073763.6004  -33196262.69047 -25566710.43264
  19083500.5294  -14376413.99346  -8439031.00961
  20814610.686    -2488824.279 5  -1939366.42021
  17949269.389   -29601886.026 7 -20376480.79623
 91  4  8  0 25 29.9900000  0  5G15G 2G13G19G 6
  20716408.951    -7420838.036 6  -5714862.44121
  18071664.7564  -33207293.84847 -25575306.14064
  19071534.5844  -14439299.61846  -8488032.66261
  20819738.623    -2461865.264 5  -1918359.51821
  17942628.717   -29636777.534 7 -20403668.96323
 91  4  8  0 25 44.9900000  0  5G15G 2G13G19G 6
  20713053.0224   -7438480.43246  -5728609.72161
  18069573.3424  -33218285.59147 -25583871.13564
  19059586.3654  -14502087.62146  -8536958.26261
  20824879.8264   -2434853.28045  -1897311.33461
  17936002.7174  -29671595.87647 -20430800.11263
 91  4  8  0 25 59.9900000  0  5G15G 2G13G19G 6
  20709722.2404   -7455990.06646  -5742253.54461
  18067488.6154  -33229236.31047 -25592404.16464
  19047657.5844  -14564776.19346  -8585806.36961
  20830026.6234   -2407786.82944  -1876220.70861
  17929392.154   -29706339.045 7 -20457872.68723
 91  4  8  0 26 14.9900000  0  5G15G 2G13G19G 6
  20706418.8734   -7473355.33746  -5755784.88961
  18065415.0684  -33240134.64547 -25600896.37564
  19035749.1234  -14627353.44646  -8634567.74861
  20835193.482    -2380654.513 4  -1855078.77121
  17922796.639   -29740995.316 7 -20484877.54923
 91  4  8  0 26 29.9900000  0  5G15G 2G13G19G 6
  20703136.357    -7490592.774 6  -5769216.61921
  18063348.1394  -33250997.29047 -25609360.77564
  19023858.693   -14689835.927 6  -8683255.27721
  20840366.0684   -2353473.15644  -1833898.58461
  17916215.490   -29775581.010 7 -20511827.41923
 91  4  8  0 26 44.9900000  0  5G15G 2G13G19G 6
  20699879.600    -7507694.269 6  -5782542.40721
  18061289.2094  -33261816.06347 -25617790.98763
  19011988.232   -14752215.159 6  -8731862.34021
  20845549.5144   -2326234.88644  -1812674.09961
  17909648.936   -29810087.975 7 -20538715.94323
 91  4  8  0 26 59.9900000  0  5G15G 2G13G19G 6
  20696651.303    -7524660.790 6  -5795763.03821
  18059238.9514  -33272592.00947 -25626187.83264
  19000138.5374  -14814491.96646  -8780389.60461
  20850742.3574   -2298940.59944  -1791405.96061
  17903097.225   -29844516.839 7 -20565543.60623
 91  4  8  0 27 14.9900000  0  5G15G 2G13G19G 6
  20693450.2484   -7541492.59346  -5808878.67961
  18057196.3894  -33283325.61947 -25634551.68864
  18988306.7564  -14876666.57646  -8828837.23461
  20855948.647    -2271590.975 3  -1770094.67821
  17896560.998   -29878867.728 7 -20592310.51623
 91  4  8  0 27 29.9900000  0  5G15G 2G13G19G 6
  20690272.1624   -7558189.38846  -5821889.13861
  18055162.0844  -33294016.82147 -25642882.49564
  18976494.0684  -14938738.19246  -8877204.60061
  20861163.936    -2244185.962 4  -1748740.24321
  17890038.990   -29913140.116 7 -20619016.24923
 91  4  8  0 27 44.9900000  0  5G15G 2G13G19G 6
  20687124.076    -7574747.943 6  -5834791.85121
  18053136.0764  -33304662.23447 -25651177.62164
  18964702.4824  -15000703.34146  -8925489.01561
  20866386.904    -2216722.345 3  -1727340.14621
  17883532.186   -29947330.353 7 -20645657.97223
 91  4  8  0 27 59.9900000  0  5G15G 2G13G19G 6
  20683996.639    -7591177.803 6  -5847594.30121
  18051117.3114  -33315271.62047 -25659444.67364
  18952929.2174  -15062571.27246  -8973697.67261
  20871623.8344   -2189210.14843  -1705902.21261
  17877039.982   -29981448.166 7 -20672243.25723
 91  4  8  0 28 14.9900000  0  5G15G 2G13G19G 6
  20680894.2014   -7607470.32446  -5860289.73961
  18049107.3184  -33325836.21247 -25667676.82264
  18941175.561   -15124333.185 6  -9021823.71021
  20876870.100    -2161640.741 3  -1684419.68521
  17870563.998   -30015484.463 7 -20698765.02823
 91  4  8  0 28 29.9900000  0  5G15G 2G13G19G 6
  20677820.834    -7623627.186 6  -5872879.46521
  18047104.7404  -33336357.88947 -25675875.52864
  18929443.5144  -15185990.39046  -9069868.17061
  20882126.170    -2134015.927 4  -1662893.96621
  17864101.0764  -30049440.67247 -20725224.38263
 91  4  8  0 28 44.9900000  0  5G15G 2G13G19G 6
  20674774.2014   -7639649.87046  -5885364.63861
  18045109.7484  -33346838.73547 -25684042.42164
  18917729.6784  -15247544.53047  -9117832.31661
  20887394.654    -2106337.666 3  -1641326.56721
  17857654.764   -30083318.393 7 -20751622.58323
 91  4  8  0 28 59.9900000  0  5G15G 2G13G19G 6
  20671747.1624   -7655534.26146  -5897742.04861
  18043124.9824  -33357274.34247 -25692174.06064
  18906035.4754  -15308991.30346  -9165712.80361
  20892672.436    -2078602.012 4  -1619714.54321
  17851223.5374  -30117113.14947 -20777956.13563
 91  4  8  0 29 14.9900000  0  5G15G 2G13G19G 6
  20668753.178    -7671283.798 6  -5910014.38421
  18041145.3264  -33367668.53947 -25700273.43164
  18894363.6074  -15370333.93046  -9213512.12561
  20897962.279    -2050812.967 4  -1598060.84321
  17844807.7324  -30150828.41147 -20804227.74163
 91  4  8  0 29 29.9900000  0  5G15G 2G13G19G 6
  20665779.029    -7686902.223 6  -5922184.54221
  18039175.6314  -33378024.98147 -25708343.38464
  18882710.1314  -15431575.97847  -9261233.07861
  20903261.8264   -2022974.22644  -1576368.44261
  17838407.357   -30184467.836 7 -20830440.25323
 91  4  8  0 29 44.9900000  0  5G15G 2G13G19G 6
  20662833.9284   -7702380.28846  -5934245.35561
  18037213.8344  -33388334.29647 -25716376.61864
  18871076.4674  -15492707.70346  -9308868.06761
  20908568.7484   -1995076.55444  -1554630.12961
  17832021.6394  -30218021.42347 -20856585.88163
 91  4  8  0 29 59.9900000  0  5G15G 2G13G19G 6
  20659917.0294   -7717726.60046  -5946203.46161
  18035258.5144  -33398605.26347 -25724379.96463
  18859462.2254  -15553737.47846  -9356423.62361
  20913885.139    -1967128.860 5  -1532852.82321
  17825651.1234  -30251497.84847 -20882671.37863
 91  4  8  0 30 14.9900000  0  5G15G 2G13G19G 6
  20657018.8504   -7732935.28646  -5958054.34661
  18033312.8034  -33408832.36347 -25732349.12764
  18847868.4124  -15614659.50547  -9403895.20361
  20919216.857    -1939125.603 5  -1511032.24421
  17819296.9284  -30284891.08947 -20908692.05763
 91  4  8  0 30 29.9900000  0  5G15G 2G13G19G 6
  20654151.3184   -7748002.52245  -5969795.00761
  18031375.7404  -33419011.76347 -25740281.12163
  18836298.8574  -15675469.69847  -9451279.65361
  20924558.2794   -1911063.22944  -1489165.57861
  17812959.0684  -30318197.09047 -20934644.75563
 91  4  8  0 30 44.9900000  0  5G15G 2G13G19G 6
  20651310.451    -7762933.876 6  -5981429.78221
  18029447.2724  -33429149.18547 -25748180.40764
  18824746.068   -15736173.580 6  -9498581.26621
  20929905.2254   -1882947.50445  -1467257.37261
  17806635.3424  -30351421.34947 -20960533.75963
 91  4  8  0 30 59.9900000  0  5G15G 2G13G19G 6
  20648493.1704   -7777730.76846  -5992959.80561
  18027525.5764  -33439246.11947 -25756048.14364
  18813213.678   -15796772.277 6  -9545800.90821
  20935261.3574   -1854780.00045  -1445308.77361
  17800329.920   -30384564.883 7 -20986359.86423
 91  4  8  0 31 14.9900000  0  5G15G 2G13G19G 6
  20645702.1934   -7792397.83046  -6004388.62861
  18025611.2564  -33449307.12347 -25763887.88064
  18801701.6004  -15857269.89146  -9592941.79361
  20940635.803    -1826565.307 4  -1423323.44521
  17794037.9284  -30417632.17147 -21012126.55163
 91  4  8  0 31 29.9900000  0  5G15G 2G13G19G 6
  20642937.6784   -7806930.64446  -6015712.86261
  18023703.9594  -33459327.91147 -25771696.27364
  18790209.412   -15917661.743 6  -9640000.26321
  20946009.2484   -1798299.27345  -1401298.09761
  17787759.9594  -30450618.53147 -21037830.18063
 91  4  8  0 31 44.9900000  0  5G15G 2G13G19G 6
  20640198.7874   -7821323.00646  -6026927.66161
  18021805.8264  -33469302.64447 -25779468.79164
  18778739.4594  -15977941.76247  -9686971.59061
  20951406.514    -1769976.177 4  -1379228.27321
  17781499.2014  -30483517.74147 -21063465.90163
 91  4  8  0 31 59.9900000  0  5G15G 2G13G19G 6
  20637486.7094   -7835585.94046  -6038041.59861
  18019914.2484  -33479242.28647 -25787213.95964
  18767286.779   -16038120.613 7  -9733864.08221
  20956801.3424   -1741607.25644  -1357122.76961
  17775252.6314  -30516340.47347 -21089042.02763
 91  4  8  0 32 14.9900000  0  5G15G 2G13G19G 6
  20634800.2174   -7849712.28746  -6049049.11061
  18018031.5374  -33489139.52547 -25794926.08764
  18755856.5224  -16098190.81447  -9780671.91961
  20962212.131    -1713185.298 4  -1334975.93021
  17769022.795   -30549079.271 7 -21114552.75023
 91  4  8  0 32 29.9900000  0  5G15G 2G13G19G 6
  20632133.170    -7863702.912 6  -6059950.85221
  18016156.1314  -33498995.46847 -25802606.03764
  18744444.8654  -16158153.31047  -9827395.82961
  20967630.6864   -1684711.57444  -1312788.74861
  17762808.6394  -30581734.94947 -21139998.70463
 91  4  8  0 32 44.9900000  0  5G15G 2G13G19G 6
  20629496.8974   -7877558.69446  -6070747.53361
  18014287.2094  -33508811.57347 -25810254.94464
  18733054.4514  -16218009.16647  -9874036.64161
  20973057.522    -1656187.541 3  -1290562.34421
  17756610.2644  -30614308.53047 -21165380.68263
 91  4  8  0 32 59.9900000  0  5G15G 2G13G19G 6
  20626888.1234   -7891279.96846  -6081439.40961
  18012427.6624  -33518587.84547 -25817872.81064
  18721685.459   -16277758.127 7  -9920594.16121
  20978495.865    -1627613.499 3  -1268297.01221
  17750426.3574  -30646799.80247 -21190698.53363
 91  4  8  0 33 14.9900000  0  5G15G 2G13G19G 6
  20624302.1544   -7904869.76446  -6092028.83061
  18010574.7404  -33528327.18147 -25825461.89764
  18710335.420   -16337402.839 7  -9967070.45321
  20983943.186    -1598992.589 3  -1245995.14521
  17744259.4284  -30679211.48747 -21215954.36163
 91  4  8  0 33 29.9900000  0  5G15G 2G13G19G 6
  20621739.7794   -7918321.09646  -6102510.35161
  18008729.2874  -33538022.87047 -25833016.97064
  18699006.490   -16396936.038 7 -10013459.84521
  20989398.654    -1570317.939 3  -1223651.40321
  17738108.3264  -30711536.40647 -21241142.58163
 91  4  8  0 33 44.9900000  0  5G15G 2G13G19G 6
  20619209.9674   -7931631.38046  -6112881.96961
  18006892.2724  -33547672.41947 -25840536.09264
  18687699.5064  -16456354.93647 -10059760.16961
  20994862.5924   -1541587.12643  -1201263.91061
  17731973.7324  -30743771.76847 -21266261.01963
 91  4  8  0 33 59.9900000  0  5G15G 2G13G19G 6
  20616700.1074   -7944804.99046  -6123147.08961
  18005064.5764  -33557280.23947 -25848022.69364
  18676412.662   -16515663.620 7 -10105974.62321
  21000347.318    -1512804.691 3  -1178836.15921
  17725855.795   -30775921.544 7 -21291312.76523
 91  4  8  0 34 14.9900000  0  5G15G 2G13G19G 6
  20614220.670    -7957846.047 6  -6133308.92421
  18003242.6004  -33566850.44847 -25855479.98864
  18665146.365   -16574866.247 7 -10152106.43421
  21005829.7484   -1483975.01143  -1156371.62961
  17719753.5924  -30807990.02047 -21316301.15963
 91  4  8  0 34 29.9900000  0  5G15G 2G13G19G 6
  20611766.701    -7970747.006 6  -6143361.58621
  18001430.2794  -33576375.70647 -25862902.26163
  18653902.240   -16633955.062 7 -10198149.54821
  21011322.670    -1455090.822 3  -1133864.61321
  17713668.834   -30839969.308 7 -21341220.06123
 91  4  8  0 34 44.9900000  0  5G15G 2G13G19G 6
  20609339.6934   -7983508.35746  -6153305.47461
  17999626.4594  -33585856.41447 -25870289.82064
  18642679.912   -16692930.262 7 -10244104.14421
  21016831.232    -1426152.586 3  -1111315.44321
  17707600.225   -30871859.447 7 -21366069.49723
 91  4  8  0 34 59.9900000  0  5G15G 2G13G19G 6
  20606937.209    -7996132.577 6  -6163142.48021
  17997830.2954  -33595295.06947 -25877644.60864
  18631478.982   -16751793.995 7 -10289971.87721
  21022348.561    -1397162.990 4  -1088726.30021
  17701547.7404  -30903662.74647 -21390851.26063
 91  4  8  0 35 14.9900000  0  5G15G 2G13G19G 6
  20604560.623    -8008620.090 6  -6172872.99821
  17996040.8504  -33604692.54447 -25884967.30863
  18620297.811   -16810546.703 7 -10335753.10421
  21027877.9674   -1368123.11144  -1066097.96761
  17695511.4204  -30935379.77847 -21415565.80563
 91  4  8  0 35 29.9900000  0  5G15G 2G13G19G 6
  20602209.7014   -8020974.69346  -6182499.92161
  17994260.7564  -33614052.28248 -25892260.60564
  18609138.8264  -16869191.52747 -10381450.25161
  21033407.4364   -1339036.51244  -1043433.24361
  17689492.857   -30967013.767 7 -21440215.64423
 91  4  8  0 35 44.9900000  0  5G15G 2G13G19G 6
  20599883.600    -8033193.176 6  -6192020.78921
  17992487.8654  -33623371.35847 -25899522.21563
  18597998.686   -16927725.385 7 -10427060.94621
  21038956.475    -1309900.509 4  -1020729.98421
  17683488.873   -30998561.478 7 -21464798.25023
 91  4  8  0 35 59.9900000  0  5G15G 2G13G19G 6
  20597583.2724   -8045269.55246  -6201430.92261
  17990723.9904  -33632643.70148 -25906747.41364
  18586883.248   -16986141.982 7 -10472580.26021
  21044510.600    -1280709.174 5   -997983.62421
  17677502.889   -31030016.599 7 -21489308.71323
 91  4  8  0 36 14.9900000  0  5G15G 2G13G19G 6
  20595308.607    -8057213.097 6  -6210737.55321
  17988965.3734  -33641878.85547 -25913943.63064
  18575787.670   -17044450.546 7 -10518015.40321
  21050073.4124   -1251472.15744   -975201.65661
  17671533.443   -31061388.167 7 -21513754.06623
 91  4  8  0 36 29.9900000  0  5G15G 2G13G19G 6
  20593065.7644   -8069020.76646  -6219938.28061
  17987215.4514  -33651073.42347 -25921108.22564
  18564713.279   -17102647.387 7 -10563363.47521
  21055645.623    -1222186.058 5   -952381.46321
  17665579.256   -31092672.659 7 -21538131.56623
 91  4  8  0 36 44.9900000  0  5G15G 2G13G19G 6
  20590844.8504   -8080687.19846  -6229028.97461
  17985475.3814  -33660222.41948 -25928237.30963
  18553660.107   -17160727.181 7 -10608620.35221
  21061233.2484   -1192846.07245   -929519.26761
  17659644.037   -31123864.798 7 -21562437.10823
 91  4  8  0 36 59.9900000  0  5G15G 2G13G19G 6
  20588648.139    -8092221.320 6  -6238016.54721
  17983740.9434  -33669334.59547 -25935337.70464
  18542628.365   -17218698.383 7 -10653792.61821
  21066821.8424   -1163461.24545   -906622.13561
  17653725.475   -31154973.050 7 -21586677.28223
 91  4  8  0 37 14.9900000  0  5G15G 2G13G19G 6
  20586483.2874   -8103615.81546  -6246895.34461
  17982015.1314  -33678402.98648 -25942403.97864
  18531619.326   -17276553.633 7 -10698874.51521
  21072425.3424   -1134024.41445   -883684.47861
  17647821.959   -31185990.005 7 -21610846.31523
 91  4  8  0 37 29.9900000  0  5G15G 2G13G19G 6
  20584338.092    -8114872.066 5  -6255666.41221
  17980297.9124  -33687429.19547 -25949437.38464
  18520631.350   -17334294.289 7 -10743867.13021
  21078035.9674   -1104537.19344   -860707.56961
  17641937.006   -31216916.951 7 -21634945.21623
 91  4  8  0 37 44.9900000  0  5G15G 2G13G19G 6
  20582223.3184   -8125988.75945  -6264328.73061
  17978588.9594  -33696411.69148 -25956436.72564
  18509666.412   -17391918.789 7 -10788769.23321
  21083656.123    -1074998.634 4   -837690.65521
  17636069.615   -31247752.262 7 -21658972.70923
 91  4  8  0 37 59.9900000  0  5G15G 2G13G19G 6
  20580136.1154   -8136965.29845  -6272881.84761
  17976886.7724  -33705349.82148 -25963401.49464
  18498722.967   -17449426.363 7 -10833580.22121
  21089285.537    -1045408.231 4   -814633.35721
  17630219.326   -31278495.223 7 -21682928.23923
 91  4  8  0 38 14.9900000  0  5G15G 2G13G19G 6
  20578070.8974   -8147808.05845  -6281330.71461
  17975194.6474  -33714249.98348 -25970336.68163
  18487800.022   -17506822.983 7 -10878304.75721
  21094925.514    -1015772.531 4   -791540.71721
  17624385.654   -31309151.680 7 -21706816.36823
 91  4  8  0 38 29.9900000  0  5G15G 2G13G19G 6
  20576032.0534   -8158512.43745  -6289671.75961
  17973508.5534  -33723107.73648 -25977238.82464
  18476900.795   -17564103.739 7 -10922939.00621
  21100576.6544    -986087.00444   -768409.28761
  17618569.287   -31339716.803 7 -21730633.32423
 91  4  8  0 38 44.9900000  0  5G15G 2G13G19G 6
  20574023.061    -8169073.287 6  -6297900.97721
  17971831.7794  -33731917.85948 -25984103.85464
  18466022.404   -17621263.308 7 -10967478.82321
  21106236.4754    -956346.81143   -745235.25961
  17612772.162   -31370185.262 7 -21754374.95723
 91  4  8  0 38 59.9900000  0  5G15G 2G13G19G 6
  20572042.732    -8179494.642 5  -6306021.47721
  17970163.7644  -33740684.46648 -25990934.97364
  18455167.701   -17678305.495 7 -11011927.17221
  21111901.389     -926555.976 3   -722021.76321
  17606990.951   -31400560.748 7 -21778044.14823
 91  4  8  0 39 14.9900000  0  5G15G 2G13G19G 6
  20570085.295    -8189783.407 5  -6314038.68421
  17968502.3424  -33749414.45648 -25997737.56163
  18444335.272   -17735236.996 7 -11056289.28221
  21117582.967     -896721.585 3   -698774.35321
  17601226.928   -31430849.967 7 -21801646.11523
 91  4  8  0 39 29.9900000  0  5G15G 2G13G19G 6
  20568152.1394   -8199935.69345  -6321949.51961
  17966848.6784  -33758104.04748 -26004508.67064
  18433521.092   -17792054.083 7 -11100562.22721
  21123265.232     -866840.159 3   -675490.25421
  17595481.232   -31461049.058 7 -21825177.84823
 91  4  8  0 39 44.9900000  0  5G15G 2G13G19G 6
  20566243.7954   -8209954.92445  -6329756.69061
  17965202.3344  -33766756.48648 -26011250.82664
  18422730.139   -17848759.550 7 -11144748.19821
  21128965.2094    -836915.11243   -652172.18661
  17589750.490   -31491160.910 7 -21848641.61023
 91  4  8  0 39 59.9900000  0  5G15G 2G13G19G 6
  20564362.3344   -8219833.48245  -6337454.24061
  17963564.7174  -33775364.27648 -26017958.19764
  18411963.912   -17905345.606 7 -11188841.13121
  21134664.2644    -806939.05743   -628814.38461
  17584038.553   -31521177.657 7 -21872031.26623
 91  4  8  0 40 14.9900000  0  5G15G 2G13G19G 6
  20562513.998    -8229571.867 5  -6345042.57321
  17961934.9364  -33783928.26848 -26024631.43763
  18401218.201   -17961812.659 7 -11232841.31921
  21140383.014     -776912.964 3   -605417.55321
  17578344.014   -31551099.815 7 -21895347.21223
 91  4  8  0 40 29.9900000  0  5G15G 2G13G19G 6
  20560686.7254   -8239172.11745  -6352523.25461
  17960313.2324  -33792450.24248 -26031271.93764
  18390495.264   -18018162.214 7 -11276749.95821
  21146103.607     -746838.705 3   -581983.22021
  17572667.342   -31580928.917 7 -21918590.64323
 91  4  8  0 40 44.9900000  0  5G15G 2G13G19G 6
  20558881.6154   -8248637.99245  -6359899.22961
  17958699.5764  -33800934.03848 -26037882.69563
  18379792.9674  -18074397.90447 -11320569.88061
  21151836.107     -716720.288 3   -558514.48921
  17567008.873   -31610668.437 7 -21941764.27423
 91  4  8  0 40 59.9900000  0  5G15G 2G13G19G 6
  20557111.740    -8257962.173 5  -6367164.81721
  17957092.2644  -33809372.47248 -26044458.08964
  18369115.498   -18130512.431 7 -11364295.38121
  21157574.631     -686550.794 3   -535005.92521
  17561368.279   -31640311.066 7 -21964862.41123
 91  4  8  0 41 14.9900000  0  5G15G 2G13G19G 6
  20555359.889    -8267145.761 5  -6374320.83921
  17955495.8264  -33817766.48448 -26050998.87663
  18358459.154   -18186506.405 7 -11407926.94621
  21163325.693     -656331.375 3   -511458.48321
  17555745.342   -31669857.572 7 -21987885.64123
 91  4  8  0 41 29.9900000  0  5G15G 2G13G19G 6
  20553642.162    -8276197.192 5  -6381373.86521
  17953905.9594  -33826124.40248 -26057511.53663
  18347825.576   -18242387.828 7 -11451470.81521
  21169082.9204    -626070.25343   -487878.51461
  17550139.209   -31699315.769 7 -22010840.06323
 91  4  8  0 41 44.9900000  0  5G15G 2G13G19G 6
  20551941.9284   -8285111.04445  -6388319.69561
  17952322.4204  -33834440.94348 -26063991.95864
  18337213.334   -18298151.222 7 -11494922.71121
  21174853.732     -595762.525 3   -464262.28821
  17544551.725   -31728680.252 7 -22033721.45523
 91  4  8  0 41 59.9900000  0  5G15G 2G13G19G 6
  20550274.7564   -8293884.35645  -6395156.01161
  17950748.5224  -33842713.14248 -26070437.82763
  18326625.2014  -18353793.65547 -11538280.35261
  21180634.037     -565405.384 3   -440607.48521
  17538982.772   -31757947.830 7 -22056527.34223
 91  4  8  0 42 14.9890000  0  5G15G 2G13G19G 6
  20548631.134    -8302523.769 5  -6401888.00821
  17949181.3294  -33850947.85348 -26076854.48963
  18316059.626   -18409318.268 7 -11581546.18021
  21186413.360     -535008.165 3   -416921.50521
  17533429.899   -31787123.456 7 -22079261.57823
 91  4  8  0 42 29.9890000  0  5G15G 2G13G19G 6
  20547013.626    -8311024.293 5  -6408511.77521
  17947622.3764  -33859139.90248 -26083237.90363
  18305516.2124  -18464726.03047 -11624720.96361
  21192208.071     -504560.797 4   -393196.42021
  17527897.282   -31816204.592 7 -22101922.18323
 91  4  8  0 42 44.9890000  0  5G15G 2G13G19G 6
  20545418.814    -8319387.123 5  -6415028.24521
  17946072.2744  -33867290.68048 -26089589.15863
  18294995.2674  -18520014.98847 -11667803.17561
  21198013.259     -474067.307 3   -369435.39921
  17522379.376   -31845190.880 7 -22124508.88023
 91  4  8  0 42 59.9890000  0  5G15G 2G13G19G 6
  20543851.2434   -8327609.90045
  17944528.8294  -33875397.66448
  18284495.9074  -18575182.47447 -11710790.73161
  21203822.7984    -443525.44743   -345636.69361
  17516883.868   -31874079.623 7 -22147019.57423
 91  4  8  0 43 14.9890000  0  5G15G 2G13G19G 6
  20542312.290    -8335695.330 5
  17942994.8604  -33883463.69248
  18274021.173   -18630230.887 7 -11753685.50021
  21209644.845     -412938.164 3   -321802.58721
  17511403.564   -31902873.306 7 -22169456.18923
 91  4  8  0 43 29.9890000  0  5G15G 2G13G19G 6
  20540803.7674   -8343643.06945  -6433928.93961
  17941466.7744  -33891488.20048 -26108444.37063
  18263568.493   -18685159.708 7 -11796487.07221
  21215473.556     -382305.111 3   -297932.82321
  17505944.524   -31931571.295 7 -22191818.23923
 91  4  8  0 43 44.9890000  0  5G15G 2G13G19G 6
  20539317.7434   -8351450.61245  -6440012.71161
  17939947.7984  -33899468.61148 -26114662.87763
  18253138.9394  -18739966.05347 -11839193.22861
  21221312.274     -351623.911 3   -274025.51921
  17500499.751   -31960170.747 7 -22214103.51123
